<?xml version='1.0' encoding='UTF-8'?><gpx version="1.1" creator="JPX - https://github.com/jenetics/jpx" xmlns="http://www.topografix.com/GPX/1/1"><trk><trkseg><trkpt lat="45.3795647" lon="11.766372"><ele>13.0</ele><time>2026-04-11T14:44:30.034Z</time></trkpt><trkpt lat="45.3794986" lon="11.7661966"><ele>13.0</ele><time>2026-04-11T14:44:32.034Z</time></trkpt><trkpt lat="45.3794638" lon="11.7660783"><ele>13.0</ele><time>2026-04-11T14:44:33.034Z</time></trkpt><trkpt lat="45.3794258" lon="11.7659499"><ele>13.0</ele><time>2026-04-11T14:44:34.034Z</time></trkpt><trkpt lat="45.3793812" lon="11.7658106"><ele>13.0</ele><time>2026-04-11T14:44:35.034Z</time></trkpt><trkpt lat="45.3793421" lon="11.7656709"><ele>13.2</ele><time>2026-04-11T14:44:36.033Z</time></trkpt><trkpt lat="45.3793022" lon="11.7655307"><ele>13.4</ele><time>2026-04-11T14:44:37.033Z</time></trkpt><trkpt lat="45.3792582" lon="11.7653929"><ele>13.599999999999998</ele><time>2026-04-11T14:44:38.035Z</time></trkpt><trkpt lat="45.3792134" lon="11.7652511"><ele>13.799999999999999</ele><time>2026-04-11T14:44:39.034Z</time></trkpt><trkpt lat="45.37917" lon="11.7651077"><ele>14.0</ele><time>2026-04-11T14:44:40.035Z</time></trkpt><trkpt lat="45.3791252" lon="11.76496"><ele>14.0</ele><time>2026-04-11T14:44:41.034Z</time></trkpt><trkpt lat="45.379074" lon="11.7647924"><ele>14.0</ele><time>2026-04-11T14:44:42.034Z</time></trkpt><trkpt lat="45.3790172" lon="11.7646057"><ele>14.0</ele><time>2026-04-11T14:44:43.034Z</time></trkpt><trkpt lat="45.3789635" lon="11.7644342"><ele>14.0</ele><time>2026-04-11T14:44:44.034Z</time></trkpt><trkpt lat="45.3789139" lon="11.7642773"><ele>14.0</ele><time>2026-04-11T14:44:45.034Z</time></trkpt><trkpt lat="45.3788662" lon="11.7641183"><ele>14.0</ele><time>2026-04-11T14:44:46.033Z</time></trkpt><trkpt lat="45.3788148" lon="11.7639535"><ele>14.0</ele><time>2026-04-11T14:44:47.035Z</time></trkpt><trkpt lat="45.3787594" lon="11.7637841"><ele>14.0</ele><time>2026-04-11T14:44:48.035Z</time></trkpt><trkpt lat="45.3787076" lon="11.7636125"><ele>14.25</ele><time>2026-04-11T14:44:49.034Z</time></trkpt><trkpt lat="45.3786576" lon="11.7634375"><ele>14.5</ele><time>2026-04-11T14:44:50.034Z</time></trkpt><trkpt lat="45.3786097" lon="11.7632541"><ele>14.75</ele><time>2026-04-11T14:44:51.033Z</time></trkpt><trkpt lat="45.378556" lon="11.7630658"><ele>15.0</ele><time>2026-04-11T14:44:52.034Z</time></trkpt><trkpt lat="45.3784991" lon="11.7628718"><ele>15.0</ele><time>2026-04-11T14:44:53.034Z</time></trkpt><trkpt lat="45.3784397" lon="11.7626638"><ele>15.0</ele><time>2026-04-11T14:44:54.033Z</time></trkpt><trkpt lat="45.3783706" lon="11.7624449"><ele>15.0</ele><time>2026-04-11T14:44:55.033Z</time></trkpt><trkpt lat="45.3782967" lon="11.7622149"><ele>15.0</ele><time>2026-04-11T14:44:56.034Z</time></trkpt><trkpt lat="45.3782318" lon="11.7619813"><ele>15.0</ele><time>2026-04-11T14:44:57.034Z</time></trkpt><trkpt lat="45.3781592" lon="11.7617389"><ele>15.0</ele><time>2026-04-11T14:44:58.035Z</time></trkpt><trkpt lat="45.3780784" lon="11.7614864"><ele>15.333333333333332</ele><time>2026-04-11T14:44:59.034Z</time></trkpt><trkpt lat="45.3779984" lon="11.7612255"><ele>15.666666666666666</ele><time>2026-04-11T14:45:00.034Z</time></trkpt><trkpt lat="45.3779217" lon="11.7609555"><ele>16.0</ele><time>2026-04-11T14:45:01.034Z</time></trkpt><trkpt lat="45.3778439" lon="11.7606792"><ele>16.0</ele><time>2026-04-11T14:45:02.034Z</time></trkpt><trkpt lat="45.3777603" lon="11.7603988"><ele>16.0</ele><time>2026-04-11T14:45:03.034Z</time></trkpt><trkpt lat="45.3776763" lon="11.7601179"><ele>16.0</ele><time>2026-04-11T14:45:04.034Z</time></trkpt><trkpt lat="45.3775905" lon="11.7598296"><ele>16.5</ele><time>2026-04-11T14:45:05.033Z</time></trkpt><trkpt lat="45.3775011" lon="11.7595343"><ele>17.0</ele><time>2026-04-11T14:45:06.033Z</time></trkpt><trkpt lat="45.3774064" lon="11.7592277"><ele>16.0</ele><time>2026-04-11T14:45:07.034Z</time></trkpt><trkpt lat="45.3773092" lon="11.7589134"><ele>15.0</ele><time>2026-04-11T14:45:08.033Z</time></trkpt><trkpt lat="45.3772099" lon="11.7585883"><ele>14.5</ele><time>2026-04-11T14:45:09.035Z</time></trkpt><trkpt lat="45.3771094" lon="11.7582534"><ele>14.0</ele><time>2026-04-11T14:45:10.033Z</time></trkpt><trkpt lat="45.377022" lon="11.7579755"><ele>14.0</ele><time>2026-04-11T14:45:11.033Z</time></trkpt><trkpt lat="45.3769551" lon="11.7577412"><ele>14.0</ele><time>2026-04-11T14:45:12.034Z</time></trkpt><trkpt lat="45.3768955" lon="11.757534"><ele>14.0</ele><time>2026-04-11T14:45:13.034Z</time></trkpt><trkpt lat="45.3768352" lon="11.7573391"><ele>14.0</ele><time>2026-04-11T14:45:14.035Z</time></trkpt><trkpt lat="45.3767715" lon="11.7571375"><ele>14.0</ele><time>2026-04-11T14:45:15.034Z</time></trkpt><trkpt lat="45.3767112" lon="11.7569272"><ele>14.0</ele><time>2026-04-11T14:45:16.034Z</time></trkpt><trkpt lat="45.3766511" lon="11.7567124"><ele>14.0</ele><time>2026-04-11T14:45:17.035Z</time></trkpt><trkpt lat="45.376583" lon="11.75649"><ele>14.0</ele><time>2026-04-11T14:45:18.034Z</time></trkpt><trkpt lat="45.3765137" lon="11.75626"><ele>14.0</ele><time>2026-04-11T14:45:19.034Z</time></trkpt><trkpt lat="45.3764449" lon="11.7560259"><ele>14.0</ele><time>2026-04-11T14:45:20.034Z</time></trkpt><trkpt lat="45.376374" lon="11.7557885"><ele>14.0</ele><time>2026-04-11T14:45:21.032Z</time></trkpt><trkpt lat="45.3762956" lon="11.7555493"><ele>14.0</ele><time>2026-04-11T14:45:22.035Z</time></trkpt><trkpt lat="45.3762235" lon="11.755314"><ele>14.0</ele><time>2026-04-11T14:45:23.033Z</time></trkpt><trkpt lat="45.3761495" lon="11.7550708"><ele>14.0</ele><time>2026-04-11T14:45:24.034Z</time></trkpt><trkpt lat="45.3760773" lon="11.7548304"><ele>14.0</ele><time>2026-04-11T14:45:25.033Z</time></trkpt><trkpt lat="45.3760026" lon="11.7545923"><ele>13.666666666666668</ele><time>2026-04-11T14:45:26.033Z</time></trkpt><trkpt lat="45.3759319" lon="11.7543513"><ele>13.333333333333332</ele><time>2026-04-11T14:45:27.033Z</time></trkpt><trkpt lat="45.375859" lon="11.7541154"><ele>13.0</ele><time>2026-04-11T14:45:28.034Z</time></trkpt><trkpt lat="45.3757879" lon="11.7538766"><ele>13.0</ele><time>2026-04-11T14:45:29.034Z</time></trkpt><trkpt lat="45.3757174" lon="11.7536389"><ele>13.0</ele><time>2026-04-11T14:45:30.034Z</time></trkpt><trkpt lat="45.3756463" lon="11.7533979"><ele>13.0</ele><time>2026-04-11T14:45:31.032Z</time></trkpt><trkpt lat="45.3755749" lon="11.7531548"><ele>13.0</ele><time>2026-04-11T14:45:32.034Z</time></trkpt><trkpt lat="45.3754992" lon="11.7529153"><ele>13.0</ele><time>2026-04-11T14:45:33.034Z</time></trkpt><trkpt lat="45.375427" lon="11.7526771"><ele>13.0</ele><time>2026-04-11T14:45:34.033Z</time></trkpt><trkpt lat="45.3753513" lon="11.7524384"><ele>13.0</ele><time>2026-04-11T14:45:35.035Z</time></trkpt><trkpt lat="45.3752755" lon="11.7522015"><ele>13.0</ele><time>2026-04-11T14:45:36.032Z</time></trkpt><trkpt lat="45.3752051" lon="11.751969"><ele>13.0</ele><time>2026-04-11T14:45:37.035Z</time></trkpt><trkpt lat="45.3751339" lon="11.7517432"><ele>13.0</ele><time>2026-04-11T14:45:38.035Z</time></trkpt><trkpt lat="45.3750634" lon="11.7515231"><ele>13.0</ele><time>2026-04-11T14:45:39.034Z</time></trkpt><trkpt lat="45.3749998" lon="11.751305"><ele>13.0</ele><time>2026-04-11T14:45:40.034Z</time></trkpt><trkpt lat="45.3749357" lon="11.7510923"><ele>13.333333333333332</ele><time>2026-04-11T14:45:41.034Z</time></trkpt><trkpt lat="45.3748759" lon="11.7508872"><ele>13.666666666666668</ele><time>2026-04-11T14:45:42.033Z</time></trkpt><trkpt lat="45.3748153" lon="11.7506821"><ele>14.0</ele><time>2026-04-11T14:45:43.033Z</time></trkpt><trkpt lat="45.3747534" lon="11.7504823"><ele>14.0</ele><time>2026-04-11T14:45:44.034Z</time></trkpt><trkpt lat="45.3746928" lon="11.7502833"><ele>14.0</ele><time>2026-04-11T14:45:45.034Z</time></trkpt><trkpt lat="45.3746368" lon="11.750083"><ele>14.0</ele><time>2026-04-11T14:45:46.034Z</time></trkpt><trkpt lat="45.374583" lon="11.7498781"><ele>14.0</ele><time>2026-04-11T14:45:47.033Z</time></trkpt><trkpt lat="45.3745197" lon="11.7496781"><ele>14.0</ele><time>2026-04-11T14:45:48.033Z</time></trkpt><trkpt lat="45.3744556" lon="11.7494764"><ele>14.0</ele><time>2026-04-11T14:45:49.033Z</time></trkpt><trkpt lat="45.3743937" lon="11.7492749"><ele>14.0</ele><time>2026-04-11T14:45:50.033Z</time></trkpt><trkpt lat="45.3743323" lon="11.7490745"><ele>14.0</ele><time>2026-04-11T14:45:51.034Z</time></trkpt><trkpt lat="45.3742707" lon="11.7488771"><ele>14.0</ele><time>2026-04-11T14:45:52.035Z</time></trkpt><trkpt lat="45.3742151" lon="11.7486857"><ele>13.75</ele><time>2026-04-11T14:45:53.034Z</time></trkpt><trkpt lat="45.3741572" lon="11.7485002"><ele>13.5</ele><time>2026-04-11T14:45:54.033Z</time></trkpt><trkpt lat="45.3740999" lon="11.7483163"><ele>13.25</ele><time>2026-04-11T14:45:55.034Z</time></trkpt><trkpt lat="45.374046" lon="11.7481394"><ele>13.0</ele><time>2026-04-11T14:45:56.033Z</time></trkpt><trkpt lat="45.3739949" lon="11.7479663"><ele>13.0</ele><time>2026-04-11T14:45:57.033Z</time></trkpt><trkpt lat="45.3739434" lon="11.7477945"><ele>13.0</ele><time>2026-04-11T14:45:58.034Z</time></trkpt><trkpt lat="45.3738905" lon="11.7476221"><ele>13.0</ele><time>2026-04-11T14:45:59.034Z</time></trkpt><trkpt lat="45.3738393" lon="11.7474567"><ele>13.0</ele><time>2026-04-11T14:46:00.034Z</time></trkpt><trkpt lat="45.3737898" lon="11.7472907"><ele>13.25</ele><time>2026-04-11T14:46:01.035Z</time></trkpt><trkpt lat="45.3737464" lon="11.7471297"><ele>13.5</ele><time>2026-04-11T14:46:02.032Z</time></trkpt><trkpt lat="45.3736994" lon="11.7469735"><ele>13.75</ele><time>2026-04-11T14:46:03.033Z</time></trkpt><trkpt lat="45.3736524" lon="11.7468165"><ele>14.0</ele><time>2026-04-11T14:46:04.034Z</time></trkpt><trkpt lat="45.3736054" lon="11.7466592"><ele>13.5</ele><time>2026-04-11T14:46:05.033Z</time></trkpt><trkpt lat="45.3735538" lon="11.7465083"><ele>13.0</ele><time>2026-04-11T14:46:06.034Z</time></trkpt><trkpt lat="45.3734924" lon="11.7463658"><ele>12.5</ele><time>2026-04-11T14:46:07.034Z</time></trkpt><trkpt lat="45.3734281" lon="11.7462328"><ele>12.0</ele><time>2026-04-11T14:46:08.033Z</time></trkpt><trkpt lat="45.3733581" lon="11.7461058"><ele>12.0</ele><time>2026-04-11T14:46:09.035Z</time></trkpt><trkpt lat="45.3732892" lon="11.7459837"><ele>12.0</ele><time>2026-04-11T14:46:10.034Z</time></trkpt><trkpt lat="45.3732193" lon="11.7458701"><ele>12.0</ele><time>2026-04-11T14:46:11.034Z</time></trkpt><trkpt lat="45.3731467" lon="11.7457619"><ele>12.0</ele><time>2026-04-11T14:46:12.034Z</time></trkpt><trkpt lat="45.3730798" lon="11.7456654"><ele>12.0</ele><time>2026-04-11T14:46:13.035Z</time></trkpt><trkpt lat="45.373008" lon="11.7455762"><ele>12.333333333333334</ele><time>2026-04-11T14:46:14.034Z</time></trkpt><trkpt lat="45.3729361" lon="11.7454895"><ele>12.666666666666668</ele><time>2026-04-11T14:46:15.034Z</time></trkpt><trkpt lat="45.3728666" lon="11.7454079"><ele>13.0</ele><time>2026-04-11T14:46:16.034Z</time></trkpt><trkpt lat="45.3728161" lon="11.7453358"><ele>13.333333333333334</ele><time>2026-04-11T14:46:17.033Z</time></trkpt><trkpt lat="45.3727702" lon="11.7452639"><ele>13.666666666666668</ele><time>2026-04-11T14:46:18.033Z</time></trkpt><trkpt lat="45.3727344" lon="11.745185"><ele>14.0</ele><time>2026-04-11T14:46:19.034Z</time></trkpt><trkpt lat="45.3726765" lon="11.7450252"><ele>14.000000000000002</ele><time>2026-04-11T14:46:21.033Z</time></trkpt><trkpt lat="45.372627" lon="11.7449518"><ele>14.0</ele><time>2026-04-11T14:46:22.034Z</time></trkpt><trkpt lat="45.3725698" lon="11.7448843"><ele>14.0</ele><time>2026-04-11T14:46:23.034Z</time></trkpt><trkpt lat="45.3725142" lon="11.7448055"><ele>14.0</ele><time>2026-04-11T14:46:24.033Z</time></trkpt><trkpt lat="45.3724636" lon="11.7447085"><ele>14.000000000000002</ele><time>2026-04-11T14:46:25.034Z</time></trkpt><trkpt lat="45.3724214" lon="11.744597"><ele>14.0</ele><time>2026-04-11T14:46:26.034Z</time></trkpt><trkpt lat="45.3723924" lon="11.7444738"><ele>14.000000000000002</ele><time>2026-04-11T14:46:27.034Z</time></trkpt><trkpt lat="45.3723759" lon="11.7443424"><ele>14.0</ele><time>2026-04-11T14:46:28.035Z</time></trkpt><trkpt lat="45.3723622" lon="11.7442093"><ele>14.0</ele><time>2026-04-11T14:46:29.034Z</time></trkpt><trkpt lat="45.3723537" lon="11.7440783"><ele>14.0</ele><time>2026-04-11T14:46:30.033Z</time></trkpt><trkpt lat="45.3723473" lon="11.7439593"><ele>14.000000000000002</ele><time>2026-04-11T14:46:31.035Z</time></trkpt><trkpt lat="45.37235" lon="11.7438506"><ele>14.0</ele><time>2026-04-11T14:46:32.033Z</time></trkpt><trkpt lat="45.3723691" lon="11.7437578"><ele>14.0</ele><time>2026-04-11T14:46:33.034Z</time></trkpt><trkpt lat="45.3724129" lon="11.7436041"><ele>13.999999999999998</ele><time>2026-04-11T14:46:35.033Z</time></trkpt><trkpt lat="45.3723927" lon="11.7434644"><ele>13.999999999999998</ele><time>2026-04-11T14:46:37.033Z</time></trkpt><trkpt lat="45.3723373" lon="11.7433021"><ele>14.0</ele><time>2026-04-11T14:46:39.034Z</time></trkpt><trkpt lat="45.3723194" lon="11.7432046"><ele>14.0</ele><time>2026-04-11T14:46:40.034Z</time></trkpt><trkpt lat="45.3723027" lon="11.7430945"><ele>14.000000000000002</ele><time>2026-04-11T14:46:41.034Z</time></trkpt><trkpt lat="45.3722938" lon="11.7429876"><ele>14.0</ele><time>2026-04-11T14:46:42.033Z</time></trkpt><trkpt lat="45.3722831" lon="11.7428647"><ele>14.0</ele><time>2026-04-11T14:46:43.033Z</time></trkpt><trkpt lat="45.3722761" lon="11.7427397"><ele>14.0</ele><time>2026-04-11T14:46:44.034Z</time></trkpt><trkpt lat="45.3722686" lon="11.7426138"><ele>14.000000000000002</ele><time>2026-04-11T14:46:45.035Z</time></trkpt><trkpt lat="45.3722677" lon="11.742482"><ele>14.0</ele><time>2026-04-11T14:46:46.034Z</time></trkpt><trkpt lat="45.3722628" lon="11.742347"><ele>14.0</ele><time>2026-04-11T14:46:47.035Z</time></trkpt><trkpt lat="45.3722599" lon="11.7422021"><ele>13.999999999999998</ele><time>2026-04-11T14:46:48.035Z</time></trkpt><trkpt lat="45.3722524" lon="11.7420651"><ele>13.999999999999998</ele><time>2026-04-11T14:46:49.034Z</time></trkpt><trkpt lat="45.3722469" lon="11.7419214"><ele>14.0</ele><time>2026-04-11T14:46:50.034Z</time></trkpt><trkpt lat="45.3722404" lon="11.7417753"><ele>14.0</ele><time>2026-04-11T14:46:51.035Z</time></trkpt><trkpt lat="45.3722364" lon="11.7416214"><ele>14.0</ele><time>2026-04-11T14:46:52.033Z</time></trkpt><trkpt lat="45.3722277" lon="11.7414612"><ele>14.0</ele><time>2026-04-11T14:46:53.033Z</time></trkpt><trkpt lat="45.3722211" lon="11.7413015"><ele>14.0</ele><time>2026-04-11T14:46:54.035Z</time></trkpt><trkpt lat="45.3722157" lon="11.7411393"><ele>14.0</ele><time>2026-04-11T14:46:55.033Z</time></trkpt><trkpt lat="45.3722088" lon="11.7409771"><ele>14.0</ele><time>2026-04-11T14:46:56.034Z</time></trkpt><trkpt lat="45.3721974" lon="11.7408074"><ele>14.0</ele><time>2026-04-11T14:46:57.035Z</time></trkpt><trkpt lat="45.3721868" lon="11.7406316"><ele>14.0</ele><time>2026-04-11T14:46:58.034Z</time></trkpt><trkpt lat="45.3721762" lon="11.7404578"><ele>14.0</ele><time>2026-04-11T14:46:59.035Z</time></trkpt><trkpt lat="45.3721654" lon="11.7402765"><ele>13.75</ele><time>2026-04-11T14:47:00.034Z</time></trkpt><trkpt lat="45.3721527" lon="11.7400881"><ele>13.5</ele><time>2026-04-11T14:47:01.033Z</time></trkpt><trkpt lat="45.3721442" lon="11.7398956"><ele>13.25</ele><time>2026-04-11T14:47:02.035Z</time></trkpt><trkpt lat="45.3721359" lon="11.7396998"><ele>13.0</ele><time>2026-04-11T14:47:03.034Z</time></trkpt><trkpt lat="45.3721286" lon="11.7394952"><ele>13.25</ele><time>2026-04-11T14:47:04.034Z</time></trkpt><trkpt lat="45.3721195" lon="11.7392879"><ele>13.5</ele><time>2026-04-11T14:47:05.034Z</time></trkpt><trkpt lat="45.3721122" lon="11.7390763"><ele>13.75</ele><time>2026-04-11T14:47:06.035Z</time></trkpt><trkpt lat="45.3721028" lon="11.7388712"><ele>14.0</ele><time>2026-04-11T14:47:07.034Z</time></trkpt><trkpt lat="45.3720917" lon="11.7386714"><ele>14.0</ele><time>2026-04-11T14:47:08.035Z</time></trkpt><trkpt lat="45.3720843" lon="11.7384711"><ele>14.0</ele><time>2026-04-11T14:47:09.034Z</time></trkpt><trkpt lat="45.3720725" lon="11.7382697"><ele>14.0</ele><time>2026-04-11T14:47:10.034Z</time></trkpt><trkpt lat="45.3720618" lon="11.7380647"><ele>14.0</ele><time>2026-04-11T14:47:11.033Z</time></trkpt><trkpt lat="45.3720509" lon="11.7378528"><ele>13.666666666666668</ele><time>2026-04-11T14:47:12.033Z</time></trkpt><trkpt lat="45.37204" lon="11.7376413"><ele>13.333333333333332</ele><time>2026-04-11T14:47:13.033Z</time></trkpt><trkpt lat="45.3720288" lon="11.737425"><ele>13.0</ele><time>2026-04-11T14:47:14.034Z</time></trkpt><trkpt lat="45.3720178" lon="11.7372065"><ele>13.0</ele><time>2026-04-11T14:47:15.033Z</time></trkpt><trkpt lat="45.3720109" lon="11.736986"><ele>13.0</ele><time>2026-04-11T14:47:16.035Z</time></trkpt><trkpt lat="45.3720011" lon="11.7367744"><ele>13.0</ele><time>2026-04-11T14:47:17.034Z</time></trkpt><trkpt lat="45.3719907" lon="11.7365638"><ele>13.0</ele><time>2026-04-11T14:47:18.034Z</time></trkpt><trkpt lat="45.3719801" lon="11.7363568"><ele>13.0</ele><time>2026-04-11T14:47:19.033Z</time></trkpt><trkpt lat="45.3719708" lon="11.7361616"><ele>13.0</ele><time>2026-04-11T14:47:20.033Z</time></trkpt><trkpt lat="45.3719617" lon="11.7359715"><ele>13.0</ele><time>2026-04-11T14:47:21.034Z</time></trkpt><trkpt lat="45.371953" lon="11.7357775"><ele>13.0</ele><time>2026-04-11T14:47:22.035Z</time></trkpt><trkpt lat="45.371942" lon="11.7355832"><ele>13.0</ele><time>2026-04-11T14:47:23.035Z</time></trkpt><trkpt lat="45.3719309" lon="11.7353874"><ele>13.0</ele><time>2026-04-11T14:47:24.034Z</time></trkpt><trkpt lat="45.3719222" lon="11.7351882"><ele>13.0</ele><time>2026-04-11T14:47:25.034Z</time></trkpt><trkpt lat="45.3719106" lon="11.7349872"><ele>13.0</ele><time>2026-04-11T14:47:26.034Z</time></trkpt><trkpt lat="45.3718997" lon="11.7347843"><ele>13.0</ele><time>2026-04-11T14:47:27.034Z</time></trkpt><trkpt lat="45.3718927" lon="11.7345834"><ele>13.0</ele><time>2026-04-11T14:47:28.035Z</time></trkpt><trkpt lat="45.3718816" lon="11.7343813"><ele>13.0</ele><time>2026-04-11T14:47:29.035Z</time></trkpt><trkpt lat="45.3718749" lon="11.7341846"><ele>13.0</ele><time>2026-04-11T14:47:30.034Z</time></trkpt><trkpt lat="45.3718664" lon="11.7339946"><ele>13.0</ele><time>2026-04-11T14:47:31.035Z</time></trkpt><trkpt lat="45.3718552" lon="11.7338083"><ele>13.0</ele><time>2026-04-11T14:47:32.033Z</time></trkpt><trkpt lat="45.3718416" lon="11.7336302"><ele>13.0</ele><time>2026-04-11T14:47:33.034Z</time></trkpt><trkpt lat="45.37183" lon="11.7334598"><ele>13.4</ele><time>2026-04-11T14:47:34.034Z</time></trkpt><trkpt lat="45.3718226" lon="11.7332927"><ele>13.8</ele><time>2026-04-11T14:47:35.033Z</time></trkpt><trkpt lat="45.3718175" lon="11.7331367"><ele>14.2</ele><time>2026-04-11T14:47:36.034Z</time></trkpt><trkpt lat="45.3718182" lon="11.7329973"><ele>14.6</ele><time>2026-04-11T14:47:37.034Z</time></trkpt><trkpt lat="45.3718233" lon="11.7328796"><ele>15.0</ele><time>2026-04-11T14:47:38.033Z</time></trkpt><trkpt lat="45.3718295" lon="11.7327704"><ele>14.833333333333334</ele><time>2026-04-11T14:47:39.034Z</time></trkpt><trkpt lat="45.3718382" lon="11.7326673"><ele>14.666666666666668</ele><time>2026-04-11T14:47:40.034Z</time></trkpt><trkpt lat="45.3718635" lon="11.7325811"><ele>14.5</ele><time>2026-04-11T14:47:41.035Z</time></trkpt><trkpt lat="45.3719589" lon="11.7324756"><ele>14.333333333333334</ele><time>2026-04-11T14:47:43.035Z</time></trkpt><trkpt lat="45.3720176" lon="11.7324239"><ele>14.166666666666668</ele><time>2026-04-11T14:47:44.033Z</time></trkpt><trkpt lat="45.3720654" lon="11.7323494"><ele>14.0</ele><time>2026-04-11T14:47:45.034Z</time></trkpt><trkpt lat="45.3720938" lon="11.7322619"><ele>14.000000000000002</ele><time>2026-04-11T14:47:46.035Z</time></trkpt><trkpt lat="45.3720724" lon="11.7320873"><ele>14.0</ele><time>2026-04-11T14:47:48.035Z</time></trkpt><trkpt lat="45.3720357" lon="11.7320133"><ele>14.0</ele><time>2026-04-11T14:47:49.035Z</time></trkpt><trkpt lat="45.3719692" lon="11.731972"><ele>14.0</ele><time>2026-04-11T14:47:50.034Z</time></trkpt><trkpt lat="45.3719086" lon="11.7319235"><ele>14.000000000000002</ele><time>2026-04-11T14:47:51.034Z</time></trkpt><trkpt lat="45.3718445" lon="11.7318684"><ele>14.0</ele><time>2026-04-11T14:47:52.034Z</time></trkpt><trkpt lat="45.3718024" lon="11.7317862"><ele>14.000000000000002</ele><time>2026-04-11T14:47:53.033Z</time></trkpt><trkpt lat="45.3717849" lon="11.7316701"><ele>14.0</ele><time>2026-04-11T14:47:54.033Z</time></trkpt><trkpt lat="45.3717703" lon="11.7315518"><ele>14.0</ele><time>2026-04-11T14:47:55.034Z</time></trkpt><trkpt lat="45.3717564" lon="11.7314195"><ele>14.0</ele><time>2026-04-11T14:47:56.033Z</time></trkpt><trkpt lat="45.3717445" lon="11.7312937"><ele>14.000000000000002</ele><time>2026-04-11T14:47:57.035Z</time></trkpt><trkpt lat="45.3717284" lon="11.7311556"><ele>14.0</ele><time>2026-04-11T14:47:58.033Z</time></trkpt><trkpt lat="45.3717124" lon="11.7310155"><ele>14.0</ele><time>2026-04-11T14:47:59.033Z</time></trkpt><trkpt lat="45.3716899" lon="11.7308613"><ele>14.0</ele><time>2026-04-11T14:48:00.033Z</time></trkpt><trkpt lat="45.3716743" lon="11.7307097"><ele>14.0</ele><time>2026-04-11T14:48:01.033Z</time></trkpt><trkpt lat="45.3716545" lon="11.7305477"><ele>14.0</ele><time>2026-04-11T14:48:02.034Z</time></trkpt><trkpt lat="45.3716364" lon="11.7303752"><ele>13.75</ele><time>2026-04-11T14:48:03.034Z</time></trkpt><trkpt lat="45.371621" lon="11.7302001"><ele>13.5</ele><time>2026-04-11T14:48:04.034Z</time></trkpt><trkpt lat="45.3716028" lon="11.7300168"><ele>13.25</ele><time>2026-04-11T14:48:05.034Z</time></trkpt><trkpt lat="45.371582" lon="11.7298245"><ele>13.0</ele><time>2026-04-11T14:48:06.035Z</time></trkpt><trkpt lat="45.3715591" lon="11.7296247"><ele>13.0</ele><time>2026-04-11T14:48:07.033Z</time></trkpt><trkpt lat="45.371541" lon="11.7294074"><ele>13.0</ele><time>2026-04-11T14:48:08.034Z</time></trkpt><trkpt lat="45.3715236" lon="11.7291728"><ele>13.0</ele><time>2026-04-11T14:48:09.033Z</time></trkpt><trkpt lat="45.3715122" lon="11.7289184"><ele>13.0</ele><time>2026-04-11T14:48:10.033Z</time></trkpt><trkpt lat="45.3714995" lon="11.7286382"><ele>13.0</ele><time>2026-04-11T14:48:11.035Z</time></trkpt><trkpt lat="45.3714948" lon="11.7283594"><ele>13.0</ele><time>2026-04-11T14:48:12.033Z</time></trkpt><trkpt lat="45.3714858" lon="11.7280881"><ele>13.333333333333332</ele><time>2026-04-11T14:48:13.034Z</time></trkpt><trkpt lat="45.3714735" lon="11.7278205"><ele>13.666666666666668</ele><time>2026-04-11T14:48:14.034Z</time></trkpt><trkpt lat="45.3714645" lon="11.7275483"><ele>14.0</ele><time>2026-04-11T14:48:15.033Z</time></trkpt><trkpt lat="45.3714558" lon="11.7272757"><ele>14.333333333333334</ele><time>2026-04-11T14:48:16.034Z</time></trkpt><trkpt lat="45.3714488" lon="11.7270048"><ele>14.666666666666668</ele><time>2026-04-11T14:48:17.034Z</time></trkpt><trkpt lat="45.3714436" lon="11.726741"><ele>15.0</ele><time>2026-04-11T14:48:18.035Z</time></trkpt><trkpt lat="45.3714362" lon="11.7264745"><ele>15.0</ele><time>2026-04-11T14:48:19.035Z</time></trkpt><trkpt lat="45.3714267" lon="11.7262091"><ele>15.0</ele><time>2026-04-11T14:48:20.034Z</time></trkpt><trkpt lat="45.3714162" lon="11.7259519"><ele>15.0</ele><time>2026-04-11T14:48:21.035Z</time></trkpt><trkpt lat="45.3714077" lon="11.7257007"><ele>15.333333333333332</ele><time>2026-04-11T14:48:22.033Z</time></trkpt><trkpt lat="45.3713974" lon="11.7254559"><ele>15.666666666666666</ele><time>2026-04-11T14:48:23.034Z</time></trkpt><trkpt lat="45.3713854" lon="11.7252165"><ele>16.0</ele><time>2026-04-11T14:48:24.033Z</time></trkpt><trkpt lat="45.3713793" lon="11.7249826"><ele>15.0</ele><time>2026-04-11T14:48:25.034Z</time></trkpt><trkpt lat="45.3713746" lon="11.7247415"><ele>14.0</ele><time>2026-04-11T14:48:26.033Z</time></trkpt><trkpt lat="45.371369" lon="11.7245033"><ele>13.0</ele><time>2026-04-11T14:48:27.034Z</time></trkpt><trkpt lat="45.3713626" lon="11.7242693"><ele>12.75</ele><time>2026-04-11T14:48:28.035Z</time></trkpt><trkpt lat="45.3713523" lon="11.7240436"><ele>12.5</ele><time>2026-04-11T14:48:29.034Z</time></trkpt><trkpt lat="45.37135" lon="11.7238358"><ele>12.25</ele><time>2026-04-11T14:48:30.034Z</time></trkpt><trkpt lat="45.3713476" lon="11.723653"><ele>12.0</ele><time>2026-04-11T14:48:31.034Z</time></trkpt><trkpt lat="45.3713429" lon="11.7234652"><ele>12.75</ele><time>2026-04-11T14:48:32.033Z</time></trkpt><trkpt lat="45.3713385" lon="11.7232889"><ele>13.5</ele><time>2026-04-11T14:48:33.034Z</time></trkpt><trkpt lat="45.3713353" lon="11.7231186"><ele>14.25</ele><time>2026-04-11T14:48:34.034Z</time></trkpt><trkpt lat="45.3713332" lon="11.7229531"><ele>15.0</ele><time>2026-04-11T14:48:35.033Z</time></trkpt><trkpt lat="45.371331" lon="11.7227856"><ele>15.0</ele><time>2026-04-11T14:48:36.034Z</time></trkpt><trkpt lat="45.3713268" lon="11.7226192"><ele>15.0</ele><time>2026-04-11T14:48:37.034Z</time></trkpt><trkpt lat="45.3713272" lon="11.7224504"><ele>15.0</ele><time>2026-04-11T14:48:38.035Z</time></trkpt><trkpt lat="45.3713245" lon="11.7222817"><ele>15.0</ele><time>2026-04-11T14:48:39.033Z</time></trkpt><trkpt lat="45.3713193" lon="11.7221111"><ele>15.0</ele><time>2026-04-11T14:48:40.034Z</time></trkpt><trkpt lat="45.3713104" lon="11.7219415"><ele>15.0</ele><time>2026-04-11T14:48:41.035Z</time></trkpt><trkpt lat="45.371306" lon="11.7217686"><ele>15.0</ele><time>2026-04-11T14:48:42.034Z</time></trkpt><trkpt lat="45.3713012" lon="11.7215953"><ele>15.0</ele><time>2026-04-11T14:48:43.034Z</time></trkpt><trkpt lat="45.3712957" lon="11.721422"><ele>15.0</ele><time>2026-04-11T14:48:44.034Z</time></trkpt><trkpt lat="45.3712915" lon="11.7212439"><ele>15.0</ele><time>2026-04-11T14:48:45.035Z</time></trkpt><trkpt lat="45.3712909" lon="11.7210669"><ele>15.0</ele><time>2026-04-11T14:48:46.034Z</time></trkpt><trkpt lat="45.3712845" lon="11.7208927"><ele>15.0</ele><time>2026-04-11T14:48:47.034Z</time></trkpt><trkpt lat="45.371284" lon="11.7207146"><ele>15.0</ele><time>2026-04-11T14:48:48.034Z</time></trkpt><trkpt lat="45.3712829" lon="11.720538"><ele>15.0</ele><time>2026-04-11T14:48:49.034Z</time></trkpt><trkpt lat="45.3712794" lon="11.7203584"><ele>15.0</ele><time>2026-04-11T14:48:50.034Z</time></trkpt><trkpt lat="45.3712763" lon="11.7201838"><ele>15.0</ele><time>2026-04-11T14:48:51.034Z</time></trkpt><trkpt lat="45.3712747" lon="11.7200117"><ele>15.0</ele><time>2026-04-11T14:48:52.034Z</time></trkpt><trkpt lat="45.3712741" lon="11.7198439"><ele>15.0</ele><time>2026-04-11T14:48:53.034Z</time></trkpt><trkpt lat="45.3712718" lon="11.7196782"><ele>15.0</ele><time>2026-04-11T14:48:54.035Z</time></trkpt><trkpt lat="45.3712655" lon="11.719515"><ele>15.0</ele><time>2026-04-11T14:48:55.035Z</time></trkpt><trkpt lat="45.3712613" lon="11.7193553"><ele>15.0</ele><time>2026-04-11T14:48:56.034Z</time></trkpt><trkpt lat="45.371256" lon="11.7191979"><ele>15.0</ele><time>2026-04-11T14:48:57.033Z</time></trkpt><trkpt lat="45.3712512" lon="11.7190395"><ele>15.0</ele><time>2026-04-11T14:48:58.035Z</time></trkpt><trkpt lat="45.371243" lon="11.7188811"><ele>15.0</ele><time>2026-04-11T14:48:59.034Z</time></trkpt><trkpt lat="45.3712343" lon="11.7187225"><ele>15.0</ele><time>2026-04-11T14:49:00.035Z</time></trkpt><trkpt lat="45.3712257" lon="11.7185629"><ele>15.0</ele><time>2026-04-11T14:49:01.035Z</time></trkpt><trkpt lat="45.3712235" lon="11.7184025"><ele>15.0</ele><time>2026-04-11T14:49:02.034Z</time></trkpt><trkpt lat="45.3712176" lon="11.7182407"><ele>15.0</ele><time>2026-04-11T14:49:03.033Z</time></trkpt><trkpt lat="45.3712078" lon="11.7180784"><ele>15.0</ele><time>2026-04-11T14:49:04.034Z</time></trkpt><trkpt lat="45.3711888" lon="11.717915"><ele>15.0</ele><time>2026-04-11T14:49:05.035Z</time></trkpt><trkpt lat="45.3711622" lon="11.7177549"><ele>15.0</ele><time>2026-04-11T14:49:06.035Z</time></trkpt><trkpt lat="45.3711145" lon="11.7176013"><ele>15.0</ele><time>2026-04-11T14:49:07.035Z</time></trkpt><trkpt lat="45.3710541" lon="11.7174533"><ele>15.0</ele><time>2026-04-11T14:49:08.033Z</time></trkpt><trkpt lat="45.3709836" lon="11.717314"><ele>15.0</ele><time>2026-04-11T14:49:09.035Z</time></trkpt><trkpt lat="45.3709091" lon="11.7171773"><ele>15.0</ele><time>2026-04-11T14:49:10.035Z</time></trkpt><trkpt lat="45.3708289" lon="11.7170413"><ele>15.0</ele><time>2026-04-11T14:49:11.034Z</time></trkpt><trkpt lat="45.3707456" lon="11.7169055"><ele>15.0</ele><time>2026-04-11T14:49:12.033Z</time></trkpt><trkpt lat="45.3706637" lon="11.7167675"><ele>15.0</ele><time>2026-04-11T14:49:13.033Z</time></trkpt><trkpt lat="45.3705836" lon="11.7166258"><ele>15.0</ele><time>2026-04-11T14:49:14.035Z</time></trkpt><trkpt lat="45.3704985" lon="11.7164827"><ele>15.0</ele><time>2026-04-11T14:49:15.036Z</time></trkpt><trkpt lat="45.3704197" lon="11.7163381"><ele>15.0</ele><time>2026-04-11T14:49:16.033Z</time></trkpt><trkpt lat="45.3703364" lon="11.7161956"><ele>14.75</ele><time>2026-04-11T14:49:17.033Z</time></trkpt><trkpt lat="45.3702542" lon="11.7160567"><ele>14.5</ele><time>2026-04-11T14:49:18.034Z</time></trkpt><trkpt lat="45.3701733" lon="11.7159213"><ele>14.25</ele><time>2026-04-11T14:49:19.034Z</time></trkpt><trkpt lat="45.370095" lon="11.7157874"><ele>14.0</ele><time>2026-04-11T14:49:20.034Z</time></trkpt><trkpt lat="45.3700187" lon="11.7156496"><ele>14.0</ele><time>2026-04-11T14:49:21.034Z</time></trkpt><trkpt lat="45.3699403" lon="11.7155135"><ele>14.0</ele><time>2026-04-11T14:49:22.035Z</time></trkpt><trkpt lat="45.3698594" lon="11.7153832"><ele>14.0</ele><time>2026-04-11T14:49:23.034Z</time></trkpt><trkpt lat="45.3697799" lon="11.7152545"><ele>14.0</ele><time>2026-04-11T14:49:24.035Z</time></trkpt><trkpt lat="45.3697033" lon="11.7151224"><ele>14.25</ele><time>2026-04-11T14:49:25.033Z</time></trkpt><trkpt lat="45.3696262" lon="11.7149881"><ele>14.5</ele><time>2026-04-11T14:49:26.033Z</time></trkpt><trkpt lat="45.3695489" lon="11.7148563"><ele>14.75</ele><time>2026-04-11T14:49:27.033Z</time></trkpt><trkpt lat="45.3694677" lon="11.7147285"><ele>15.0</ele><time>2026-04-11T14:49:28.034Z</time></trkpt><trkpt lat="45.3693858" lon="11.714597"><ele>15.0</ele><time>2026-04-11T14:49:29.036Z</time></trkpt><trkpt lat="45.3693097" lon="11.7144574"><ele>15.0</ele><time>2026-04-11T14:49:30.035Z</time></trkpt><trkpt lat="45.3692366" lon="11.7143102"><ele>15.0</ele><time>2026-04-11T14:49:31.033Z</time></trkpt><trkpt lat="45.3691636" lon="11.7141626"><ele>15.0</ele><time>2026-04-11T14:49:32.035Z</time></trkpt><trkpt lat="45.36909" lon="11.7140124"><ele>14.75</ele><time>2026-04-11T14:49:33.034Z</time></trkpt><trkpt lat="45.3690186" lon="11.7138679"><ele>14.5</ele><time>2026-04-11T14:49:34.034Z</time></trkpt><trkpt lat="45.3689482" lon="11.7137162"><ele>14.25</ele><time>2026-04-11T14:49:35.034Z</time></trkpt><trkpt lat="45.3688744" lon="11.7135667"><ele>14.0</ele><time>2026-04-11T14:49:36.034Z</time></trkpt><trkpt lat="45.3688012" lon="11.7134131"><ele>14.5</ele><time>2026-04-11T14:49:37.034Z</time></trkpt><trkpt lat="45.3687302" lon="11.7132636"><ele>15.0</ele><time>2026-04-11T14:49:38.033Z</time></trkpt><trkpt lat="45.3686564" lon="11.7131116"><ele>15.5</ele><time>2026-04-11T14:49:39.036Z</time></trkpt><trkpt lat="45.3685833" lon="11.7129583"><ele>16.0</ele><time>2026-04-11T14:49:40.034Z</time></trkpt><trkpt lat="45.3685123" lon="11.712803"><ele>16.0</ele><time>2026-04-11T14:49:41.034Z</time></trkpt><trkpt lat="45.3684424" lon="11.7126497"><ele>16.0</ele><time>2026-04-11T14:49:42.035Z</time></trkpt><trkpt lat="45.3683742" lon="11.7124978"><ele>16.0</ele><time>2026-04-11T14:49:43.033Z</time></trkpt><trkpt lat="45.3683039" lon="11.7123393"><ele>16.0</ele><time>2026-04-11T14:49:44.033Z</time></trkpt><trkpt lat="45.3682308" lon="11.7121877"><ele>16.0</ele><time>2026-04-11T14:49:45.035Z</time></trkpt><trkpt lat="45.3681614" lon="11.7120315"><ele>16.0</ele><time>2026-04-11T14:49:46.033Z</time></trkpt><trkpt lat="45.3680864" lon="11.7118789"><ele>16.0</ele><time>2026-04-11T14:49:47.034Z</time></trkpt><trkpt lat="45.3680151" lon="11.7117264"><ele>16.0</ele><time>2026-04-11T14:49:48.033Z</time></trkpt><trkpt lat="45.3679456" lon="11.7115731"><ele>16.0</ele><time>2026-04-11T14:49:49.034Z</time></trkpt><trkpt lat="45.3678746" lon="11.7114218"><ele>16.0</ele><time>2026-04-11T14:49:50.034Z</time></trkpt><trkpt lat="45.3678024" lon="11.7112691"><ele>16.0</ele><time>2026-04-11T14:49:51.034Z</time></trkpt><trkpt lat="45.367733" lon="11.7111204"><ele>16.0</ele><time>2026-04-11T14:49:52.034Z</time></trkpt><trkpt lat="45.3676628" lon="11.7109681"><ele>16.0</ele><time>2026-04-11T14:49:53.036Z</time></trkpt><trkpt lat="45.3675983" lon="11.7108133"><ele>16.0</ele><time>2026-04-11T14:49:54.033Z</time></trkpt><trkpt lat="45.3675385" lon="11.7106548"><ele>16.0</ele><time>2026-04-11T14:49:55.033Z</time></trkpt><trkpt lat="45.3674797" lon="11.7104978"><ele>16.0</ele><time>2026-04-11T14:49:56.033Z</time></trkpt><trkpt lat="45.3674231" lon="11.7103391"><ele>16.25</ele><time>2026-04-11T14:49:57.034Z</time></trkpt><trkpt lat="45.3673653" lon="11.710184"><ele>16.5</ele><time>2026-04-11T14:49:58.034Z</time></trkpt><trkpt lat="45.3673037" lon="11.7100304"><ele>16.75</ele><time>2026-04-11T14:49:59.035Z</time></trkpt><trkpt lat="45.3672456" lon="11.7098738"><ele>17.0</ele><time>2026-04-11T14:50:00.035Z</time></trkpt><trkpt lat="45.3671872" lon="11.7097225"><ele>16.5</ele><time>2026-04-11T14:50:01.035Z</time></trkpt><trkpt lat="45.367132" lon="11.7095639"><ele>16.0</ele><time>2026-04-11T14:50:02.034Z</time></trkpt><trkpt lat="45.3670777" lon="11.7094077"><ele>15.5</ele><time>2026-04-11T14:50:03.034Z</time></trkpt><trkpt lat="45.367022" lon="11.7092528"><ele>15.0</ele><time>2026-04-11T14:50:04.033Z</time></trkpt><trkpt lat="45.3669649" lon="11.7091008"><ele>15.0</ele><time>2026-04-11T14:50:05.034Z</time></trkpt><trkpt lat="45.3669095" lon="11.7089479"><ele>15.0</ele><time>2026-04-11T14:50:06.035Z</time></trkpt><trkpt lat="45.3668585" lon="11.7087898"><ele>15.0</ele><time>2026-04-11T14:50:07.033Z</time></trkpt><trkpt lat="45.3668073" lon="11.7086371"><ele>15.0</ele><time>2026-04-11T14:50:08.035Z</time></trkpt><trkpt lat="45.3667562" lon="11.7084902"><ele>15.4</ele><time>2026-04-11T14:50:09.034Z</time></trkpt><trkpt lat="45.3667023" lon="11.7083465"><ele>15.8</ele><time>2026-04-11T14:50:10.035Z</time></trkpt><trkpt lat="45.3666584" lon="11.7082102"><ele>16.2</ele><time>2026-04-11T14:50:11.034Z</time></trkpt><trkpt lat="45.3666099" lon="11.7080677"><ele>16.6</ele><time>2026-04-11T14:50:12.034Z</time></trkpt><trkpt lat="45.3665632" lon="11.7079296"><ele>17.0</ele><time>2026-04-11T14:50:13.033Z</time></trkpt><trkpt lat="45.3665149" lon="11.7077958"><ele>17.166666666666668</ele><time>2026-04-11T14:50:14.034Z</time></trkpt><trkpt lat="45.366475" lon="11.7076778"><ele>17.333333333333336</ele><time>2026-04-11T14:50:15.035Z</time></trkpt><trkpt lat="45.3664376" lon="11.7075739"><ele>17.5</ele><time>2026-04-11T14:50:16.035Z</time></trkpt><trkpt lat="45.3663988" lon="11.7074836"><ele>17.666666666666668</ele><time>2026-04-11T14:50:17.033Z</time></trkpt><trkpt lat="45.3663544" lon="11.7074038"><ele>17.833333333333332</ele><time>2026-04-11T14:50:18.034Z</time></trkpt><trkpt lat="45.3663086" lon="11.7073286"><ele>18.0</ele><time>2026-04-11T14:50:19.033Z</time></trkpt><trkpt lat="45.3662361" lon="11.7071983"><ele>18.0</ele><time>2026-04-11T14:50:21.035Z</time></trkpt><trkpt lat="45.3661437" lon="11.7070645"><ele>18.0</ele><time>2026-04-11T14:50:23.036Z</time></trkpt><trkpt lat="45.3660923" lon="11.7069812"><ele>18.0</ele><time>2026-04-11T14:50:24.034Z</time></trkpt><trkpt lat="45.3660372" lon="11.7068891"><ele>18.0</ele><time>2026-04-11T14:50:25.033Z</time></trkpt><trkpt lat="45.3659758" lon="11.7067952"><ele>18.0</ele><time>2026-04-11T14:50:26.034Z</time></trkpt><trkpt lat="45.3659117" lon="11.7066957"><ele>17.6</ele><time>2026-04-11T14:50:27.034Z</time></trkpt><trkpt lat="45.365846" lon="11.7065887"><ele>17.200000000000003</ele><time>2026-04-11T14:50:28.034Z</time></trkpt><trkpt lat="45.3657824" lon="11.7064704"><ele>16.8</ele><time>2026-04-11T14:50:29.033Z</time></trkpt><trkpt lat="45.365719" lon="11.7063406"><ele>16.400000000000002</ele><time>2026-04-11T14:50:30.035Z</time></trkpt><trkpt lat="45.3656538" lon="11.7062058"><ele>16.0</ele><time>2026-04-11T14:50:31.033Z</time></trkpt><trkpt lat="45.3655886" lon="11.7060651"><ele>16.0</ele><time>2026-04-11T14:50:32.035Z</time></trkpt><trkpt lat="45.3655185" lon="11.7059179"><ele>16.0</ele><time>2026-04-11T14:50:33.034Z</time></trkpt><trkpt lat="45.3654447" lon="11.7057648"><ele>16.0</ele><time>2026-04-11T14:50:34.034Z</time></trkpt><trkpt lat="45.3653614" lon="11.7056047"><ele>16.0</ele><time>2026-04-11T14:50:35.033Z</time></trkpt><trkpt lat="45.3652786" lon="11.70543"><ele>16.0</ele><time>2026-04-11T14:50:36.033Z</time></trkpt><trkpt lat="45.3651989" lon="11.7052639"><ele>16.0</ele><time>2026-04-11T14:50:37.034Z</time></trkpt><trkpt lat="45.365119" lon="11.7050925"><ele>16.0</ele><time>2026-04-11T14:50:38.033Z</time></trkpt><trkpt lat="45.3650396" lon="11.7049201"><ele>16.0</ele><time>2026-04-11T14:50:39.034Z</time></trkpt><trkpt lat="45.3649592" lon="11.7047452"><ele>16.0</ele><time>2026-04-11T14:50:40.033Z</time></trkpt><trkpt lat="45.3648759" lon="11.7045681"><ele>16.0</ele><time>2026-04-11T14:50:41.035Z</time></trkpt><trkpt lat="45.3647885" lon="11.7043863"><ele>16.0</ele><time>2026-04-11T14:50:42.035Z</time></trkpt><trkpt lat="45.3647021" lon="11.7042094"><ele>16.0</ele><time>2026-04-11T14:50:43.033Z</time></trkpt><trkpt lat="45.3646164" lon="11.704041"><ele>16.0</ele><time>2026-04-11T14:50:44.034Z</time></trkpt><trkpt lat="45.3645256" lon="11.703879"><ele>16.0</ele><time>2026-04-11T14:50:45.033Z</time></trkpt><trkpt lat="45.3644238" lon="11.7037359"><ele>16.0</ele><time>2026-04-11T14:50:46.035Z</time></trkpt><trkpt lat="45.3643122" lon="11.703615"><ele>15.75</ele><time>2026-04-11T14:50:47.033Z</time></trkpt><trkpt lat="45.3641883" lon="11.7035165"><ele>15.5</ele><time>2026-04-11T14:50:48.036Z</time></trkpt><trkpt lat="45.3640623" lon="11.7034258"><ele>15.25</ele><time>2026-04-11T14:50:49.035Z</time></trkpt><trkpt lat="45.3639378" lon="11.7033344"><ele>15.0</ele><time>2026-04-11T14:50:50.034Z</time></trkpt><trkpt lat="45.3638124" lon="11.7032439"><ele>14.75</ele><time>2026-04-11T14:50:51.034Z</time></trkpt><trkpt lat="45.3636906" lon="11.7031486"><ele>14.5</ele><time>2026-04-11T14:50:52.035Z</time></trkpt><trkpt lat="45.3635663" lon="11.7030513"><ele>14.25</ele><time>2026-04-11T14:50:53.034Z</time></trkpt><trkpt lat="45.3634491" lon="11.7029406"><ele>14.0</ele><time>2026-04-11T14:50:54.036Z</time></trkpt><trkpt lat="45.3633375" lon="11.7028193"><ele>14.0</ele><time>2026-04-11T14:50:55.035Z</time></trkpt><trkpt lat="45.3632319" lon="11.7026897"><ele>14.0</ele><time>2026-04-11T14:50:56.034Z</time></trkpt><trkpt lat="45.3631367" lon="11.7025516"><ele>14.0</ele><time>2026-04-11T14:50:57.035Z</time></trkpt><trkpt lat="45.363042" lon="11.7024272"><ele>14.0</ele><time>2026-04-11T14:50:58.034Z</time></trkpt><trkpt lat="45.3629524" lon="11.7022958"><ele>14.25</ele><time>2026-04-11T14:50:59.035Z</time></trkpt><trkpt lat="45.3628606" lon="11.7021616"><ele>14.5</ele><time>2026-04-11T14:51:00.034Z</time></trkpt><trkpt lat="45.3627677" lon="11.7020305"><ele>14.75</ele><time>2026-04-11T14:51:01.036Z</time></trkpt><trkpt lat="45.3626733" lon="11.701896"><ele>15.0</ele><time>2026-04-11T14:51:02.034Z</time></trkpt><trkpt lat="45.3625763" lon="11.7017708"><ele>15.0</ele><time>2026-04-11T14:51:03.033Z</time></trkpt><trkpt lat="45.3624759" lon="11.7016487"><ele>15.0</ele><time>2026-04-11T14:51:04.034Z</time></trkpt><trkpt lat="45.3623663" lon="11.701536"><ele>15.0</ele><time>2026-04-11T14:51:05.035Z</time></trkpt><trkpt lat="45.3622592" lon="11.7014222"><ele>15.0</ele><time>2026-04-11T14:51:06.035Z</time></trkpt><trkpt lat="45.3621523" lon="11.701308"><ele>15.0</ele><time>2026-04-11T14:51:07.034Z</time></trkpt><trkpt lat="45.3620433" lon="11.7012001"><ele>15.0</ele><time>2026-04-11T14:51:08.034Z</time></trkpt><trkpt lat="45.3619335" lon="11.7010853"><ele>15.0</ele><time>2026-04-11T14:51:09.033Z</time></trkpt><trkpt lat="45.3618224" lon="11.7009758"><ele>15.0</ele><time>2026-04-11T14:51:10.036Z</time></trkpt><trkpt lat="45.3617135" lon="11.7008642"><ele>15.0</ele><time>2026-04-11T14:51:11.035Z</time></trkpt><trkpt lat="45.3616059" lon="11.7007463"><ele>15.0</ele><time>2026-04-11T14:51:12.036Z</time></trkpt><trkpt lat="45.3614984" lon="11.700635"><ele>15.0</ele><time>2026-04-11T14:51:13.033Z</time></trkpt><trkpt lat="45.3613847" lon="11.7005233"><ele>15.0</ele><time>2026-04-11T14:51:14.036Z</time></trkpt><trkpt lat="45.3612735" lon="11.700411"><ele>14.5</ele><time>2026-04-11T14:51:15.035Z</time></trkpt><trkpt lat="45.361169" lon="11.700289"><ele>14.0</ele><time>2026-04-11T14:51:16.035Z</time></trkpt><trkpt lat="45.3610762" lon="11.7001527"><ele>13.5</ele><time>2026-04-11T14:51:17.034Z</time></trkpt><trkpt lat="45.3609895" lon="11.7000045"><ele>13.0</ele><time>2026-04-11T14:51:18.034Z</time></trkpt><trkpt lat="45.3609054" lon="11.6998474"><ele>13.0</ele><time>2026-04-11T14:51:19.033Z</time></trkpt><trkpt lat="45.360827" lon="11.6996862"><ele>13.0</ele><time>2026-04-11T14:51:20.034Z</time></trkpt><trkpt lat="45.3607481" lon="11.699528"><ele>13.0</ele><time>2026-04-11T14:51:21.036Z</time></trkpt><trkpt lat="45.3606639" lon="11.6993768"><ele>13.0</ele><time>2026-04-11T14:51:22.033Z</time></trkpt><trkpt lat="45.3605751" lon="11.6992403"><ele>13.25</ele><time>2026-04-11T14:51:23.035Z</time></trkpt><trkpt lat="45.3604844" lon="11.6991098"><ele>13.5</ele><time>2026-04-11T14:51:24.034Z</time></trkpt><trkpt lat="45.3603888" lon="11.6989814"><ele>13.75</ele><time>2026-04-11T14:51:25.033Z</time></trkpt><trkpt lat="45.3602938" lon="11.6988524"><ele>14.0</ele><time>2026-04-11T14:51:26.033Z</time></trkpt><trkpt lat="45.3601921" lon="11.6987378"><ele>14.0</ele><time>2026-04-11T14:51:27.034Z</time></trkpt><trkpt lat="45.3600793" lon="11.6986391"><ele>14.0</ele><time>2026-04-11T14:51:28.034Z</time></trkpt><trkpt lat="45.3599593" lon="11.6985574"><ele>14.0</ele><time>2026-04-11T14:51:29.034Z</time></trkpt><trkpt lat="45.3598327" lon="11.6984857"><ele>14.0</ele><time>2026-04-11T14:51:30.033Z</time></trkpt><trkpt lat="45.3597073" lon="11.6984184"><ele>14.0</ele><time>2026-04-11T14:51:31.035Z</time></trkpt><trkpt lat="45.3595842" lon="11.6983446"><ele>14.0</ele><time>2026-04-11T14:51:32.034Z</time></trkpt><trkpt lat="45.3594679" lon="11.6982562"><ele>14.0</ele><time>2026-04-11T14:51:33.035Z</time></trkpt><trkpt lat="45.3593472" lon="11.6981648"><ele>14.0</ele><time>2026-04-11T14:51:34.034Z</time></trkpt><trkpt lat="45.3592314" lon="11.6980677"><ele>14.0</ele><time>2026-04-11T14:51:35.035Z</time></trkpt><trkpt lat="45.3591191" lon="11.6979579"><ele>14.0</ele><time>2026-04-11T14:51:36.035Z</time></trkpt><trkpt lat="45.3590063" lon="11.6978557"><ele>14.0</ele><time>2026-04-11T14:51:37.034Z</time></trkpt><trkpt lat="45.3588905" lon="11.6977537"><ele>14.0</ele><time>2026-04-11T14:51:38.035Z</time></trkpt><trkpt lat="45.3587773" lon="11.6976426"><ele>14.25</ele><time>2026-04-11T14:51:39.034Z</time></trkpt><trkpt lat="45.358665" lon="11.6975438"><ele>14.5</ele><time>2026-04-11T14:51:40.035Z</time></trkpt><trkpt lat="45.3585468" lon="11.6974379"><ele>14.75</ele><time>2026-04-11T14:51:41.034Z</time></trkpt><trkpt lat="45.3584362" lon="11.6973324"><ele>15.0</ele><time>2026-04-11T14:51:42.034Z</time></trkpt><trkpt lat="45.3583205" lon="11.6972282"><ele>15.0</ele><time>2026-04-11T14:51:43.033Z</time></trkpt><trkpt lat="45.3582092" lon="11.6971271"><ele>15.0</ele><time>2026-04-11T14:51:44.034Z</time></trkpt><trkpt lat="45.358094" lon="11.6970194"><ele>15.0</ele><time>2026-04-11T14:51:45.035Z</time></trkpt><trkpt lat="45.3579778" lon="11.6969144"><ele>15.0</ele><time>2026-04-11T14:51:46.033Z</time></trkpt><trkpt lat="45.3578631" lon="11.6968079"><ele>15.5</ele><time>2026-04-11T14:51:47.034Z</time></trkpt><trkpt lat="45.3577474" lon="11.6967018"><ele>16.0</ele><time>2026-04-11T14:51:48.033Z</time></trkpt><trkpt lat="45.3576335" lon="11.6965934"><ele>16.5</ele><time>2026-04-11T14:51:49.034Z</time></trkpt><trkpt lat="45.3575205" lon="11.6964715"><ele>17.0</ele><time>2026-04-11T14:51:50.034Z</time></trkpt><trkpt lat="45.3574171" lon="11.6963446"><ele>17.0</ele><time>2026-04-11T14:51:51.034Z</time></trkpt><trkpt lat="45.3573159" lon="11.6962212"><ele>17.0</ele><time>2026-04-11T14:51:52.034Z</time></trkpt><trkpt lat="45.3572118" lon="11.6960837"><ele>17.0</ele><time>2026-04-11T14:51:53.034Z</time></trkpt><trkpt lat="45.3571081" lon="11.6959539"><ele>17.0</ele><time>2026-04-11T14:51:54.033Z</time></trkpt><trkpt lat="45.3570043" lon="11.6958204"><ele>17.0</ele><time>2026-04-11T14:51:55.034Z</time></trkpt><trkpt lat="45.3568983" lon="11.6956882"><ele>17.0</ele><time>2026-04-11T14:51:56.033Z</time></trkpt><trkpt lat="45.3567928" lon="11.6955593"><ele>17.0</ele><time>2026-04-11T14:51:57.035Z</time></trkpt><trkpt lat="45.3566885" lon="11.6954262"><ele>17.0</ele><time>2026-04-11T14:51:58.035Z</time></trkpt><trkpt lat="45.3565826" lon="11.695292"><ele>16.75</ele><time>2026-04-11T14:51:59.034Z</time></trkpt><trkpt lat="45.356477" lon="11.6951579"><ele>16.5</ele><time>2026-04-11T14:52:00.034Z</time></trkpt><trkpt lat="45.3563701" lon="11.695027"><ele>16.25</ele><time>2026-04-11T14:52:01.034Z</time></trkpt><trkpt lat="45.3562652" lon="11.6948945"><ele>16.0</ele><time>2026-04-11T14:52:02.034Z</time></trkpt><trkpt lat="45.3561601" lon="11.6947567"><ele>16.0</ele><time>2026-04-11T14:52:03.034Z</time></trkpt><trkpt lat="45.3560514" lon="11.6946262"><ele>16.0</ele><time>2026-04-11T14:52:04.033Z</time></trkpt><trkpt lat="45.3559442" lon="11.6944946"><ele>16.0</ele><time>2026-04-11T14:52:05.035Z</time></trkpt><trkpt lat="45.355836" lon="11.6943692"><ele>16.0</ele><time>2026-04-11T14:52:06.034Z</time></trkpt><trkpt lat="45.3557259" lon="11.694243"><ele>16.0</ele><time>2026-04-11T14:52:07.033Z</time></trkpt><trkpt lat="45.3556054" lon="11.6941337"><ele>16.0</ele><time>2026-04-11T14:52:08.034Z</time></trkpt><trkpt lat="45.3554839" lon="11.6940264"><ele>16.0</ele><time>2026-04-11T14:52:09.034Z</time></trkpt><trkpt lat="45.3553621" lon="11.6939173"><ele>16.0</ele><time>2026-04-11T14:52:10.033Z</time></trkpt><trkpt lat="45.35524" lon="11.6938102"><ele>16.0</ele><time>2026-04-11T14:52:11.034Z</time></trkpt><trkpt lat="45.3551163" lon="11.6937025"><ele>16.0</ele><time>2026-04-11T14:52:12.033Z</time></trkpt><trkpt lat="45.3549887" lon="11.6935956"><ele>16.0</ele><time>2026-04-11T14:52:13.033Z</time></trkpt><trkpt lat="45.3548627" lon="11.6934887"><ele>16.0</ele><time>2026-04-11T14:52:14.033Z</time></trkpt><trkpt lat="45.3547372" lon="11.6933852"><ele>15.75</ele><time>2026-04-11T14:52:15.034Z</time></trkpt><trkpt lat="45.3546151" lon="11.6932796"><ele>15.5</ele><time>2026-04-11T14:52:16.035Z</time></trkpt><trkpt lat="45.3544897" lon="11.6931716"><ele>15.25</ele><time>2026-04-11T14:52:17.034Z</time></trkpt><trkpt lat="45.3543644" lon="11.6930649"><ele>15.0</ele><time>2026-04-11T14:52:18.034Z</time></trkpt><trkpt lat="45.3542374" lon="11.6929541"><ele>15.0</ele><time>2026-04-11T14:52:19.034Z</time></trkpt><trkpt lat="45.3541099" lon="11.6928439"><ele>15.0</ele><time>2026-04-11T14:52:20.035Z</time></trkpt><trkpt lat="45.3539825" lon="11.6927326"><ele>15.0</ele><time>2026-04-11T14:52:21.034Z</time></trkpt><trkpt lat="45.3538573" lon="11.6926241"><ele>15.0</ele><time>2026-04-11T14:52:22.034Z</time></trkpt><trkpt lat="45.3537285" lon="11.6925187"><ele>16.0</ele><time>2026-04-11T14:52:23.034Z</time></trkpt><trkpt lat="45.3536026" lon="11.6924125"><ele>17.0</ele><time>2026-04-11T14:52:24.033Z</time></trkpt><trkpt lat="45.353479" lon="11.692307"><ele>18.0</ele><time>2026-04-11T14:52:25.035Z</time></trkpt><trkpt lat="45.3533554" lon="11.692201"><ele>19.0</ele><time>2026-04-11T14:52:26.033Z</time></trkpt><trkpt lat="45.3532292" lon="11.6920951"><ele>19.0</ele><time>2026-04-11T14:52:27.035Z</time></trkpt><trkpt lat="45.3531041" lon="11.6919923"><ele>19.0</ele><time>2026-04-11T14:52:28.034Z</time></trkpt><trkpt lat="45.3529854" lon="11.6918864"><ele>19.0</ele><time>2026-04-11T14:52:29.035Z</time></trkpt><trkpt lat="45.3528636" lon="11.6917923"><ele>19.0</ele><time>2026-04-11T14:52:30.033Z</time></trkpt><trkpt lat="45.3527514" lon="11.6916954"><ele>19.0</ele><time>2026-04-11T14:52:31.033Z</time></trkpt><trkpt lat="45.3526397" lon="11.6915993"><ele>19.0</ele><time>2026-04-11T14:52:32.034Z</time></trkpt><trkpt lat="45.3525345" lon="11.6915092"><ele>19.0</ele><time>2026-04-11T14:52:33.033Z</time></trkpt><trkpt lat="45.3524354" lon="11.6914161"><ele>19.0</ele><time>2026-04-11T14:52:34.035Z</time></trkpt><trkpt lat="45.3523443" lon="11.6913128"><ele>19.0</ele><time>2026-04-11T14:52:35.033Z</time></trkpt><trkpt lat="45.3522695" lon="11.6911984"><ele>19.0</ele><time>2026-04-11T14:52:36.033Z</time></trkpt><trkpt lat="45.3522169" lon="11.6910693"><ele>19.0</ele><time>2026-04-11T14:52:37.035Z</time></trkpt><trkpt lat="45.3521853" lon="11.6909369"><ele>19.0</ele><time>2026-04-11T14:52:38.035Z</time></trkpt><trkpt lat="45.352165" lon="11.6907973"><ele>19.0</ele><time>2026-04-11T14:52:39.034Z</time></trkpt><trkpt lat="45.3521533" lon="11.6906557"><ele>19.2</ele><time>2026-04-11T14:52:40.034Z</time></trkpt><trkpt lat="45.3521458" lon="11.6905053"><ele>19.4</ele><time>2026-04-11T14:52:41.035Z</time></trkpt><trkpt lat="45.3521435" lon="11.6903571"><ele>19.6</ele><time>2026-04-11T14:52:42.033Z</time></trkpt><trkpt lat="45.3521414" lon="11.6902082"><ele>19.8</ele><time>2026-04-11T14:52:43.036Z</time></trkpt><trkpt lat="45.352145" lon="11.6900573"><ele>20.0</ele><time>2026-04-11T14:52:44.033Z</time></trkpt><trkpt lat="45.3521454" lon="11.6899053"><ele>20.0</ele><time>2026-04-11T14:52:45.034Z</time></trkpt><trkpt lat="45.352144" lon="11.6897612"><ele>20.0</ele><time>2026-04-11T14:52:46.034Z</time></trkpt><trkpt lat="45.3521455" lon="11.6896184"><ele>20.0</ele><time>2026-04-11T14:52:47.034Z</time></trkpt><trkpt lat="45.3521466" lon="11.6894718"><ele>20.0</ele><time>2026-04-11T14:52:48.033Z</time></trkpt><trkpt lat="45.3521449" lon="11.6893259"><ele>20.0</ele><time>2026-04-11T14:52:49.034Z</time></trkpt><trkpt lat="45.3521442" lon="11.6891804"><ele>20.2</ele><time>2026-04-11T14:52:50.034Z</time></trkpt><trkpt lat="45.3521459" lon="11.6890283"><ele>20.4</ele><time>2026-04-11T14:52:51.034Z</time></trkpt><trkpt lat="45.3521415" lon="11.688877"><ele>20.6</ele><time>2026-04-11T14:52:52.034Z</time></trkpt><trkpt lat="45.3521392" lon="11.688718"><ele>20.8</ele><time>2026-04-11T14:52:53.034Z</time></trkpt><trkpt lat="45.3521353" lon="11.6885601"><ele>21.0</ele><time>2026-04-11T14:52:54.034Z</time></trkpt><trkpt lat="45.3521266" lon="11.6884058"><ele>21.5</ele><time>2026-04-11T14:52:55.033Z</time></trkpt><trkpt lat="45.352124" lon="11.6882448"><ele>22.0</ele><time>2026-04-11T14:52:56.034Z</time></trkpt><trkpt lat="45.3521309" lon="11.6880861"><ele>22.5</ele><time>2026-04-11T14:52:57.035Z</time></trkpt><trkpt lat="45.3521344" lon="11.6879274"><ele>23.0</ele><time>2026-04-11T14:52:58.034Z</time></trkpt><trkpt lat="45.3521333" lon="11.687766"><ele>23.75</ele><time>2026-04-11T14:52:59.034Z</time></trkpt><trkpt lat="45.3521321" lon="11.6876019"><ele>24.5</ele><time>2026-04-11T14:53:00.035Z</time></trkpt><trkpt lat="45.3521272" lon="11.6874366"><ele>25.25</ele><time>2026-04-11T14:53:01.035Z</time></trkpt><trkpt lat="45.3521268" lon="11.687272"><ele>26.0</ele><time>2026-04-11T14:53:02.034Z</time></trkpt><trkpt lat="45.3521255" lon="11.6871116"><ele>26.0</ele><time>2026-04-11T14:53:03.034Z</time></trkpt><trkpt lat="45.3521281" lon="11.6869583"><ele>26.0</ele><time>2026-04-11T14:53:04.034Z</time></trkpt><trkpt lat="45.3521251" lon="11.6868073"><ele>26.0</ele><time>2026-04-11T14:53:05.034Z</time></trkpt><trkpt lat="45.3521253" lon="11.6866697"><ele>26.0</ele><time>2026-04-11T14:53:06.033Z</time></trkpt><trkpt lat="45.3521229" lon="11.6865402"><ele>26.0</ele><time>2026-04-11T14:53:07.034Z</time></trkpt><trkpt lat="45.3521051" lon="11.6864208"><ele>26.714285714285715</ele><time>2026-04-11T14:53:08.034Z</time></trkpt><trkpt lat="45.3520695" lon="11.6863265"><ele>27.42857142857143</ele><time>2026-04-11T14:53:09.034Z</time></trkpt><trkpt lat="45.3520166" lon="11.6862675"><ele>28.142857142857146</ele><time>2026-04-11T14:53:10.034Z</time></trkpt><trkpt lat="45.3519481" lon="11.6862527"><ele>28.857142857142858</ele><time>2026-04-11T14:53:11.035Z</time></trkpt><trkpt lat="45.3518776" lon="11.6862775"><ele>29.571428571428577</ele><time>2026-04-11T14:53:12.033Z</time></trkpt><trkpt lat="45.3518142" lon="11.686337"><ele>30.28571428571429</ele><time>2026-04-11T14:53:13.033Z</time></trkpt><trkpt lat="45.3517507" lon="11.6864137"><ele>31.0</ele><time>2026-04-11T14:53:14.034Z</time></trkpt><trkpt lat="45.3516868" lon="11.6865009"><ele>31.0</ele><time>2026-04-11T14:53:15.033Z</time></trkpt><trkpt lat="45.35162" lon="11.6865825"><ele>31.0</ele><time>2026-04-11T14:53:16.036Z</time></trkpt><trkpt lat="45.3515505" lon="11.6866713"><ele>31.0</ele><time>2026-04-11T14:53:17.036Z</time></trkpt><trkpt lat="45.3514787" lon="11.6867676"><ele>31.0</ele><time>2026-04-11T14:53:18.033Z</time></trkpt><trkpt lat="45.3514057" lon="11.6868555"><ele>31.0</ele><time>2026-04-11T14:53:19.033Z</time></trkpt><trkpt lat="45.3513332" lon="11.6869452"><ele>31.0</ele><time>2026-04-11T14:53:20.036Z</time></trkpt><trkpt lat="45.3512607" lon="11.6870293"><ele>31.0</ele><time>2026-04-11T14:53:21.036Z</time></trkpt><trkpt lat="45.35118" lon="11.6871044"><ele>31.0</ele><time>2026-04-11T14:53:22.034Z</time></trkpt><trkpt lat="45.3510909" lon="11.6871624"><ele>31.0</ele><time>2026-04-11T14:53:23.035Z</time></trkpt><trkpt lat="45.3510051" lon="11.6872047"><ele>31.0</ele><time>2026-04-11T14:53:24.034Z</time></trkpt><trkpt lat="45.3508949" lon="11.6871724"><ele>31.0</ele><time>2026-04-11T14:53:25.034Z</time></trkpt><trkpt lat="45.3507975" lon="11.6871188"><ele>31.0</ele><time>2026-04-11T14:53:26.034Z</time></trkpt><trkpt lat="45.3507032" lon="11.6870404"><ele>31.0</ele><time>2026-04-11T14:53:27.033Z</time></trkpt><trkpt lat="45.3506061" lon="11.6869477"><ele>31.0</ele><time>2026-04-11T14:53:28.035Z</time></trkpt><trkpt lat="45.3505017" lon="11.6868556"><ele>35.75</ele><time>2026-04-11T14:53:29.034Z</time></trkpt><trkpt lat="45.3503902" lon="11.6867767"><ele>40.5</ele><time>2026-04-11T14:53:30.034Z</time></trkpt><trkpt lat="45.350267" lon="11.6867112"><ele>45.25</ele><time>2026-04-11T14:53:31.033Z</time></trkpt><trkpt lat="45.3501385" lon="11.6866697"><ele>50.0</ele><time>2026-04-11T14:53:32.034Z</time></trkpt><trkpt lat="45.3500037" lon="11.686637"><ele>50.0</ele><time>2026-04-11T14:53:33.034Z</time></trkpt><trkpt lat="45.349864" lon="11.6865992"><ele>50.0</ele><time>2026-04-11T14:53:34.033Z</time></trkpt><trkpt lat="45.3497214" lon="11.6865683"><ele>50.0</ele><time>2026-04-11T14:53:35.035Z</time></trkpt><trkpt lat="45.3495791" lon="11.6865372"><ele>50.0</ele><time>2026-04-11T14:53:36.035Z</time></trkpt><trkpt lat="45.3494385" lon="11.6865077"><ele>48.25</ele><time>2026-04-11T14:53:37.035Z</time></trkpt><trkpt lat="45.3493043" lon="11.6864798"><ele>46.5</ele><time>2026-04-11T14:53:38.035Z</time></trkpt><trkpt lat="45.3491787" lon="11.6864404"><ele>44.75</ele><time>2026-04-11T14:53:39.033Z</time></trkpt><trkpt lat="45.3490729" lon="11.6863893"><ele>43.0</ele><time>2026-04-11T14:53:40.034Z</time></trkpt><trkpt lat="45.3489651" lon="11.6863435"><ele>44.75</ele><time>2026-04-11T14:53:41.033Z</time></trkpt><trkpt lat="45.3488593" lon="11.6862782"><ele>46.5</ele><time>2026-04-11T14:53:42.034Z</time></trkpt><trkpt lat="45.3487513" lon="11.6862022"><ele>48.25</ele><time>2026-04-11T14:53:43.035Z</time></trkpt><trkpt lat="45.3486572" lon="11.6861037"><ele>50.0</ele><time>2026-04-11T14:53:44.035Z</time></trkpt><trkpt lat="45.3485736" lon="11.6859882"><ele>50.0</ele><time>2026-04-11T14:53:45.035Z</time></trkpt><trkpt lat="45.3485031" lon="11.6858452"><ele>50.0</ele><time>2026-04-11T14:53:46.034Z</time></trkpt><trkpt lat="45.3484508" lon="11.6856827"><ele>50.0</ele><time>2026-04-11T14:53:47.033Z</time></trkpt><trkpt lat="45.3484169" lon="11.6855016"><ele>50.0</ele><time>2026-04-11T14:53:48.034Z</time></trkpt><trkpt lat="45.3484009" lon="11.6853123"><ele>52.25</ele><time>2026-04-11T14:53:49.035Z</time></trkpt><trkpt lat="45.3484086" lon="11.6851182"><ele>54.5</ele><time>2026-04-11T14:53:50.035Z</time></trkpt><trkpt lat="45.3484188" lon="11.6849261"><ele>56.75</ele><time>2026-04-11T14:53:51.034Z</time></trkpt><trkpt lat="45.3484334" lon="11.6847288"><ele>59.0</ele><time>2026-04-11T14:53:52.034Z</time></trkpt><trkpt lat="45.3484481" lon="11.6845188"><ele>59.0</ele><time>2026-04-11T14:53:53.034Z</time></trkpt><trkpt lat="45.3484605" lon="11.6843104"><ele>59.0</ele><time>2026-04-11T14:53:54.035Z</time></trkpt><trkpt lat="45.3484743" lon="11.6840982"><ele>59.0</ele><time>2026-04-11T14:53:55.035Z</time></trkpt><trkpt lat="45.3484772" lon="11.6838859"><ele>59.0</ele><time>2026-04-11T14:53:56.033Z</time></trkpt><trkpt lat="45.3484772" lon="11.6836756"><ele>59.75</ele><time>2026-04-11T14:53:57.035Z</time></trkpt><trkpt lat="45.348466" lon="11.6834664"><ele>60.5</ele><time>2026-04-11T14:53:58.033Z</time></trkpt><trkpt lat="45.3484418" lon="11.6832591"><ele>61.25</ele><time>2026-04-11T14:53:59.035Z</time></trkpt><trkpt lat="45.3484148" lon="11.6830544"><ele>62.0</ele><time>2026-04-11T14:54:00.034Z</time></trkpt><trkpt lat="45.3483827" lon="11.6828537"><ele>64.5</ele><time>2026-04-11T14:54:01.034Z</time></trkpt><trkpt lat="45.3483509" lon="11.6826552"><ele>67.0</ele><time>2026-04-11T14:54:02.034Z</time></trkpt><trkpt lat="45.3483186" lon="11.6824606"><ele>69.5</ele><time>2026-04-11T14:54:03.034Z</time></trkpt><trkpt lat="45.3482896" lon="11.6822629"><ele>72.0</ele><time>2026-04-11T14:54:04.035Z</time></trkpt><trkpt lat="45.3482737" lon="11.6820659"><ele>72.0</ele><time>2026-04-11T14:54:05.033Z</time></trkpt><trkpt lat="45.3482612" lon="11.6818798"><ele>72.0</ele><time>2026-04-11T14:54:06.036Z</time></trkpt><trkpt lat="45.3482596" lon="11.6816913"><ele>72.0</ele><time>2026-04-11T14:54:07.034Z</time></trkpt><trkpt lat="45.3482648" lon="11.6815212"><ele>72.0</ele><time>2026-04-11T14:54:08.034Z</time></trkpt><trkpt lat="45.3483043" lon="11.6813773"><ele>72.0</ele><time>2026-04-11T14:54:09.034Z</time></trkpt><trkpt lat="45.3483685" lon="11.6812262"><ele>72.0</ele><time>2026-04-11T14:54:10.035Z</time></trkpt><trkpt lat="45.3484156" lon="11.6810779"><ele>72.0</ele><time>2026-04-11T14:54:11.034Z</time></trkpt><trkpt lat="45.3484665" lon="11.6809596"><ele>72.0</ele><time>2026-04-11T14:54:12.033Z</time></trkpt><trkpt lat="45.3484963" lon="11.6808249"><ele>72.0</ele><time>2026-04-11T14:54:13.035Z</time></trkpt><trkpt lat="45.3484874" lon="11.6807012"><ele>72.0</ele><time>2026-04-11T14:54:14.035Z</time></trkpt><trkpt lat="45.3484509" lon="11.6805936"><ele>72.0</ele><time>2026-04-11T14:54:15.034Z</time></trkpt><trkpt lat="45.3483862" lon="11.6805255"><ele>72.0</ele><time>2026-04-11T14:54:16.035Z</time></trkpt><trkpt lat="45.3483009" lon="11.6805067"><ele>72.0</ele><time>2026-04-11T14:54:17.033Z</time></trkpt><trkpt lat="45.3482079" lon="11.6805193"><ele>72.0</ele><time>2026-04-11T14:54:18.035Z</time></trkpt><trkpt lat="45.3481077" lon="11.6805266"><ele>72.0</ele><time>2026-04-11T14:54:19.034Z</time></trkpt><trkpt lat="45.3480021" lon="11.6805088"><ele>71.0</ele><time>2026-04-11T14:54:20.035Z</time></trkpt><trkpt lat="45.3479089" lon="11.6804493"><ele>70.0</ele><time>2026-04-11T14:54:21.034Z</time></trkpt><trkpt lat="45.347841" lon="11.6803546"><ele>69.0</ele><time>2026-04-11T14:54:22.033Z</time></trkpt><trkpt lat="45.3478017" lon="11.6802303"><ele>68.0</ele><time>2026-04-11T14:54:23.034Z</time></trkpt><trkpt lat="45.3477895" lon="11.680084"><ele>67.0</ele><time>2026-04-11T14:54:24.035Z</time></trkpt><trkpt lat="45.3477844" lon="11.6799244"><ele>67.0</ele><time>2026-04-11T14:54:25.035Z</time></trkpt><trkpt lat="45.3477831" lon="11.6797601"><ele>67.0</ele><time>2026-04-11T14:54:26.034Z</time></trkpt><trkpt lat="45.3478" lon="11.6795795"><ele>67.0</ele><time>2026-04-11T14:54:27.035Z</time></trkpt><trkpt lat="45.3478088" lon="11.6794027"><ele>67.0</ele><time>2026-04-11T14:54:28.035Z</time></trkpt><trkpt lat="45.3478148" lon="11.6792229"><ele>68.0</ele><time>2026-04-11T14:54:29.034Z</time></trkpt><trkpt lat="45.347827" lon="11.6790506"><ele>69.0</ele><time>2026-04-11T14:54:30.034Z</time></trkpt><trkpt lat="45.3478285" lon="11.6788882"><ele>70.0</ele><time>2026-04-11T14:54:31.033Z</time></trkpt><trkpt lat="45.3478124" lon="11.6787351"><ele>71.0</ele><time>2026-04-11T14:54:32.033Z</time></trkpt><trkpt lat="45.3477814" lon="11.6786018"><ele>72.0</ele><time>2026-04-11T14:54:33.034Z</time></trkpt><trkpt lat="45.3476847" lon="11.6785392"><ele>73.33333333333333</ele><time>2026-04-11T14:54:34.034Z</time></trkpt><trkpt lat="45.3476014" lon="11.6784733"><ele>74.66666666666667</ele><time>2026-04-11T14:54:35.034Z</time></trkpt><trkpt lat="45.3475297" lon="11.678408"><ele>76.0</ele><time>2026-04-11T14:54:36.033Z</time></trkpt><trkpt lat="45.3474773" lon="11.6783183"><ele>77.33333333333334</ele><time>2026-04-11T14:54:37.034Z</time></trkpt><trkpt lat="45.3474578" lon="11.6782075"><ele>78.66666666666667</ele><time>2026-04-11T14:54:38.034Z</time></trkpt><trkpt lat="45.3474754" lon="11.6781016"><ele>80.0</ele><time>2026-04-11T14:54:39.035Z</time></trkpt><trkpt lat="45.3475171" lon="11.6780085"><ele>80.0</ele><time>2026-04-11T14:54:40.034Z</time></trkpt><trkpt lat="45.3476071" lon="11.6779823"><ele>80.0</ele><time>2026-04-11T14:54:41.036Z</time></trkpt><trkpt lat="45.347699" lon="11.6779915"><ele>80.0</ele><time>2026-04-11T14:54:42.033Z</time></trkpt><trkpt lat="45.3477757" lon="11.6780582"><ele>80.0</ele><time>2026-04-11T14:54:43.036Z</time></trkpt><trkpt lat="45.3478412" lon="11.6781722"><ele>80.0</ele><time>2026-04-11T14:54:44.034Z</time></trkpt><trkpt lat="45.3478934" lon="11.6783173"><ele>80.0</ele><time>2026-04-11T14:54:45.034Z</time></trkpt><trkpt lat="45.3479327" lon="11.6784839"><ele>80.0</ele><time>2026-04-11T14:54:46.035Z</time></trkpt><trkpt lat="45.3479602" lon="11.678677"><ele>80.0</ele><time>2026-04-11T14:54:47.034Z</time></trkpt><trkpt lat="45.3479887" lon="11.6788746"><ele>80.0</ele><time>2026-04-11T14:54:48.035Z</time></trkpt><trkpt lat="45.3480125" lon="11.679074"><ele>78.0</ele><time>2026-04-11T14:54:49.034Z</time></trkpt><trkpt lat="45.3480351" lon="11.6792648"><ele>76.0</ele><time>2026-04-11T14:54:50.034Z</time></trkpt><trkpt lat="45.3480392" lon="11.6794484"><ele>74.0</ele><time>2026-04-11T14:54:51.034Z</time></trkpt><trkpt lat="45.3480372" lon="11.6796332"><ele>72.0</ele><time>2026-04-11T14:54:52.033Z</time></trkpt><trkpt lat="45.3480148" lon="11.6797932"><ele>71.28571428571429</ele><time>2026-04-11T14:54:53.035Z</time></trkpt><trkpt lat="45.3479987" lon="11.6799259"><ele>70.57142857142857</ele><time>2026-04-11T14:54:54.035Z</time></trkpt><trkpt lat="45.3479932" lon="11.6800391"><ele>69.85714285714286</ele><time>2026-04-11T14:54:55.035Z</time></trkpt><trkpt lat="45.3480421" lon="11.6801158"><ele>69.14285714285714</ele><time>2026-04-11T14:54:56.035Z</time></trkpt><trkpt lat="45.3481027" lon="11.6801505"><ele>68.42857142857143</ele><time>2026-04-11T14:54:57.034Z</time></trkpt><trkpt lat="45.3481678" lon="11.680132"><ele>67.71428571428572</ele><time>2026-04-11T14:54:58.033Z</time></trkpt><trkpt lat="45.3482172" lon="11.6800715"><ele>67.0</ele><time>2026-04-11T14:54:59.034Z</time></trkpt><trkpt lat="45.3482541" lon="11.6799933"><ele>70.6</ele><time>2026-04-11T14:55:00.034Z</time></trkpt><trkpt lat="45.348268" lon="11.6798694"><ele>74.2</ele><time>2026-04-11T14:55:01.035Z</time></trkpt><trkpt lat="45.3482797" lon="11.6797396"><ele>77.8</ele><time>2026-04-11T14:55:02.034Z</time></trkpt><trkpt lat="45.3482958" lon="11.6795878"><ele>81.4</ele><time>2026-04-11T14:55:03.034Z</time></trkpt><trkpt lat="45.3483193" lon="11.6794216"><ele>85.0</ele><time>2026-04-11T14:55:04.034Z</time></trkpt><trkpt lat="45.3483458" lon="11.6792447"><ele>86.75</ele><time>2026-04-11T14:55:05.033Z</time></trkpt><trkpt lat="45.3483726" lon="11.6790484"><ele>88.5</ele><time>2026-04-11T14:55:06.034Z</time></trkpt><trkpt lat="45.3483957" lon="11.6788332"><ele>90.25</ele><time>2026-04-11T14:55:07.034Z</time></trkpt><trkpt lat="45.3483942" lon="11.678627"><ele>92.0</ele><time>2026-04-11T14:55:08.033Z</time></trkpt><trkpt lat="45.348381" lon="11.6784124"><ele>94.33333333333334</ele><time>2026-04-11T14:55:09.033Z</time></trkpt><trkpt lat="45.3483645" lon="11.6782026"><ele>96.66666666666667</ele><time>2026-04-11T14:55:10.035Z</time></trkpt><trkpt lat="45.3483406" lon="11.6779925"><ele>99.0</ele><time>2026-04-11T14:55:11.034Z</time></trkpt><trkpt lat="45.3483169" lon="11.6777769"><ele>101.66666666666666</ele><time>2026-04-11T14:55:12.034Z</time></trkpt><trkpt lat="45.3482939" lon="11.6775669"><ele>104.33333333333333</ele><time>2026-04-11T14:55:13.034Z</time></trkpt><trkpt lat="45.348269" lon="11.677352"><ele>107.0</ele><time>2026-04-11T14:55:14.035Z</time></trkpt><trkpt lat="45.3482426" lon="11.6771437"><ele>107.0</ele><time>2026-04-11T14:55:15.036Z</time></trkpt><trkpt lat="45.3482232" lon="11.67694"><ele>107.0</ele><time>2026-04-11T14:55:16.035Z</time></trkpt><trkpt lat="45.3482216" lon="11.6767405"><ele>107.0</ele><time>2026-04-11T14:55:17.035Z</time></trkpt><trkpt lat="45.3482173" lon="11.6765487"><ele>107.0</ele><time>2026-04-11T14:55:18.034Z</time></trkpt><trkpt lat="45.3482509" lon="11.6763777"><ele>108.0</ele><time>2026-04-11T14:55:19.035Z</time></trkpt><trkpt lat="45.3482657" lon="11.676214"><ele>108.99999999999999</ele><time>2026-04-11T14:55:20.034Z</time></trkpt><trkpt lat="45.3482643" lon="11.6760696"><ele>109.99999999999999</ele><time>2026-04-11T14:55:21.035Z</time></trkpt><trkpt lat="45.3482368" lon="11.6759395"><ele>111.0</ele><time>2026-04-11T14:55:22.035Z</time></trkpt><trkpt lat="45.3482004" lon="11.6758322"><ele>112.0</ele><time>2026-04-11T14:55:23.035Z</time></trkpt><trkpt lat="45.3481391" lon="11.6757401"><ele>112.19999999999999</ele><time>2026-04-11T14:55:24.034Z</time></trkpt><trkpt lat="45.3480939" lon="11.6756194"><ele>112.39999999999999</ele><time>2026-04-11T14:55:25.033Z</time></trkpt><trkpt lat="45.3480808" lon="11.6754899"><ele>112.60000000000001</ele><time>2026-04-11T14:55:26.033Z</time></trkpt><trkpt lat="45.3481061" lon="11.6753706"><ele>112.80000000000001</ele><time>2026-04-11T14:55:27.035Z</time></trkpt><trkpt lat="45.3481652" lon="11.6752731"><ele>113.0</ele><time>2026-04-11T14:55:28.034Z</time></trkpt><trkpt lat="45.3482487" lon="11.6752164"><ele>113.0</ele><time>2026-04-11T14:55:29.035Z</time></trkpt><trkpt lat="45.3483448" lon="11.6752234"><ele>113.00000000000001</ele><time>2026-04-11T14:55:30.035Z</time></trkpt><trkpt lat="45.3484308" lon="11.6752832"><ele>113.00000000000001</ele><time>2026-04-11T14:55:31.035Z</time></trkpt><trkpt lat="45.3485059" lon="11.6753697"><ele>113.0</ele><time>2026-04-11T14:55:32.034Z</time></trkpt><trkpt lat="45.3485481" lon="11.675493"><ele>113.0</ele><time>2026-04-11T14:55:33.035Z</time></trkpt><trkpt lat="45.348558" lon="11.6756405"><ele>113.0</ele><time>2026-04-11T14:55:34.034Z</time></trkpt><trkpt lat="45.3485391" lon="11.6757966"><ele>113.0</ele><time>2026-04-11T14:55:35.033Z</time></trkpt><trkpt lat="45.3485273" lon="11.6759596"><ele>113.0</ele><time>2026-04-11T14:55:36.035Z</time></trkpt><trkpt lat="45.3485258" lon="11.676121"><ele>113.0</ele><time>2026-04-11T14:55:37.035Z</time></trkpt><trkpt lat="45.3485214" lon="11.6762903"><ele>112.75</ele><time>2026-04-11T14:55:38.036Z</time></trkpt><trkpt lat="45.3485163" lon="11.6764571"><ele>112.5</ele><time>2026-04-11T14:55:39.034Z</time></trkpt><trkpt lat="45.348512" lon="11.6766321"><ele>112.25</ele><time>2026-04-11T14:55:40.034Z</time></trkpt><trkpt lat="45.3485148" lon="11.6768093"><ele>112.0</ele><time>2026-04-11T14:55:41.034Z</time></trkpt><trkpt lat="45.3485282" lon="11.6769872"><ele>110.75</ele><time>2026-04-11T14:55:42.034Z</time></trkpt><trkpt lat="45.3485427" lon="11.6771646"><ele>109.5</ele><time>2026-04-11T14:55:43.036Z</time></trkpt><trkpt lat="45.3485733" lon="11.6773439"><ele>108.25</ele><time>2026-04-11T14:55:44.034Z</time></trkpt><trkpt lat="45.3486092" lon="11.6775159"><ele>107.0</ele><time>2026-04-11T14:55:45.034Z</time></trkpt><trkpt lat="45.3486486" lon="11.6776794"><ele>105.0</ele><time>2026-04-11T14:55:46.033Z</time></trkpt><trkpt lat="45.3487243" lon="11.6778317"><ele>103.0</ele><time>2026-04-11T14:55:47.036Z</time></trkpt><trkpt lat="45.3487981" lon="11.6779759"><ele>101.0</ele><time>2026-04-11T14:55:48.033Z</time></trkpt><trkpt lat="45.3488794" lon="11.6781196"><ele>99.0</ele><time>2026-04-11T14:55:49.034Z</time></trkpt><trkpt lat="45.348949" lon="11.6782681"><ele>105.0</ele><time>2026-04-11T14:55:50.035Z</time></trkpt><trkpt lat="45.3490236" lon="11.6784179"><ele>111.0</ele><time>2026-04-11T14:55:51.035Z</time></trkpt><trkpt lat="45.349101" lon="11.6785625"><ele>117.0</ele><time>2026-04-11T14:55:52.036Z</time></trkpt><trkpt lat="45.3491723" lon="11.6787039"><ele>123.0</ele><time>2026-04-11T14:55:53.034Z</time></trkpt><trkpt lat="45.3492468" lon="11.6788493"><ele>123.0</ele><time>2026-04-11T14:55:54.034Z</time></trkpt><trkpt lat="45.3492959" lon="11.6790088"><ele>123.0</ele><time>2026-04-11T14:55:55.035Z</time></trkpt><trkpt lat="45.3493357" lon="11.6791708"><ele>123.0</ele><time>2026-04-11T14:55:56.033Z</time></trkpt><trkpt lat="45.3493762" lon="11.6793267"><ele>123.0</ele><time>2026-04-11T14:55:57.034Z</time></trkpt><trkpt lat="45.3494204" lon="11.6794755"><ele>121.4</ele><time>2026-04-11T14:55:58.034Z</time></trkpt><trkpt lat="45.3494556" lon="11.6796212"><ele>119.80000000000001</ele><time>2026-04-11T14:55:59.035Z</time></trkpt><trkpt lat="45.3494886" lon="11.6797569"><ele>118.2</ele><time>2026-04-11T14:56:00.035Z</time></trkpt><trkpt lat="45.3495126" lon="11.6798945"><ele>116.6</ele><time>2026-04-11T14:56:01.034Z</time></trkpt><trkpt lat="45.3495304" lon="11.6800395"><ele>115.0</ele><time>2026-04-11T14:56:02.033Z</time></trkpt><trkpt lat="45.3495449" lon="11.6801904"><ele>113.8</ele><time>2026-04-11T14:56:03.035Z</time></trkpt><trkpt lat="45.3495518" lon="11.6803364"><ele>112.6</ele><time>2026-04-11T14:56:04.035Z</time></trkpt><trkpt lat="45.3495528" lon="11.6804706"><ele>111.4</ele><time>2026-04-11T14:56:05.033Z</time></trkpt><trkpt lat="45.3495793" lon="11.6805785"><ele>110.2</ele><time>2026-04-11T14:56:06.035Z</time></trkpt><trkpt lat="45.3496277" lon="11.6806467"><ele>109.0</ele><time>2026-04-11T14:56:07.034Z</time></trkpt><trkpt lat="45.3497418" lon="11.6806421"><ele>112.2</ele><time>2026-04-11T14:56:09.035Z</time></trkpt><trkpt lat="45.349818" lon="11.6805147"><ele>115.4</ele><time>2026-04-11T14:56:11.036Z</time></trkpt><trkpt lat="45.3498193" lon="11.680408"><ele>118.6</ele><time>2026-04-11T14:56:12.034Z</time></trkpt><trkpt lat="45.349816" lon="11.6802804"><ele>121.8</ele><time>2026-04-11T14:56:13.034Z</time></trkpt><trkpt lat="45.349815" lon="11.6801443"><ele>125.0</ele><time>2026-04-11T14:56:14.034Z</time></trkpt><trkpt lat="45.3498019" lon="11.679981"><ele>125.66666666666666</ele><time>2026-04-11T14:56:15.033Z</time></trkpt><trkpt lat="45.3497783" lon="11.6797882"><ele>126.33333333333334</ele><time>2026-04-11T14:56:16.034Z</time></trkpt><trkpt lat="45.3497306" lon="11.6795755"><ele>127.0</ele><time>2026-04-11T14:56:17.034Z</time></trkpt><trkpt lat="45.3496753" lon="11.6793374"><ele>125.66666666666667</ele><time>2026-04-11T14:56:18.035Z</time></trkpt><trkpt lat="45.3496091" lon="11.6790976"><ele>124.33333333333334</ele><time>2026-04-11T14:56:19.035Z</time></trkpt><trkpt lat="45.3495293" lon="11.6788314"><ele>123.0</ele><time>2026-04-11T14:56:20.035Z</time></trkpt><trkpt lat="45.3494483" lon="11.6785822"><ele>127.0</ele><time>2026-04-11T14:56:21.034Z</time></trkpt><trkpt lat="45.3493697" lon="11.6783392"><ele>131.0</ele><time>2026-04-11T14:56:22.036Z</time></trkpt><trkpt lat="45.3493023" lon="11.6781067"><ele>135.0</ele><time>2026-04-11T14:56:23.034Z</time></trkpt><trkpt lat="45.349235" lon="11.6778904"><ele>140.0</ele><time>2026-04-11T14:56:24.035Z</time></trkpt><trkpt lat="45.3491707" lon="11.6776851"><ele>145.0</ele><time>2026-04-11T14:56:25.035Z</time></trkpt><trkpt lat="45.3491225" lon="11.6774827"><ele>150.0</ele><time>2026-04-11T14:56:26.036Z</time></trkpt><trkpt lat="45.3490853" lon="11.6772871"><ele>150.0</ele><time>2026-04-11T14:56:27.034Z</time></trkpt><trkpt lat="45.3490608" lon="11.677097"><ele>150.0</ele><time>2026-04-11T14:56:28.035Z</time></trkpt><trkpt lat="45.3490419" lon="11.6769234"><ele>150.0</ele><time>2026-04-11T14:56:29.036Z</time></trkpt><trkpt lat="45.3490643" lon="11.6767648"><ele>150.0</ele><time>2026-04-11T14:56:30.035Z</time></trkpt><trkpt lat="45.3490975" lon="11.6766102"><ele>150.75</ele><time>2026-04-11T14:56:31.035Z</time></trkpt><trkpt lat="45.3491587" lon="11.6764492"><ele>151.5</ele><time>2026-04-11T14:56:32.036Z</time></trkpt><trkpt lat="45.3492346" lon="11.6762757"><ele>152.25</ele><time>2026-04-11T14:56:33.035Z</time></trkpt><trkpt lat="45.3493126" lon="11.6761077"><ele>153.0</ele><time>2026-04-11T14:56:34.035Z</time></trkpt><trkpt lat="45.3493949" lon="11.6759438"><ele>150.75</ele><time>2026-04-11T14:56:35.035Z</time></trkpt><trkpt lat="45.3494801" lon="11.6757826"><ele>148.5</ele><time>2026-04-11T14:56:36.035Z</time></trkpt><trkpt lat="45.3495633" lon="11.6756325"><ele>146.25</ele><time>2026-04-11T14:56:37.035Z</time></trkpt><trkpt lat="45.3496403" lon="11.6754822"><ele>144.0</ele><time>2026-04-11T14:56:38.033Z</time></trkpt><trkpt lat="45.3497077" lon="11.6753323"><ele>145.0</ele><time>2026-04-11T14:56:39.034Z</time></trkpt><trkpt lat="45.3497633" lon="11.6751735"><ele>146.0</ele><time>2026-04-11T14:56:40.035Z</time></trkpt><trkpt lat="45.3497785" lon="11.6749848"><ele>147.0</ele><time>2026-04-11T14:56:41.033Z</time></trkpt><trkpt lat="45.3497962" lon="11.6747937"><ele>148.0</ele><time>2026-04-11T14:56:42.035Z</time></trkpt><trkpt lat="45.3498068" lon="11.6745981"><ele>149.75</ele><time>2026-04-11T14:56:43.034Z</time></trkpt><trkpt lat="45.3498171" lon="11.6744148"><ele>151.5</ele><time>2026-04-11T14:56:44.036Z</time></trkpt><trkpt lat="45.3498266" lon="11.6742308"><ele>153.25</ele><time>2026-04-11T14:56:45.033Z</time></trkpt><trkpt lat="45.349831" lon="11.674069"><ele>155.0</ele><time>2026-04-11T14:56:46.035Z</time></trkpt><trkpt lat="45.3498283" lon="11.6739044"><ele>155.0</ele><time>2026-04-11T14:56:47.034Z</time></trkpt><trkpt lat="45.3497971" lon="11.6737379"><ele>155.0</ele><time>2026-04-11T14:56:48.035Z</time></trkpt><trkpt lat="45.349761" lon="11.6735714"><ele>155.0</ele><time>2026-04-11T14:56:49.036Z</time></trkpt><trkpt lat="45.3497195" lon="11.6734133"><ele>155.0</ele><time>2026-04-11T14:56:50.034Z</time></trkpt><trkpt lat="45.3496731" lon="11.673268"><ele>154.0</ele><time>2026-04-11T14:56:51.036Z</time></trkpt><trkpt lat="45.349605" lon="11.6731424"><ele>153.0</ele><time>2026-04-11T14:56:52.035Z</time></trkpt><trkpt lat="45.3495154" lon="11.6730353"><ele>152.0</ele><time>2026-04-11T14:56:53.033Z</time></trkpt><trkpt lat="45.3494208" lon="11.6729422"><ele>151.0</ele><time>2026-04-11T14:56:54.034Z</time></trkpt><trkpt lat="45.3493257" lon="11.6728549"><ele>151.0</ele><time>2026-04-11T14:56:55.036Z</time></trkpt><trkpt lat="45.3492344" lon="11.6727773"><ele>151.0</ele><time>2026-04-11T14:56:56.033Z</time></trkpt><trkpt lat="45.3491437" lon="11.6727111"><ele>151.0</ele><time>2026-04-11T14:56:57.033Z</time></trkpt><trkpt lat="45.3490631" lon="11.6726611"><ele>151.0</ele><time>2026-04-11T14:56:58.035Z</time></trkpt><trkpt lat="45.348992" lon="11.6726128"><ele>151.0</ele><time>2026-04-11T14:56:59.035Z</time></trkpt><trkpt lat="45.3489367" lon="11.6725695"><ele>151.0</ele><time>2026-04-11T14:57:00.036Z</time></trkpt><trkpt lat="45.3488286" lon="11.6725026"><ele>152.16666666666669</ele><time>2026-04-11T14:57:02.035Z</time></trkpt><trkpt lat="45.3487303" lon="11.6724398"><ele>153.33333333333334</ele><time>2026-04-11T14:57:04.036Z</time></trkpt><trkpt lat="45.3486318" lon="11.6723591"><ele>154.5</ele><time>2026-04-11T14:57:06.033Z</time></trkpt><trkpt lat="45.3485755" lon="11.6723172"><ele>155.66666666666666</ele><time>2026-04-11T14:57:07.035Z</time></trkpt><trkpt lat="45.3485126" lon="11.6722849"><ele>156.83333333333331</ele><time>2026-04-11T14:57:08.035Z</time></trkpt><trkpt lat="45.3484457" lon="11.6722688"><ele>158.0</ele><time>2026-04-11T14:57:09.035Z</time></trkpt><trkpt lat="45.3483681" lon="11.6722472"><ele>158.0</ele><time>2026-04-11T14:57:10.033Z</time></trkpt><trkpt lat="45.3482927" lon="11.6722171"><ele>158.0</ele><time>2026-04-11T14:57:11.034Z</time></trkpt><trkpt lat="45.3482158" lon="11.6721863"><ele>158.0</ele><time>2026-04-11T14:57:12.034Z</time></trkpt><trkpt lat="45.3481399" lon="11.6721539"><ele>158.0</ele><time>2026-04-11T14:57:13.034Z</time></trkpt><trkpt lat="45.3480568" lon="11.6721256"><ele>158.0</ele><time>2026-04-11T14:57:14.035Z</time></trkpt><trkpt lat="45.347975" lon="11.6720952"><ele>158.0</ele><time>2026-04-11T14:57:15.034Z</time></trkpt><trkpt lat="45.3478941" lon="11.6720543"><ele>158.16666666666666</ele><time>2026-04-11T14:57:16.034Z</time></trkpt><trkpt lat="45.347812" lon="11.6720212"><ele>158.33333333333331</ele><time>2026-04-11T14:57:17.034Z</time></trkpt><trkpt lat="45.3477262" lon="11.6719828"><ele>158.5</ele><time>2026-04-11T14:57:18.035Z</time></trkpt><trkpt lat="45.3476451" lon="11.671949"><ele>158.66666666666666</ele><time>2026-04-11T14:57:19.034Z</time></trkpt><trkpt lat="45.3475597" lon="11.6719134"><ele>158.83333333333334</ele><time>2026-04-11T14:57:20.033Z</time></trkpt><trkpt lat="45.3474701" lon="11.6718805"><ele>159.0</ele><time>2026-04-11T14:57:21.035Z</time></trkpt><trkpt lat="45.3473823" lon="11.6718467"><ele>158.5</ele><time>2026-04-11T14:57:22.035Z</time></trkpt><trkpt lat="45.3472905" lon="11.6718203"><ele>158.0</ele><time>2026-04-11T14:57:23.036Z</time></trkpt><trkpt lat="45.3472005" lon="11.6718"><ele>157.5</ele><time>2026-04-11T14:57:24.034Z</time></trkpt><trkpt lat="45.3471181" lon="11.6717808"><ele>157.0</ele><time>2026-04-11T14:57:25.035Z</time></trkpt><trkpt lat="45.3470299" lon="11.6717622"><ele>156.5</ele><time>2026-04-11T14:57:26.036Z</time></trkpt><trkpt lat="45.3469418" lon="11.6717352"><ele>156.0</ele><time>2026-04-11T14:57:27.034Z</time></trkpt><trkpt lat="45.3468586" lon="11.6716978"><ele>156.0</ele><time>2026-04-11T14:57:28.034Z</time></trkpt><trkpt lat="45.3467811" lon="11.6716395"><ele>156.0</ele><time>2026-04-11T14:57:29.034Z</time></trkpt><trkpt lat="45.3467084" lon="11.671567"><ele>156.0</ele><time>2026-04-11T14:57:30.036Z</time></trkpt><trkpt lat="45.3466373" lon="11.671484"><ele>156.0</ele><time>2026-04-11T14:57:31.034Z</time></trkpt><trkpt lat="45.3465699" lon="11.6713976"><ele>156.0</ele><time>2026-04-11T14:57:32.035Z</time></trkpt><trkpt lat="45.3465043" lon="11.6713154"><ele>156.0</ele><time>2026-04-11T14:57:33.034Z</time></trkpt><trkpt lat="45.3464329" lon="11.671254"><ele>155.0</ele><time>2026-04-11T14:57:34.034Z</time></trkpt><trkpt lat="45.3463655" lon="11.6712017"><ele>154.0</ele><time>2026-04-11T14:57:35.035Z</time></trkpt><trkpt lat="45.3463012" lon="11.6711484"><ele>153.0</ele><time>2026-04-11T14:57:36.034Z</time></trkpt><trkpt lat="45.3462299" lon="11.6711089"><ele>152.0</ele><time>2026-04-11T14:57:37.034Z</time></trkpt><trkpt lat="45.346156" lon="11.6710681"><ele>151.0</ele><time>2026-04-11T14:57:38.034Z</time></trkpt><trkpt lat="45.3460765" lon="11.6710269"><ele>150.0</ele><time>2026-04-11T14:57:39.035Z</time></trkpt><trkpt lat="45.3459964" lon="11.6709941"><ele>150.0</ele><time>2026-04-11T14:57:40.034Z</time></trkpt><trkpt lat="45.3459132" lon="11.6709633"><ele>150.0</ele><time>2026-04-11T14:57:41.035Z</time></trkpt><trkpt lat="45.3458221" lon="11.670947"><ele>150.0</ele><time>2026-04-11T14:57:42.033Z</time></trkpt><trkpt lat="45.3457306" lon="11.6709299"><ele>150.0</ele><time>2026-04-11T14:57:43.034Z</time></trkpt><trkpt lat="45.3456415" lon="11.6709218"><ele>150.0</ele><time>2026-04-11T14:57:44.035Z</time></trkpt><trkpt lat="45.3455472" lon="11.6709232"><ele>149.8</ele><time>2026-04-11T14:57:45.035Z</time></trkpt><trkpt lat="45.3454543" lon="11.6709255"><ele>149.6</ele><time>2026-04-11T14:57:46.035Z</time></trkpt><trkpt lat="45.3453637" lon="11.670921"><ele>149.4</ele><time>2026-04-11T14:57:47.033Z</time></trkpt><trkpt lat="45.3452722" lon="11.6709175"><ele>149.2</ele><time>2026-04-11T14:57:48.033Z</time></trkpt><trkpt lat="45.3451814" lon="11.6709244"><ele>149.0</ele><time>2026-04-11T14:57:49.036Z</time></trkpt><trkpt lat="45.3450929" lon="11.6709283"><ele>149.0</ele><time>2026-04-11T14:57:50.035Z</time></trkpt><trkpt lat="45.3449992" lon="11.6709324"><ele>149.0</ele><time>2026-04-11T14:57:51.035Z</time></trkpt><trkpt lat="45.3449069" lon="11.6709329"><ele>149.0</ele><time>2026-04-11T14:57:52.034Z</time></trkpt><trkpt lat="45.3448123" lon="11.6709323"><ele>149.0</ele><time>2026-04-11T14:57:53.034Z</time></trkpt><trkpt lat="45.3447168" lon="11.6709249"><ele>149.0</ele><time>2026-04-11T14:57:54.033Z</time></trkpt><trkpt lat="45.3446209" lon="11.6709172"><ele>148.83333333333331</ele><time>2026-04-11T14:57:55.034Z</time></trkpt><trkpt lat="45.3445252" lon="11.6708953"><ele>148.66666666666666</ele><time>2026-04-11T14:57:56.035Z</time></trkpt><trkpt lat="45.3444318" lon="11.6708683"><ele>148.5</ele><time>2026-04-11T14:57:57.035Z</time></trkpt><trkpt lat="45.3443522" lon="11.67084"><ele>148.33333333333334</ele><time>2026-04-11T14:57:58.034Z</time></trkpt><trkpt lat="45.3442773" lon="11.6707984"><ele>148.16666666666669</ele><time>2026-04-11T14:57:59.035Z</time></trkpt><trkpt lat="45.3442164" lon="11.6707643"><ele>148.0</ele><time>2026-04-11T14:58:00.034Z</time></trkpt><trkpt lat="45.3441413" lon="11.6707095"><ele>148.0</ele><time>2026-04-11T14:58:02.034Z</time></trkpt><trkpt lat="45.3441956" lon="11.670787"><ele>148.0</ele><time>2026-04-11T14:58:08.034Z</time></trkpt><trkpt lat="45.3443096" lon="11.6708423"><ele>148.0</ele><time>2026-04-11T14:58:10.035Z</time></trkpt><trkpt lat="45.3443968" lon="11.6708739"><ele>148.0</ele><time>2026-04-11T14:58:11.035Z</time></trkpt><trkpt lat="45.3445111" lon="11.6709106"><ele>148.0</ele><time>2026-04-11T14:58:12.034Z</time></trkpt><trkpt lat="45.3446351" lon="11.6709335"><ele>148.0</ele><time>2026-04-11T14:58:13.033Z</time></trkpt><trkpt lat="45.3447689" lon="11.6709497"><ele>149.0</ele><time>2026-04-11T14:58:14.036Z</time></trkpt><trkpt lat="45.3449062" lon="11.67095"><ele>149.0</ele><time>2026-04-11T14:58:15.033Z</time></trkpt><trkpt lat="45.3450455" lon="11.6709479"><ele>149.0</ele><time>2026-04-11T14:58:16.034Z</time></trkpt></trkseg><trkseg><trkpt lat="45.3475389" lon="11.6719221"><ele>154.0</ele><time>2026-04-11T15:04:27.036Z</time></trkpt><trkpt lat="45.3474516" lon="11.6718823"><ele>154.0</ele><time>2026-04-11T15:04:29.035Z</time></trkpt><trkpt lat="45.3473697" lon="11.6718523"><ele>154.0</ele><time>2026-04-11T15:04:31.035Z</time></trkpt><trkpt lat="45.3472911" lon="11.6718291"><ele>154.0</ele><time>2026-04-11T15:04:33.035Z</time></trkpt><trkpt lat="45.3472125" lon="11.6718031"><ele>154.0</ele><time>2026-04-11T15:04:35.034Z</time></trkpt><trkpt lat="45.3471221" lon="11.6717842"><ele>154.0</ele><time>2026-04-11T15:04:37.035Z</time></trkpt><trkpt lat="45.3470178" lon="11.671758"><ele>154.4</ele><time>2026-04-11T15:04:39.036Z</time></trkpt><trkpt lat="45.3469005" lon="11.6717236"><ele>154.8</ele><time>2026-04-11T15:04:41.036Z</time></trkpt><trkpt lat="45.3467871" lon="11.671656"><ele>155.2</ele><time>2026-04-11T15:04:43.036Z</time></trkpt><trkpt lat="45.3467337" lon="11.6716029"><ele>155.6</ele><time>2026-04-11T15:04:44.034Z</time></trkpt><trkpt lat="45.34668" lon="11.6715378"><ele>156.0</ele><time>2026-04-11T15:04:45.036Z</time></trkpt><trkpt lat="45.346625" lon="11.671472"><ele>156.0</ele><time>2026-04-11T15:04:46.034Z</time></trkpt><trkpt lat="45.3465689" lon="11.6714029"><ele>156.0</ele><time>2026-04-11T15:04:47.035Z</time></trkpt><trkpt lat="45.3465107" lon="11.6713302"><ele>156.0</ele><time>2026-04-11T15:04:48.035Z</time></trkpt><trkpt lat="45.3464492" lon="11.6712611"><ele>156.0</ele><time>2026-04-11T15:04:49.035Z</time></trkpt><trkpt lat="45.3463791" lon="11.6711986"><ele>156.0</ele><time>2026-04-11T15:04:50.034Z</time></trkpt><trkpt lat="45.3463038" lon="11.671149"><ele>156.0</ele><time>2026-04-11T15:04:51.035Z</time></trkpt><trkpt lat="45.3462253" lon="11.6711064"><ele>154.8</ele><time>2026-04-11T15:04:52.034Z</time></trkpt><trkpt lat="45.3461446" lon="11.6710613"><ele>153.6</ele><time>2026-04-11T15:04:53.035Z</time></trkpt><trkpt lat="45.3460613" lon="11.6710193"><ele>152.4</ele><time>2026-04-11T15:04:54.035Z</time></trkpt><trkpt lat="45.3459719" lon="11.6709856"><ele>151.2</ele><time>2026-04-11T15:04:55.034Z</time></trkpt><trkpt lat="45.3458789" lon="11.6709548"><ele>150.0</ele><time>2026-04-11T15:04:56.037Z</time></trkpt><trkpt lat="45.3457819" lon="11.6709333"><ele>150.0</ele><time>2026-04-11T15:04:57.035Z</time></trkpt><trkpt lat="45.3456787" lon="11.6709229"><ele>150.0</ele><time>2026-04-11T15:04:58.036Z</time></trkpt><trkpt lat="45.3455734" lon="11.6709243"><ele>150.0</ele><time>2026-04-11T15:04:59.034Z</time></trkpt><trkpt lat="45.3454649" lon="11.6709343"><ele>150.0</ele><time>2026-04-11T15:05:00.035Z</time></trkpt><trkpt lat="45.3453525" lon="11.6709377"><ele>150.0</ele><time>2026-04-11T15:05:01.035Z</time></trkpt><trkpt lat="45.3452425" lon="11.6709361"><ele>149.75</ele><time>2026-04-11T15:05:02.036Z</time></trkpt><trkpt lat="45.3451299" lon="11.6709352"><ele>149.5</ele><time>2026-04-11T15:05:03.035Z</time></trkpt><trkpt lat="45.3450151" lon="11.6709324"><ele>149.25</ele><time>2026-04-11T15:05:04.034Z</time></trkpt><trkpt lat="45.3449016" lon="11.6709328"><ele>149.0</ele><time>2026-04-11T15:05:05.036Z</time></trkpt><trkpt lat="45.3447871" lon="11.6709234"><ele>148.75</ele><time>2026-04-11T15:05:06.035Z</time></trkpt><trkpt lat="45.3446736" lon="11.6709114"><ele>148.5</ele><time>2026-04-11T15:05:07.035Z</time></trkpt><trkpt lat="45.344559" lon="11.6708929"><ele>148.25</ele><time>2026-04-11T15:05:08.035Z</time></trkpt><trkpt lat="45.3444446" lon="11.6708611"><ele>148.0</ele><time>2026-04-11T15:05:09.035Z</time></trkpt><trkpt lat="45.3443329" lon="11.6708208"><ele>148.0</ele><time>2026-04-11T15:05:10.034Z</time></trkpt><trkpt lat="45.344225" lon="11.6707677"><ele>148.0</ele><time>2026-04-11T15:05:11.035Z</time></trkpt><trkpt lat="45.3441211" lon="11.6707089"><ele>148.0</ele><time>2026-04-11T15:05:12.035Z</time></trkpt><trkpt lat="45.344015" lon="11.6706478"><ele>148.0</ele><time>2026-04-11T15:05:13.035Z</time></trkpt><trkpt lat="45.3439157" lon="11.670574"><ele>148.6</ele><time>2026-04-11T15:05:14.036Z</time></trkpt><trkpt lat="45.3438197" lon="11.6704925"><ele>149.20000000000002</ele><time>2026-04-11T15:05:15.035Z</time></trkpt><trkpt lat="45.343729" lon="11.6704015"><ele>149.8</ele><time>2026-04-11T15:05:16.034Z</time></trkpt><trkpt lat="45.343641" lon="11.6703055"><ele>150.4</ele><time>2026-04-11T15:05:17.035Z</time></trkpt><trkpt lat="45.3435596" lon="11.6702031"><ele>151.0</ele><time>2026-04-11T15:05:18.035Z</time></trkpt><trkpt lat="45.3434843" lon="11.670095"><ele>149.4</ele><time>2026-04-11T15:05:19.036Z</time></trkpt><trkpt lat="45.3434138" lon="11.6699793"><ele>147.8</ele><time>2026-04-11T15:05:20.036Z</time></trkpt><trkpt lat="45.3433532" lon="11.6698509"><ele>146.20000000000002</ele><time>2026-04-11T15:05:21.034Z</time></trkpt><trkpt lat="45.3433085" lon="11.6697094"><ele>144.6</ele><time>2026-04-11T15:05:22.035Z</time></trkpt><trkpt lat="45.3432714" lon="11.6695654"><ele>143.0</ele><time>2026-04-11T15:05:23.034Z</time></trkpt><trkpt lat="45.343241" lon="11.6694185"><ele>141.20000000000002</ele><time>2026-04-11T15:05:24.036Z</time></trkpt><trkpt lat="45.343215" lon="11.6692736"><ele>139.4</ele><time>2026-04-11T15:05:25.036Z</time></trkpt><trkpt lat="45.3431809" lon="11.6691277"><ele>137.60000000000002</ele><time>2026-04-11T15:05:26.034Z</time></trkpt><trkpt lat="45.3431404" lon="11.6689868"><ele>135.8</ele><time>2026-04-11T15:05:27.035Z</time></trkpt><trkpt lat="45.3430774" lon="11.6688599"><ele>134.0</ele><time>2026-04-11T15:05:28.035Z</time></trkpt><trkpt lat="45.3430132" lon="11.6687358"><ele>133.6</ele><time>2026-04-11T15:05:29.033Z</time></trkpt><trkpt lat="45.3429417" lon="11.6686245"><ele>133.2</ele><time>2026-04-11T15:05:30.035Z</time></trkpt><trkpt lat="45.3428669" lon="11.6685163"><ele>132.79999999999998</ele><time>2026-04-11T15:05:31.034Z</time></trkpt><trkpt lat="45.3427953" lon="11.668406"><ele>132.4</ele><time>2026-04-11T15:05:32.034Z</time></trkpt><trkpt lat="45.3427203" lon="11.6682926"><ele>132.0</ele><time>2026-04-11T15:05:33.035Z</time></trkpt><trkpt lat="45.3426491" lon="11.668176"><ele>130.79999999999998</ele><time>2026-04-11T15:05:34.034Z</time></trkpt><trkpt lat="45.3425799" lon="11.668053"><ele>129.6</ele><time>2026-04-11T15:05:35.035Z</time></trkpt><trkpt lat="45.3425118" lon="11.6679317"><ele>128.39999999999998</ele><time>2026-04-11T15:05:36.036Z</time></trkpt><trkpt lat="45.3424462" lon="11.667812"><ele>127.19999999999999</ele><time>2026-04-11T15:05:37.036Z</time></trkpt><trkpt lat="45.3423795" lon="11.667689"><ele>126.0</ele><time>2026-04-11T15:05:38.035Z</time></trkpt><trkpt lat="45.3423133" lon="11.667567"><ele>125.8</ele><time>2026-04-11T15:05:39.033Z</time></trkpt><trkpt lat="45.3422546" lon="11.6674409"><ele>125.6</ele><time>2026-04-11T15:05:40.035Z</time></trkpt><trkpt lat="45.3422034" lon="11.6673068"><ele>125.4</ele><time>2026-04-11T15:05:41.034Z</time></trkpt><trkpt lat="45.3421631" lon="11.6671611"><ele>125.2</ele><time>2026-04-11T15:05:42.035Z</time></trkpt><trkpt lat="45.342135" lon="11.6670005"><ele>125.0</ele><time>2026-04-11T15:05:43.035Z</time></trkpt><trkpt lat="45.3421174" lon="11.6668363"><ele>122.0</ele><time>2026-04-11T15:05:44.034Z</time></trkpt><trkpt lat="45.3421015" lon="11.6666639"><ele>119.0</ele><time>2026-04-11T15:05:45.036Z</time></trkpt><trkpt lat="45.3420891" lon="11.6664836"><ele>116.0</ele><time>2026-04-11T15:05:46.035Z</time></trkpt><trkpt lat="45.3420694" lon="11.6662977"><ele>113.0</ele><time>2026-04-11T15:05:47.036Z</time></trkpt><trkpt lat="45.3420501" lon="11.6661114"><ele>113.0</ele><time>2026-04-11T15:05:48.036Z</time></trkpt><trkpt lat="45.3420353" lon="11.6659243"><ele>113.0</ele><time>2026-04-11T15:05:49.034Z</time></trkpt><trkpt lat="45.342025" lon="11.6657376"><ele>113.0</ele><time>2026-04-11T15:05:50.036Z</time></trkpt><trkpt lat="45.3420126" lon="11.6655532"><ele>113.0</ele><time>2026-04-11T15:05:51.035Z</time></trkpt><trkpt lat="45.3419961" lon="11.6653655"><ele>112.5</ele><time>2026-04-11T15:05:52.036Z</time></trkpt><trkpt lat="45.3419903" lon="11.6651783"><ele>112.0</ele><time>2026-04-11T15:05:53.036Z</time></trkpt><trkpt lat="45.3419837" lon="11.6649856"><ele>111.5</ele><time>2026-04-11T15:05:54.035Z</time></trkpt><trkpt lat="45.3419796" lon="11.664802"><ele>111.0</ele><time>2026-04-11T15:05:55.035Z</time></trkpt><trkpt lat="45.3419767" lon="11.6646123"><ele>110.25</ele><time>2026-04-11T15:05:56.034Z</time></trkpt><trkpt lat="45.3419751" lon="11.6644273"><ele>109.5</ele><time>2026-04-11T15:05:57.035Z</time></trkpt><trkpt lat="45.3419771" lon="11.6642462"><ele>108.75</ele><time>2026-04-11T15:05:58.033Z</time></trkpt><trkpt lat="45.3419932" lon="11.6640694"><ele>108.0</ele><time>2026-04-11T15:05:59.036Z</time></trkpt><trkpt lat="45.3420101" lon="11.6638906"><ele>108.0</ele><time>2026-04-11T15:06:00.034Z</time></trkpt><trkpt lat="45.3420347" lon="11.6637137"><ele>108.0</ele><time>2026-04-11T15:06:01.036Z</time></trkpt><trkpt lat="45.3420558" lon="11.6635422"><ele>108.0</ele><time>2026-04-11T15:06:02.034Z</time></trkpt><trkpt lat="45.3420709" lon="11.6633716"><ele>108.0</ele><time>2026-04-11T15:06:03.036Z</time></trkpt><trkpt lat="45.3420738" lon="11.6631979"><ele>107.75</ele><time>2026-04-11T15:06:04.035Z</time></trkpt><trkpt lat="45.3420529" lon="11.6630343"><ele>107.5</ele><time>2026-04-11T15:06:05.036Z</time></trkpt><trkpt lat="45.3419985" lon="11.6628912"><ele>107.25</ele><time>2026-04-11T15:06:06.034Z</time></trkpt><trkpt lat="45.3419282" lon="11.6627777"><ele>107.0</ele><time>2026-04-11T15:06:07.034Z</time></trkpt><trkpt lat="45.3418199" lon="11.6627287"><ele>107.0</ele><time>2026-04-11T15:06:08.033Z</time></trkpt><trkpt lat="45.341717" lon="11.6627204"><ele>106.99999999999999</ele><time>2026-04-11T15:06:09.036Z</time></trkpt><trkpt lat="45.3416131" lon="11.662769"><ele>106.99999999999999</ele><time>2026-04-11T15:06:10.034Z</time></trkpt><trkpt lat="45.3415317" lon="11.6628618"><ele>107.0</ele><time>2026-04-11T15:06:11.035Z</time></trkpt><trkpt lat="45.341474" lon="11.662985"><ele>107.0</ele><time>2026-04-11T15:06:12.035Z</time></trkpt><trkpt lat="45.3414401" lon="11.6631272"><ele>107.0</ele><time>2026-04-11T15:06:13.035Z</time></trkpt><trkpt lat="45.3414296" lon="11.6632752"><ele>106.99999999999999</ele><time>2026-04-11T15:06:14.035Z</time></trkpt><trkpt lat="45.3414191" lon="11.6634274"><ele>106.99999999999999</ele><time>2026-04-11T15:06:15.035Z</time></trkpt><trkpt lat="45.3414297" lon="11.6635784"><ele>107.0</ele><time>2026-04-11T15:06:16.034Z</time></trkpt><trkpt lat="45.3414291" lon="11.6637293"><ele>107.0</ele><time>2026-04-11T15:06:17.034Z</time></trkpt><trkpt lat="45.3414355" lon="11.6638831"><ele>107.19999999999999</ele><time>2026-04-11T15:06:18.035Z</time></trkpt><trkpt lat="45.3414457" lon="11.6640358"><ele>107.39999999999999</ele><time>2026-04-11T15:06:19.034Z</time></trkpt><trkpt lat="45.341454" lon="11.6641917"><ele>107.60000000000001</ele><time>2026-04-11T15:06:20.036Z</time></trkpt><trkpt lat="45.341444" lon="11.6643488"><ele>107.80000000000001</ele><time>2026-04-11T15:06:21.034Z</time></trkpt><trkpt lat="45.3414253" lon="11.6645037"><ele>108.0</ele><time>2026-04-11T15:06:22.033Z</time></trkpt><trkpt lat="45.3413742" lon="11.6646586"><ele>104.5</ele><time>2026-04-11T15:06:23.035Z</time></trkpt><trkpt lat="45.3413148" lon="11.6647841"><ele>101.0</ele><time>2026-04-11T15:06:24.036Z</time></trkpt><trkpt lat="45.341239" lon="11.6649035"><ele>97.5</ele><time>2026-04-11T15:06:25.035Z</time></trkpt><trkpt lat="45.3411514" lon="11.6650088"><ele>94.0</ele><time>2026-04-11T15:06:26.034Z</time></trkpt><trkpt lat="45.3410562" lon="11.6651059"><ele>94.0</ele><time>2026-04-11T15:06:27.034Z</time></trkpt><trkpt lat="45.3409557" lon="11.6651966"><ele>94.0</ele><time>2026-04-11T15:06:28.034Z</time></trkpt><trkpt lat="45.3408457" lon="11.6652472"><ele>94.0</ele><time>2026-04-11T15:06:29.035Z</time></trkpt><trkpt lat="45.3407332" lon="11.6652812"><ele>94.0</ele><time>2026-04-11T15:06:30.035Z</time></trkpt><trkpt lat="45.3406138" lon="11.6652782"><ele>92.0</ele><time>2026-04-11T15:06:31.035Z</time></trkpt><trkpt lat="45.3404969" lon="11.6652671"><ele>90.0</ele><time>2026-04-11T15:06:32.036Z</time></trkpt><trkpt lat="45.3403973" lon="11.6652736"><ele>88.0</ele><time>2026-04-11T15:06:33.035Z</time></trkpt><trkpt lat="45.3403085" lon="11.6653212"><ele>86.0</ele><time>2026-04-11T15:06:34.035Z</time></trkpt><trkpt lat="45.3402427" lon="11.665411"><ele>84.0</ele><time>2026-04-11T15:06:35.036Z</time></trkpt><trkpt lat="45.3402179" lon="11.6655223"><ele>84.0</ele><time>2026-04-11T15:06:36.036Z</time></trkpt><trkpt lat="45.3402275" lon="11.6656427"><ele>84.0</ele><time>2026-04-11T15:06:37.034Z</time></trkpt><trkpt lat="45.3402697" lon="11.6657603"><ele>84.0</ele><time>2026-04-11T15:06:38.035Z</time></trkpt><trkpt lat="45.3403327" lon="11.6658569"><ele>84.0</ele><time>2026-04-11T15:06:39.033Z</time></trkpt><trkpt lat="45.3404045" lon="11.665951"><ele>84.0</ele><time>2026-04-11T15:06:40.035Z</time></trkpt><trkpt lat="45.340479" lon="11.6660466"><ele>85.4</ele><time>2026-04-11T15:06:41.036Z</time></trkpt><trkpt lat="45.3405524" lon="11.6661503"><ele>86.80000000000001</ele><time>2026-04-11T15:06:42.036Z</time></trkpt><trkpt lat="45.3406274" lon="11.6662634"><ele>88.19999999999999</ele><time>2026-04-11T15:06:43.035Z</time></trkpt><trkpt lat="45.3406885" lon="11.6663832"><ele>89.6</ele><time>2026-04-11T15:06:44.035Z</time></trkpt><trkpt lat="45.3407568" lon="11.6665056"><ele>91.0</ele><time>2026-04-11T15:06:45.036Z</time></trkpt><trkpt lat="45.3408205" lon="11.666638"><ele>91.0</ele><time>2026-04-11T15:06:46.036Z</time></trkpt><trkpt lat="45.3408742" lon="11.6667489"><ele>91.0</ele><time>2026-04-11T15:06:47.036Z</time></trkpt><trkpt lat="45.3409282" lon="11.6668614"><ele>91.0</ele><time>2026-04-11T15:06:48.034Z</time></trkpt><trkpt lat="45.3409713" lon="11.6669851"><ele>91.0</ele><time>2026-04-11T15:06:49.035Z</time></trkpt><trkpt lat="45.3409981" lon="11.6671076"><ele>91.0</ele><time>2026-04-11T15:06:50.035Z</time></trkpt><trkpt lat="45.3409853" lon="11.6672326"><ele>90.66666666666666</ele><time>2026-04-11T15:06:51.035Z</time></trkpt><trkpt lat="45.3409138" lon="11.6673352"><ele>90.33333333333333</ele><time>2026-04-11T15:06:52.034Z</time></trkpt><trkpt lat="45.3408417" lon="11.6673942"><ele>90.0</ele><time>2026-04-11T15:06:53.034Z</time></trkpt><trkpt lat="45.3407591" lon="11.6674021"><ele>89.66666666666667</ele><time>2026-04-11T15:06:54.034Z</time></trkpt><trkpt lat="45.3406906" lon="11.6673628"><ele>89.33333333333334</ele><time>2026-04-11T15:06:55.034Z</time></trkpt><trkpt lat="45.3406335" lon="11.6672848"><ele>89.0</ele><time>2026-04-11T15:06:56.036Z</time></trkpt><trkpt lat="45.3406071" lon="11.6671685"><ele>89.0</ele><time>2026-04-11T15:06:57.035Z</time></trkpt><trkpt lat="45.3406077" lon="11.66705"><ele>89.0</ele><time>2026-04-11T15:06:58.034Z</time></trkpt><trkpt lat="45.3406057" lon="11.6669292"><ele>89.0</ele><time>2026-04-11T15:06:59.035Z</time></trkpt><trkpt lat="45.3405991" lon="11.6668067"><ele>89.0</ele><time>2026-04-11T15:07:00.035Z</time></trkpt><trkpt lat="45.3405772" lon="11.6666874"><ele>89.0</ele><time>2026-04-11T15:07:01.036Z</time></trkpt><trkpt lat="45.3405429" lon="11.6665755"><ele>89.0</ele><time>2026-04-11T15:07:02.035Z</time></trkpt><trkpt lat="45.3404971" lon="11.6664704"><ele>88.0</ele><time>2026-04-11T15:07:03.034Z</time></trkpt><trkpt lat="45.3404415" lon="11.6663708"><ele>87.0</ele><time>2026-04-11T15:07:04.036Z</time></trkpt><trkpt lat="45.3403842" lon="11.6662826"><ele>86.0</ele><time>2026-04-11T15:07:05.034Z</time></trkpt><trkpt lat="45.3403095" lon="11.6661993"><ele>85.0</ele><time>2026-04-11T15:07:06.035Z</time></trkpt><trkpt lat="45.34023" lon="11.6661247"><ele>84.0</ele><time>2026-04-11T15:07:07.036Z</time></trkpt><trkpt lat="45.340147" lon="11.6660599"><ele>84.0</ele><time>2026-04-11T15:07:08.036Z</time></trkpt><trkpt lat="45.340058" lon="11.6659984"><ele>84.0</ele><time>2026-04-11T15:07:09.033Z</time></trkpt><trkpt lat="45.3399669" lon="11.6659368"><ele>84.0</ele><time>2026-04-11T15:07:10.035Z</time></trkpt><trkpt lat="45.339879" lon="11.665878"><ele>84.0</ele><time>2026-04-11T15:07:11.035Z</time></trkpt><trkpt lat="45.3397859" lon="11.6658275"><ele>84.0</ele><time>2026-04-11T15:07:12.035Z</time></trkpt><trkpt lat="45.3396975" lon="11.6657771"><ele>82.60000000000001</ele><time>2026-04-11T15:07:13.034Z</time></trkpt><trkpt lat="45.3396053" lon="11.6657124"><ele>81.2</ele><time>2026-04-11T15:07:14.035Z</time></trkpt><trkpt lat="45.3395222" lon="11.6656549"><ele>79.80000000000001</ele><time>2026-04-11T15:07:15.033Z</time></trkpt><trkpt lat="45.3394544" lon="11.665579"><ele>78.4</ele><time>2026-04-11T15:07:16.034Z</time></trkpt><trkpt lat="45.3393909" lon="11.6654953"><ele>77.0</ele><time>2026-04-11T15:07:17.033Z</time></trkpt><trkpt lat="45.3393509" lon="11.6653873"><ele>76.2</ele><time>2026-04-11T15:07:18.034Z</time></trkpt><trkpt lat="45.339321" lon="11.6652677"><ele>75.4</ele><time>2026-04-11T15:07:19.033Z</time></trkpt><trkpt lat="45.3393164" lon="11.6651446"><ele>74.6</ele><time>2026-04-11T15:07:20.035Z</time></trkpt><trkpt lat="45.3393398" lon="11.6650203"><ele>73.8</ele><time>2026-04-11T15:07:21.035Z</time></trkpt><trkpt lat="45.3393898" lon="11.664907"><ele>73.0</ele><time>2026-04-11T15:07:22.036Z</time></trkpt><trkpt lat="45.3394611" lon="11.6648245"><ele>73.0</ele><time>2026-04-11T15:07:23.035Z</time></trkpt><trkpt lat="45.3395331" lon="11.6647528"><ele>73.0</ele><time>2026-04-11T15:07:24.035Z</time></trkpt><trkpt lat="45.339626" lon="11.6647202"><ele>73.0</ele><time>2026-04-11T15:07:25.036Z</time></trkpt><trkpt lat="45.3397213" lon="11.664692"><ele>73.0</ele><time>2026-04-11T15:07:26.036Z</time></trkpt><trkpt lat="45.3398152" lon="11.6646636"><ele>73.0</ele><time>2026-04-11T15:07:27.036Z</time></trkpt><trkpt lat="45.3399094" lon="11.6646251"><ele>72.2</ele><time>2026-04-11T15:07:28.035Z</time></trkpt><trkpt lat="45.3400014" lon="11.664575"><ele>71.4</ele><time>2026-04-11T15:07:29.036Z</time></trkpt><trkpt lat="45.3400869" lon="11.6645119"><ele>70.60000000000001</ele><time>2026-04-11T15:07:30.035Z</time></trkpt><trkpt lat="45.3401608" lon="11.6644294"><ele>69.8</ele><time>2026-04-11T15:07:31.036Z</time></trkpt><trkpt lat="45.3402194" lon="11.6643351"><ele>69.0</ele><time>2026-04-11T15:07:32.034Z</time></trkpt><trkpt lat="45.3402461" lon="11.6642142"><ele>69.0</ele><time>2026-04-11T15:07:33.036Z</time></trkpt><trkpt lat="45.3402301" lon="11.6640947"><ele>69.0</ele><time>2026-04-11T15:07:34.035Z</time></trkpt><trkpt lat="45.3402056" lon="11.6639675"><ele>69.0</ele><time>2026-04-11T15:07:35.035Z</time></trkpt><trkpt lat="45.3401884" lon="11.6638406"><ele>69.0</ele><time>2026-04-11T15:07:36.035Z</time></trkpt><trkpt lat="45.340187" lon="11.6637093"><ele>69.0</ele><time>2026-04-11T15:07:37.035Z</time></trkpt><trkpt lat="45.3401981" lon="11.663581"><ele>68.4</ele><time>2026-04-11T15:07:38.035Z</time></trkpt><trkpt lat="45.3402303" lon="11.6634441"><ele>67.80000000000001</ele><time>2026-04-11T15:07:39.036Z</time></trkpt><trkpt lat="45.3402577" lon="11.6633114"><ele>67.19999999999999</ele><time>2026-04-11T15:07:40.035Z</time></trkpt><trkpt lat="45.34029" lon="11.6631848"><ele>66.6</ele><time>2026-04-11T15:07:41.036Z</time></trkpt><trkpt lat="45.3403252" lon="11.6630533"><ele>66.0</ele><time>2026-04-11T15:07:42.035Z</time></trkpt><trkpt lat="45.3403555" lon="11.6629101"><ele>65.39999999999999</ele><time>2026-04-11T15:07:43.035Z</time></trkpt><trkpt lat="45.3403915" lon="11.6627748"><ele>64.8</ele><time>2026-04-11T15:07:44.034Z</time></trkpt><trkpt lat="45.340423" lon="11.6626378"><ele>64.19999999999999</ele><time>2026-04-11T15:07:45.035Z</time></trkpt><trkpt lat="45.34046" lon="11.662506"><ele>63.599999999999994</ele><time>2026-04-11T15:07:46.035Z</time></trkpt><trkpt lat="45.3404987" lon="11.6623683"><ele>63.0</ele><time>2026-04-11T15:07:47.034Z</time></trkpt><trkpt lat="45.3405683" lon="11.6622446"><ele>62.8</ele><time>2026-04-11T15:07:48.034Z</time></trkpt><trkpt lat="45.3406372" lon="11.6621271"><ele>62.599999999999994</ele><time>2026-04-11T15:07:49.033Z</time></trkpt><trkpt lat="45.3407122" lon="11.6620237"><ele>62.400000000000006</ele><time>2026-04-11T15:07:50.036Z</time></trkpt><trkpt lat="45.3407952" lon="11.661922"><ele>62.2</ele><time>2026-04-11T15:07:51.033Z</time></trkpt><trkpt lat="45.3408799" lon="11.6618217"><ele>62.0</ele><time>2026-04-11T15:07:52.036Z</time></trkpt><trkpt lat="45.3409639" lon="11.6617219"><ele>62.0</ele><time>2026-04-11T15:07:53.036Z</time></trkpt><trkpt lat="45.3410443" lon="11.6616177"><ele>62.0</ele><time>2026-04-11T15:07:54.035Z</time></trkpt><trkpt lat="45.3411256" lon="11.6615205"><ele>62.0</ele><time>2026-04-11T15:07:55.036Z</time></trkpt><trkpt lat="45.3411992" lon="11.6614038"><ele>62.0</ele><time>2026-04-11T15:07:56.034Z</time></trkpt><trkpt lat="45.3412713" lon="11.6612865"><ele>62.0</ele><time>2026-04-11T15:07:57.035Z</time></trkpt><trkpt lat="45.3413282" lon="11.6611579"><ele>61.8</ele><time>2026-04-11T15:07:58.034Z</time></trkpt><trkpt lat="45.341369" lon="11.6610267"><ele>61.6</ele><time>2026-04-11T15:07:59.035Z</time></trkpt><trkpt lat="45.341383" lon="11.660884"><ele>61.39999999999999</ele><time>2026-04-11T15:08:00.034Z</time></trkpt><trkpt lat="45.3413693" lon="11.6607344"><ele>61.199999999999996</ele><time>2026-04-11T15:08:01.036Z</time></trkpt><trkpt lat="45.3413336" lon="11.6605998"><ele>61.0</ele><time>2026-04-11T15:08:02.035Z</time></trkpt><trkpt lat="45.3412911" lon="11.6604728"><ele>60.4</ele><time>2026-04-11T15:08:03.034Z</time></trkpt><trkpt lat="45.341221" lon="11.6603597"><ele>59.8</ele><time>2026-04-11T15:08:04.035Z</time></trkpt><trkpt lat="45.3411563" lon="11.6602558"><ele>59.199999999999996</ele><time>2026-04-11T15:08:05.035Z</time></trkpt><trkpt lat="45.3410884" lon="11.6601425"><ele>58.599999999999994</ele><time>2026-04-11T15:08:06.036Z</time></trkpt><trkpt lat="45.3410203" lon="11.6600359"><ele>58.0</ele><time>2026-04-11T15:08:07.033Z</time></trkpt><trkpt lat="45.3409509" lon="11.6599368"><ele>58.0</ele><time>2026-04-11T15:08:08.035Z</time></trkpt><trkpt lat="45.3408781" lon="11.6598392"><ele>58.0</ele><time>2026-04-11T15:08:09.035Z</time></trkpt><trkpt lat="45.3408065" lon="11.6597433"><ele>58.0</ele><time>2026-04-11T15:08:10.034Z</time></trkpt><trkpt lat="45.3407333" lon="11.6596443"><ele>58.0</ele><time>2026-04-11T15:08:11.034Z</time></trkpt><trkpt lat="45.3406629" lon="11.6595482"><ele>58.0</ele><time>2026-04-11T15:08:12.035Z</time></trkpt><trkpt lat="45.3405938" lon="11.6594517"><ele>58.4</ele><time>2026-04-11T15:08:13.035Z</time></trkpt><trkpt lat="45.3405185" lon="11.6593542"><ele>58.8</ele><time>2026-04-11T15:08:14.036Z</time></trkpt><trkpt lat="45.340442" lon="11.6592615"><ele>59.2</ele><time>2026-04-11T15:08:15.033Z</time></trkpt><trkpt lat="45.3403711" lon="11.6591629"><ele>59.6</ele><time>2026-04-11T15:08:16.034Z</time></trkpt><trkpt lat="45.340299" lon="11.6590674"><ele>60.0</ele><time>2026-04-11T15:08:17.035Z</time></trkpt><trkpt lat="45.3402297" lon="11.6589744"><ele>60.0</ele><time>2026-04-11T15:08:18.035Z</time></trkpt><trkpt lat="45.3401635" lon="11.6588782"><ele>60.0</ele><time>2026-04-11T15:08:19.034Z</time></trkpt><trkpt lat="45.3400932" lon="11.6587797"><ele>60.0</ele><time>2026-04-11T15:08:20.035Z</time></trkpt><trkpt lat="45.3400201" lon="11.6586863"><ele>60.0</ele><time>2026-04-11T15:08:21.035Z</time></trkpt><trkpt lat="45.3399474" lon="11.6585895"><ele>60.0</ele><time>2026-04-11T15:08:22.034Z</time></trkpt><trkpt lat="45.339892" lon="11.6584841"><ele>60.6</ele><time>2026-04-11T15:08:23.034Z</time></trkpt><trkpt lat="45.3398477" lon="11.6583635"><ele>61.2</ele><time>2026-04-11T15:08:24.035Z</time></trkpt><trkpt lat="45.3398119" lon="11.6582367"><ele>61.8</ele><time>2026-04-11T15:08:25.034Z</time></trkpt><trkpt lat="45.3397812" lon="11.6581003"><ele>62.4</ele><time>2026-04-11T15:08:26.034Z</time></trkpt><trkpt lat="45.3397504" lon="11.6579631"><ele>63.0</ele><time>2026-04-11T15:08:27.035Z</time></trkpt><trkpt lat="45.3397185" lon="11.6578274"><ele>63.0</ele><time>2026-04-11T15:08:28.034Z</time></trkpt><trkpt lat="45.3396885" lon="11.6576878"><ele>63.0</ele><time>2026-04-11T15:08:29.036Z</time></trkpt><trkpt lat="45.339658" lon="11.6575471"><ele>63.0</ele><time>2026-04-11T15:08:30.034Z</time></trkpt><trkpt lat="45.3396289" lon="11.6574071"><ele>63.0</ele><time>2026-04-11T15:08:31.035Z</time></trkpt><trkpt lat="45.3396037" lon="11.6572595"><ele>63.0</ele><time>2026-04-11T15:08:32.034Z</time></trkpt><trkpt lat="45.3395749" lon="11.6571156"><ele>63.0</ele><time>2026-04-11T15:08:33.036Z</time></trkpt><trkpt lat="45.3395473" lon="11.6569715"><ele>63.0</ele><time>2026-04-11T15:08:34.035Z</time></trkpt><trkpt lat="45.3395173" lon="11.6568255"><ele>63.0</ele><time>2026-04-11T15:08:35.034Z</time></trkpt><trkpt lat="45.3394871" lon="11.6566803"><ele>63.0</ele><time>2026-04-11T15:08:36.035Z</time></trkpt><trkpt lat="45.3394543" lon="11.6565354"><ele>63.0</ele><time>2026-04-11T15:08:37.034Z</time></trkpt><trkpt lat="45.3394203" lon="11.6563976"><ele>61.599999999999994</ele><time>2026-04-11T15:08:38.036Z</time></trkpt><trkpt lat="45.3393887" lon="11.6562559"><ele>60.199999999999996</ele><time>2026-04-11T15:08:39.034Z</time></trkpt><trkpt lat="45.3393565" lon="11.6561146"><ele>58.8</ele><time>2026-04-11T15:08:40.036Z</time></trkpt><trkpt lat="45.33933" lon="11.6559741"><ele>57.4</ele><time>2026-04-11T15:08:41.035Z</time></trkpt><trkpt lat="45.3393053" lon="11.6558342"><ele>56.0</ele><time>2026-04-11T15:08:42.035Z</time></trkpt><trkpt lat="45.3392836" lon="11.6556953"><ele>55.4</ele><time>2026-04-11T15:08:43.035Z</time></trkpt><trkpt lat="45.3392622" lon="11.6555551"><ele>54.8</ele><time>2026-04-11T15:08:44.034Z</time></trkpt><trkpt lat="45.339246" lon="11.6554129"><ele>54.199999999999996</ele><time>2026-04-11T15:08:45.036Z</time></trkpt><trkpt lat="45.3392411" lon="11.6552688"><ele>53.599999999999994</ele><time>2026-04-11T15:08:46.036Z</time></trkpt><trkpt lat="45.3392382" lon="11.6551269"><ele>53.0</ele><time>2026-04-11T15:08:47.036Z</time></trkpt><trkpt lat="45.3392511" lon="11.6549847"><ele>53.0</ele><time>2026-04-11T15:08:48.034Z</time></trkpt><trkpt lat="45.3392734" lon="11.6548414"><ele>53.0</ele><time>2026-04-11T15:08:49.036Z</time></trkpt><trkpt lat="45.3393093" lon="11.6546968"><ele>53.0</ele><time>2026-04-11T15:08:50.036Z</time></trkpt><trkpt lat="45.3393472" lon="11.6545613"><ele>53.0</ele><time>2026-04-11T15:08:51.034Z</time></trkpt><trkpt lat="45.3393915" lon="11.6544184"><ele>53.0</ele><time>2026-04-11T15:08:52.036Z</time></trkpt><trkpt lat="45.3394408" lon="11.6542744"><ele>51.5</ele><time>2026-04-11T15:08:53.035Z</time></trkpt><trkpt lat="45.33949" lon="11.6541262"><ele>50.0</ele><time>2026-04-11T15:08:54.035Z</time></trkpt><trkpt lat="45.3395418" lon="11.6539828"><ele>48.5</ele><time>2026-04-11T15:08:55.035Z</time></trkpt><trkpt lat="45.339597" lon="11.6538344"><ele>47.0</ele><time>2026-04-11T15:08:56.035Z</time></trkpt><trkpt lat="45.3396506" lon="11.6536837"><ele>47.5</ele><time>2026-04-11T15:08:57.036Z</time></trkpt><trkpt lat="45.3396999" lon="11.6535353"><ele>48.0</ele><time>2026-04-11T15:08:58.034Z</time></trkpt><trkpt lat="45.3397538" lon="11.6533836"><ele>48.5</ele><time>2026-04-11T15:08:59.034Z</time></trkpt><trkpt lat="45.3398076" lon="11.6532282"><ele>49.0</ele><time>2026-04-11T15:09:00.035Z</time></trkpt><trkpt lat="45.3398608" lon="11.6530676"><ele>49.0</ele><time>2026-04-11T15:09:01.035Z</time></trkpt><trkpt lat="45.3399175" lon="11.6529049"><ele>49.0</ele><time>2026-04-11T15:09:02.036Z</time></trkpt><trkpt lat="45.3399771" lon="11.6527427"><ele>49.0</ele><time>2026-04-11T15:09:03.034Z</time></trkpt><trkpt lat="45.3400416" lon="11.652583"><ele>49.0</ele><time>2026-04-11T15:09:04.034Z</time></trkpt><trkpt lat="45.3401125" lon="11.6524308"><ele>46.75</ele><time>2026-04-11T15:09:05.035Z</time></trkpt><trkpt lat="45.3401909" lon="11.6522849"><ele>44.5</ele><time>2026-04-11T15:09:06.035Z</time></trkpt><trkpt lat="45.3402703" lon="11.6521447"><ele>42.25</ele><time>2026-04-11T15:09:07.034Z</time></trkpt><trkpt lat="45.3403545" lon="11.6520044"><ele>40.0</ele><time>2026-04-11T15:09:08.036Z</time></trkpt><trkpt lat="45.3404386" lon="11.6518693"><ele>40.0</ele><time>2026-04-11T15:09:09.034Z</time></trkpt><trkpt lat="45.3405224" lon="11.6517309"><ele>40.0</ele><time>2026-04-11T15:09:10.034Z</time></trkpt><trkpt lat="45.3405959" lon="11.6515755"><ele>40.0</ele><time>2026-04-11T15:09:11.036Z</time></trkpt><trkpt lat="45.3406606" lon="11.6514164"><ele>40.0</ele><time>2026-04-11T15:09:12.035Z</time></trkpt><trkpt lat="45.3407151" lon="11.6512506"><ele>38.25</ele><time>2026-04-11T15:09:13.036Z</time></trkpt><trkpt lat="45.340759" lon="11.6510737"><ele>36.5</ele><time>2026-04-11T15:09:14.035Z</time></trkpt><trkpt lat="45.34079" lon="11.6508917"><ele>34.75</ele><time>2026-04-11T15:09:15.035Z</time></trkpt><trkpt lat="45.3408159" lon="11.650707"><ele>33.0</ele><time>2026-04-11T15:09:16.036Z</time></trkpt><trkpt lat="45.3408442" lon="11.6505298"><ele>33.0</ele><time>2026-04-11T15:09:17.036Z</time></trkpt><trkpt lat="45.340875" lon="11.6503533"><ele>33.0</ele><time>2026-04-11T15:09:18.035Z</time></trkpt><trkpt lat="45.3409023" lon="11.6501801"><ele>33.0</ele><time>2026-04-11T15:09:19.034Z</time></trkpt><trkpt lat="45.3409202" lon="11.6500091"><ele>33.0</ele><time>2026-04-11T15:09:20.036Z</time></trkpt><trkpt lat="45.3409234" lon="11.6498465"><ele>32.666666666666664</ele><time>2026-04-11T15:09:21.035Z</time></trkpt><trkpt lat="45.3408994" lon="11.6497301"><ele>32.333333333333336</ele><time>2026-04-11T15:09:22.036Z</time></trkpt><trkpt lat="45.3408686" lon="11.6496232"><ele>32.0</ele><time>2026-04-11T15:09:23.036Z</time></trkpt><trkpt lat="45.3408114" lon="11.6495528"><ele>31.666666666666668</ele><time>2026-04-11T15:09:24.035Z</time></trkpt><trkpt lat="45.3407546" lon="11.6494894"><ele>31.333333333333336</ele><time>2026-04-11T15:09:25.036Z</time></trkpt><trkpt lat="45.3406909" lon="11.6494275"><ele>31.0</ele><time>2026-04-11T15:09:26.035Z</time></trkpt><trkpt lat="45.3406186" lon="11.6493645"><ele>32.4</ele><time>2026-04-11T15:09:27.036Z</time></trkpt><trkpt lat="45.3405473" lon="11.6492871"><ele>33.8</ele><time>2026-04-11T15:09:28.035Z</time></trkpt><trkpt lat="45.3404766" lon="11.649197"><ele>35.199999999999996</ele><time>2026-04-11T15:09:29.035Z</time></trkpt><trkpt lat="45.340404" lon="11.6491054"><ele>36.6</ele><time>2026-04-11T15:09:30.034Z</time></trkpt><trkpt lat="45.3403264" lon="11.6490046"><ele>38.0</ele><time>2026-04-11T15:09:31.035Z</time></trkpt><trkpt lat="45.340251" lon="11.6488994"><ele>38.0</ele><time>2026-04-11T15:09:32.036Z</time></trkpt><trkpt lat="45.3401666" lon="11.648791"><ele>38.0</ele><time>2026-04-11T15:09:33.034Z</time></trkpt><trkpt lat="45.3400803" lon="11.648677"><ele>38.0</ele><time>2026-04-11T15:09:34.035Z</time></trkpt><trkpt lat="45.3399926" lon="11.648564"><ele>38.0</ele><time>2026-04-11T15:09:35.034Z</time></trkpt><trkpt lat="45.3399005" lon="11.6484449"><ele>36.5</ele><time>2026-04-11T15:09:36.035Z</time></trkpt><trkpt lat="45.3398075" lon="11.6483242"><ele>35.0</ele><time>2026-04-11T15:09:37.036Z</time></trkpt><trkpt lat="45.3397184" lon="11.6482034"><ele>33.5</ele><time>2026-04-11T15:09:38.036Z</time></trkpt><trkpt lat="45.3396303" lon="11.6480812"><ele>32.0</ele><time>2026-04-11T15:09:39.034Z</time></trkpt><trkpt lat="45.3395377" lon="11.647967"><ele>32.0</ele><time>2026-04-11T15:09:40.036Z</time></trkpt><trkpt lat="45.3394484" lon="11.6478527"><ele>32.0</ele><time>2026-04-11T15:09:41.036Z</time></trkpt><trkpt lat="45.3393563" lon="11.6477345"><ele>32.0</ele><time>2026-04-11T15:09:42.034Z</time></trkpt><trkpt lat="45.3392669" lon="11.6476143"><ele>32.0</ele><time>2026-04-11T15:09:43.036Z</time></trkpt><trkpt lat="45.339176" lon="11.647493"><ele>30.5</ele><time>2026-04-11T15:09:44.035Z</time></trkpt><trkpt lat="45.3390822" lon="11.6473668"><ele>29.0</ele><time>2026-04-11T15:09:45.035Z</time></trkpt><trkpt lat="45.3389897" lon="11.6472362"><ele>27.5</ele><time>2026-04-11T15:09:46.036Z</time></trkpt><trkpt lat="45.3388973" lon="11.6471085"><ele>26.0</ele><time>2026-04-11T15:09:47.034Z</time></trkpt><trkpt lat="45.3387995" lon="11.6469795"><ele>25.75</ele><time>2026-04-11T15:09:48.035Z</time></trkpt><trkpt lat="45.3387007" lon="11.6468493"><ele>25.5</ele><time>2026-04-11T15:09:49.035Z</time></trkpt><trkpt lat="45.3386035" lon="11.6467187"><ele>25.25</ele><time>2026-04-11T15:09:50.035Z</time></trkpt><trkpt lat="45.3385043" lon="11.6465876"><ele>25.0</ele><time>2026-04-11T15:09:51.034Z</time></trkpt><trkpt lat="45.3384068" lon="11.6464502"><ele>25.0</ele><time>2026-04-11T15:09:52.036Z</time></trkpt><trkpt lat="45.3383097" lon="11.646322"><ele>25.0</ele><time>2026-04-11T15:09:53.035Z</time></trkpt><trkpt lat="45.3382104" lon="11.6461899"><ele>25.0</ele><time>2026-04-11T15:09:54.035Z</time></trkpt><trkpt lat="45.3381111" lon="11.6460587"><ele>25.0</ele><time>2026-04-11T15:09:55.035Z</time></trkpt><trkpt lat="45.3380141" lon="11.6459248"><ele>24.5</ele><time>2026-04-11T15:09:56.036Z</time></trkpt><trkpt lat="45.3379145" lon="11.6457906"><ele>24.0</ele><time>2026-04-11T15:09:57.034Z</time></trkpt><trkpt lat="45.3378207" lon="11.6456637"><ele>23.5</ele><time>2026-04-11T15:09:58.036Z</time></trkpt><trkpt lat="45.3377263" lon="11.6455301"><ele>23.0</ele><time>2026-04-11T15:09:59.035Z</time></trkpt><trkpt lat="45.3376264" lon="11.6454051"><ele>22.5</ele><time>2026-04-11T15:10:00.035Z</time></trkpt><trkpt lat="45.3375297" lon="11.6452825"><ele>22.0</ele><time>2026-04-11T15:10:01.034Z</time></trkpt><trkpt lat="45.3374325" lon="11.6451524"><ele>21.5</ele><time>2026-04-11T15:10:02.035Z</time></trkpt><trkpt lat="45.3373347" lon="11.6450269"><ele>21.0</ele><time>2026-04-11T15:10:03.034Z</time></trkpt><trkpt lat="45.3372394" lon="11.6448981"><ele>21.0</ele><time>2026-04-11T15:10:04.035Z</time></trkpt><trkpt lat="45.3371455" lon="11.6447719"><ele>21.0</ele><time>2026-04-11T15:10:05.036Z</time></trkpt><trkpt lat="45.3370515" lon="11.6446442"><ele>21.0</ele><time>2026-04-11T15:10:06.035Z</time></trkpt><trkpt lat="45.3369568" lon="11.6445202"><ele>21.0</ele><time>2026-04-11T15:10:07.034Z</time></trkpt><trkpt lat="45.3368608" lon="11.6443919"><ele>20.75</ele><time>2026-04-11T15:10:08.035Z</time></trkpt><trkpt lat="45.336765" lon="11.6442646"><ele>20.5</ele><time>2026-04-11T15:10:09.034Z</time></trkpt><trkpt lat="45.3366741" lon="11.6441408"><ele>20.25</ele><time>2026-04-11T15:10:10.036Z</time></trkpt><trkpt lat="45.3365833" lon="11.644015"><ele>20.0</ele><time>2026-04-11T15:10:11.034Z</time></trkpt><trkpt lat="45.3364858" lon="11.6438896"><ele>20.0</ele><time>2026-04-11T15:10:12.034Z</time></trkpt><trkpt lat="45.3363899" lon="11.6437617"><ele>20.0</ele><time>2026-04-11T15:10:13.035Z</time></trkpt><trkpt lat="45.3362909" lon="11.6436274"><ele>20.0</ele><time>2026-04-11T15:10:14.034Z</time></trkpt><trkpt lat="45.3361941" lon="11.6434891"><ele>20.0</ele><time>2026-04-11T15:10:15.035Z</time></trkpt><trkpt lat="45.3360961" lon="11.6433533"><ele>20.25</ele><time>2026-04-11T15:10:16.035Z</time></trkpt><trkpt lat="45.3359986" lon="11.6432195"><ele>20.5</ele><time>2026-04-11T15:10:17.034Z</time></trkpt><trkpt lat="45.3358981" lon="11.6430865"><ele>20.75</ele><time>2026-04-11T15:10:18.035Z</time></trkpt><trkpt lat="45.3357955" lon="11.6429492"><ele>21.0</ele><time>2026-04-11T15:10:19.036Z</time></trkpt><trkpt lat="45.3356942" lon="11.6428133"><ele>21.0</ele><time>2026-04-11T15:10:20.035Z</time></trkpt><trkpt lat="45.3355931" lon="11.6426741"><ele>21.0</ele><time>2026-04-11T15:10:21.035Z</time></trkpt><trkpt lat="45.3354895" lon="11.6425359"><ele>21.0</ele><time>2026-04-11T15:10:22.036Z</time></trkpt><trkpt lat="45.3353898" lon="11.6424045"><ele>21.0</ele><time>2026-04-11T15:10:23.034Z</time></trkpt><trkpt lat="45.3352898" lon="11.6422725"><ele>21.25</ele><time>2026-04-11T15:10:24.034Z</time></trkpt><trkpt lat="45.335192" lon="11.6421435"><ele>21.5</ele><time>2026-04-11T15:10:25.035Z</time></trkpt><trkpt lat="45.3350961" lon="11.6420204"><ele>21.75</ele><time>2026-04-11T15:10:26.034Z</time></trkpt><trkpt lat="45.3350046" lon="11.6418995"><ele>22.0</ele><time>2026-04-11T15:10:27.034Z</time></trkpt><trkpt lat="45.3349137" lon="11.6417802"><ele>22.0</ele><time>2026-04-11T15:10:28.035Z</time></trkpt><trkpt lat="45.3348298" lon="11.6416618"><ele>22.0</ele><time>2026-04-11T15:10:29.035Z</time></trkpt><trkpt lat="45.3347502" lon="11.6415496"><ele>22.0</ele><time>2026-04-11T15:10:30.035Z</time></trkpt><trkpt lat="45.3346766" lon="11.6414511"><ele>22.0</ele><time>2026-04-11T15:10:31.036Z</time></trkpt><trkpt lat="45.3346169" lon="11.6413685"><ele>22.0</ele><time>2026-04-11T15:10:32.035Z</time></trkpt><trkpt lat="45.3345723" lon="11.6412818"><ele>22.0</ele><time>2026-04-11T15:10:33.036Z</time></trkpt><trkpt lat="45.3345511" lon="11.6411912"><ele>22.0</ele><time>2026-04-11T15:10:34.034Z</time></trkpt><trkpt lat="45.3345742" lon="11.6410417"><ele>22.0</ele><time>2026-04-11T15:10:36.036Z</time></trkpt><trkpt lat="45.334622" lon="11.640894"><ele>22.0</ele><time>2026-04-11T15:10:38.035Z</time></trkpt><trkpt lat="45.3345871" lon="11.6407429"><ele>22.0</ele><time>2026-04-11T15:10:40.035Z</time></trkpt><trkpt lat="45.3344742" lon="11.6406922"><ele>21.833333333333332</ele><time>2026-04-11T15:10:42.036Z</time></trkpt><trkpt lat="45.3344123" lon="11.6407194"><ele>21.666666666666664</ele><time>2026-04-11T15:10:43.034Z</time></trkpt><trkpt lat="45.3343577" lon="11.6407838"><ele>21.5</ele><time>2026-04-11T15:10:44.035Z</time></trkpt><trkpt lat="45.3342999" lon="11.6408499"><ele>21.333333333333332</ele><time>2026-04-11T15:10:45.035Z</time></trkpt><trkpt lat="45.3342275" lon="11.6409075"><ele>21.166666666666668</ele><time>2026-04-11T15:10:46.034Z</time></trkpt><trkpt lat="45.3341468" lon="11.6409443"><ele>21.0</ele><time>2026-04-11T15:10:47.035Z</time></trkpt><trkpt lat="45.3340548" lon="11.6409673"><ele>21.0</ele><time>2026-04-11T15:10:48.035Z</time></trkpt><trkpt lat="45.3339465" lon="11.6409682"><ele>21.0</ele><time>2026-04-11T15:10:49.034Z</time></trkpt><trkpt lat="45.3338324" lon="11.6409753"><ele>21.0</ele><time>2026-04-11T15:10:50.035Z</time></trkpt><trkpt lat="45.3337226" lon="11.640982"><ele>21.0</ele><time>2026-04-11T15:10:51.036Z</time></trkpt><trkpt lat="45.333606" lon="11.6409881"><ele>21.0</ele><time>2026-04-11T15:10:52.034Z</time></trkpt><trkpt lat="45.3334858" lon="11.6409917"><ele>21.0</ele><time>2026-04-11T15:10:53.034Z</time></trkpt><trkpt lat="45.3333652" lon="11.6410011"><ele>21.0</ele><time>2026-04-11T15:10:54.035Z</time></trkpt><trkpt lat="45.3332445" lon="11.6410137"><ele>21.0</ele><time>2026-04-11T15:10:55.034Z</time></trkpt><trkpt lat="45.3331167" lon="11.6410201"><ele>21.0</ele><time>2026-04-11T15:10:56.036Z</time></trkpt><trkpt lat="45.3329912" lon="11.6410127"><ele>20.75</ele><time>2026-04-11T15:10:57.036Z</time></trkpt><trkpt lat="45.3328682" lon="11.6409848"><ele>20.5</ele><time>2026-04-11T15:10:58.035Z</time></trkpt><trkpt lat="45.3327445" lon="11.6409463"><ele>20.25</ele><time>2026-04-11T15:10:59.035Z</time></trkpt><trkpt lat="45.3326275" lon="11.6408941"><ele>20.0</ele><time>2026-04-11T15:11:00.035Z</time></trkpt><trkpt lat="45.3325057" lon="11.6408301"><ele>20.0</ele><time>2026-04-11T15:11:01.036Z</time></trkpt><trkpt lat="45.3323862" lon="11.6407593"><ele>20.0</ele><time>2026-04-11T15:11:02.034Z</time></trkpt><trkpt lat="45.3322668" lon="11.6406929"><ele>20.0</ele><time>2026-04-11T15:11:03.035Z</time></trkpt><trkpt lat="45.3321453" lon="11.6406311"><ele>20.0</ele><time>2026-04-11T15:11:04.035Z</time></trkpt><trkpt lat="45.3320236" lon="11.6405794"><ele>20.0</ele><time>2026-04-11T15:11:05.035Z</time></trkpt><trkpt lat="45.3318992" lon="11.6405453"><ele>20.0</ele><time>2026-04-11T15:11:06.035Z</time></trkpt><trkpt lat="45.3317733" lon="11.6405213"><ele>20.0</ele><time>2026-04-11T15:11:07.035Z</time></trkpt><trkpt lat="45.3316523" lon="11.640509"><ele>20.0</ele><time>2026-04-11T15:11:08.036Z</time></trkpt><trkpt lat="45.3315339" lon="11.6405087"><ele>20.0</ele><time>2026-04-11T15:11:09.036Z</time></trkpt><trkpt lat="45.3314128" lon="11.6405215"><ele>20.0</ele><time>2026-04-11T15:11:10.036Z</time></trkpt><trkpt lat="45.3312907" lon="11.640539"><ele>20.0</ele><time>2026-04-11T15:11:11.036Z</time></trkpt><trkpt lat="45.3311667" lon="11.6405651"><ele>20.0</ele><time>2026-04-11T15:11:12.034Z</time></trkpt><trkpt lat="45.3310384" lon="11.6405941"><ele>20.5</ele><time>2026-04-11T15:11:13.035Z</time></trkpt><trkpt lat="45.3309097" lon="11.6406093"><ele>21.0</ele><time>2026-04-11T15:11:14.037Z</time></trkpt><trkpt lat="45.3307839" lon="11.6406303"><ele>21.5</ele><time>2026-04-11T15:11:15.034Z</time></trkpt><trkpt lat="45.3306516" lon="11.6406429"><ele>22.0</ele><time>2026-04-11T15:11:16.036Z</time></trkpt><trkpt lat="45.3305155" lon="11.6406372"><ele>22.0</ele><time>2026-04-11T15:11:17.034Z</time></trkpt><trkpt lat="45.3303863" lon="11.6406259"><ele>22.0</ele><time>2026-04-11T15:11:18.035Z</time></trkpt><trkpt lat="45.3302703" lon="11.6405793"><ele>22.0</ele><time>2026-04-11T15:11:19.036Z</time></trkpt><trkpt lat="45.3301492" lon="11.6405314"><ele>22.0</ele><time>2026-04-11T15:11:20.036Z</time></trkpt><trkpt lat="45.3300394" lon="11.6404615"><ele>22.0</ele><time>2026-04-11T15:11:21.034Z</time></trkpt><trkpt lat="45.3299304" lon="11.640401"><ele>22.0</ele><time>2026-04-11T15:11:22.036Z</time></trkpt><trkpt lat="45.3298255" lon="11.6403324"><ele>22.0</ele><time>2026-04-11T15:11:23.035Z</time></trkpt><trkpt lat="45.329719" lon="11.640262"><ele>22.0</ele><time>2026-04-11T15:11:24.036Z</time></trkpt><trkpt lat="45.329617" lon="11.6402008"><ele>21.6</ele><time>2026-04-11T15:11:25.035Z</time></trkpt><trkpt lat="45.329521" lon="11.640139"><ele>21.200000000000003</ele><time>2026-04-11T15:11:26.035Z</time></trkpt><trkpt lat="45.3294291" lon="11.6400805"><ele>20.8</ele><time>2026-04-11T15:11:27.035Z</time></trkpt><trkpt lat="45.3293328" lon="11.6400214"><ele>20.4</ele><time>2026-04-11T15:11:28.037Z</time></trkpt><trkpt lat="45.3292405" lon="11.6399554"><ele>20.0</ele><time>2026-04-11T15:11:29.035Z</time></trkpt><trkpt lat="45.3291535" lon="11.6398792"><ele>20.0</ele><time>2026-04-11T15:11:30.034Z</time></trkpt><trkpt lat="45.3290713" lon="11.6398094"><ele>20.0</ele><time>2026-04-11T15:11:31.034Z</time></trkpt><trkpt lat="45.3289797" lon="11.6397471"><ele>20.0</ele><time>2026-04-11T15:11:32.035Z</time></trkpt><trkpt lat="45.3288916" lon="11.6396866"><ele>20.0</ele><time>2026-04-11T15:11:33.035Z</time></trkpt><trkpt lat="45.328805" lon="11.63962"><ele>20.0</ele><time>2026-04-11T15:11:34.035Z</time></trkpt><trkpt lat="45.3287134" lon="11.639549"><ele>19.75</ele><time>2026-04-11T15:11:35.037Z</time></trkpt><trkpt lat="45.3286201" lon="11.6394783"><ele>19.5</ele><time>2026-04-11T15:11:36.034Z</time></trkpt><trkpt lat="45.3285194" lon="11.639401"><ele>19.25</ele><time>2026-04-11T15:11:37.034Z</time></trkpt><trkpt lat="45.3284151" lon="11.6393231"><ele>19.0</ele><time>2026-04-11T15:11:38.035Z</time></trkpt><trkpt lat="45.328309" lon="11.6392401"><ele>18.75</ele><time>2026-04-11T15:11:39.036Z</time></trkpt><trkpt lat="45.3282019" lon="11.6391662"><ele>18.5</ele><time>2026-04-11T15:11:40.035Z</time></trkpt><trkpt lat="45.3280926" lon="11.6390892"><ele>18.25</ele><time>2026-04-11T15:11:41.035Z</time></trkpt><trkpt lat="45.3279739" lon="11.6390054"><ele>18.0</ele><time>2026-04-11T15:11:42.034Z</time></trkpt><trkpt lat="45.32785" lon="11.63892"><ele>17.666666666666668</ele><time>2026-04-11T15:11:43.036Z</time></trkpt><trkpt lat="45.3277184" lon="11.6388278"><ele>17.333333333333336</ele><time>2026-04-11T15:11:44.034Z</time></trkpt><trkpt lat="45.3275781" lon="11.6387318"><ele>17.0</ele><time>2026-04-11T15:11:45.034Z</time></trkpt><trkpt lat="45.3274345" lon="11.6386304"><ele>17.0</ele><time>2026-04-11T15:11:46.036Z</time></trkpt><trkpt lat="45.3272856" lon="11.6385277"><ele>17.0</ele><time>2026-04-11T15:11:47.037Z</time></trkpt><trkpt lat="45.3271267" lon="11.6384201"><ele>17.0</ele><time>2026-04-11T15:11:48.035Z</time></trkpt><trkpt lat="45.3269699" lon="11.6383186"><ele>16.333333333333336</ele><time>2026-04-11T15:11:49.036Z</time></trkpt><trkpt lat="45.3268203" lon="11.6382262"><ele>15.666666666666668</ele><time>2026-04-11T15:11:50.037Z</time></trkpt><trkpt lat="45.3266817" lon="11.6381523"><ele>15.0</ele><time>2026-04-11T15:11:51.035Z</time></trkpt><trkpt lat="45.326549" lon="11.6380869"><ele>15.0</ele><time>2026-04-11T15:11:52.035Z</time></trkpt><trkpt lat="45.326415" lon="11.6380411"><ele>15.0</ele><time>2026-04-11T15:11:53.035Z</time></trkpt><trkpt lat="45.3262908" lon="11.6380002"><ele>15.0</ele><time>2026-04-11T15:11:54.036Z</time></trkpt><trkpt lat="45.326162" lon="11.6379531"><ele>15.0</ele><time>2026-04-11T15:11:55.034Z</time></trkpt><trkpt lat="45.3260331" lon="11.6379121"><ele>15.0</ele><time>2026-04-11T15:11:56.035Z</time></trkpt><trkpt lat="45.3258932" lon="11.6378815"><ele>15.0</ele><time>2026-04-11T15:11:57.036Z</time></trkpt><trkpt lat="45.3257534" lon="11.6378412"><ele>15.0</ele><time>2026-04-11T15:11:58.035Z</time></trkpt><trkpt lat="45.3256134" lon="11.6378073"><ele>15.0</ele><time>2026-04-11T15:11:59.035Z</time></trkpt><trkpt lat="45.3254659" lon="11.6377806"><ele>15.333333333333332</ele><time>2026-04-11T15:12:00.036Z</time></trkpt><trkpt lat="45.3253155" lon="11.6377611"><ele>15.666666666666666</ele><time>2026-04-11T15:12:01.035Z</time></trkpt><trkpt lat="45.3251604" lon="11.6377581"><ele>16.0</ele><time>2026-04-11T15:12:02.035Z</time></trkpt><trkpt lat="45.3250046" lon="11.6377649"><ele>16.0</ele><time>2026-04-11T15:12:03.036Z</time></trkpt><trkpt lat="45.3248475" lon="11.6377781"><ele>16.0</ele><time>2026-04-11T15:12:04.034Z</time></trkpt><trkpt lat="45.3246894" lon="11.6377975"><ele>16.0</ele><time>2026-04-11T15:12:05.034Z</time></trkpt><trkpt lat="45.3245299" lon="11.6378166"><ele>15.666666666666666</ele><time>2026-04-11T15:12:06.035Z</time></trkpt><trkpt lat="45.3243691" lon="11.6378302"><ele>15.333333333333332</ele><time>2026-04-11T15:12:07.035Z</time></trkpt><trkpt lat="45.3242115" lon="11.637847"><ele>15.0</ele><time>2026-04-11T15:12:08.035Z</time></trkpt><trkpt lat="45.3240632" lon="11.6378644"><ele>15.0</ele><time>2026-04-11T15:12:09.035Z</time></trkpt><trkpt lat="45.3239201" lon="11.6378846"><ele>15.0</ele><time>2026-04-11T15:12:10.037Z</time></trkpt><trkpt lat="45.3237891" lon="11.6379057"><ele>15.0</ele><time>2026-04-11T15:12:11.037Z</time></trkpt><trkpt lat="45.3236636" lon="11.6379234"><ele>15.0</ele><time>2026-04-11T15:12:12.036Z</time></trkpt><trkpt lat="45.3235468" lon="11.6379369"><ele>15.2</ele><time>2026-04-11T15:12:13.034Z</time></trkpt><trkpt lat="45.3234379" lon="11.6379344"><ele>15.4</ele><time>2026-04-11T15:12:14.037Z</time></trkpt><trkpt lat="45.3233461" lon="11.6379061"><ele>15.600000000000001</ele><time>2026-04-11T15:12:15.035Z</time></trkpt><trkpt lat="45.3232659" lon="11.6378555"><ele>15.8</ele><time>2026-04-11T15:12:16.035Z</time></trkpt><trkpt lat="45.3231825" lon="11.637816"><ele>16.0</ele><time>2026-04-11T15:12:17.035Z</time></trkpt><trkpt lat="45.3230935" lon="11.6378061"><ele>16.400000000000002</ele><time>2026-04-11T15:12:18.035Z</time></trkpt><trkpt lat="45.3230004" lon="11.6378003"><ele>16.8</ele><time>2026-04-11T15:12:19.035Z</time></trkpt><trkpt lat="45.3229021" lon="11.6377885"><ele>17.200000000000003</ele><time>2026-04-11T15:12:20.035Z</time></trkpt><trkpt lat="45.3227963" lon="11.6377538"><ele>17.6</ele><time>2026-04-11T15:12:21.034Z</time></trkpt><trkpt lat="45.3226834" lon="11.6377209"><ele>18.0</ele><time>2026-04-11T15:12:22.035Z</time></trkpt><trkpt lat="45.322556" lon="11.6376897"><ele>18.0</ele><time>2026-04-11T15:12:23.036Z</time></trkpt><trkpt lat="45.3224201" lon="11.6376567"><ele>18.0</ele><time>2026-04-11T15:12:24.035Z</time></trkpt><trkpt lat="45.3222756" lon="11.6376254"><ele>18.0</ele><time>2026-04-11T15:12:25.036Z</time></trkpt><trkpt lat="45.3221278" lon="11.6376092"><ele>18.0</ele><time>2026-04-11T15:12:26.035Z</time></trkpt><trkpt lat="45.3219833" lon="11.6376233"><ele>17.75</ele><time>2026-04-11T15:12:27.035Z</time></trkpt><trkpt lat="45.3218402" lon="11.6376679"><ele>17.5</ele><time>2026-04-11T15:12:28.036Z</time></trkpt><trkpt lat="45.3216966" lon="11.6377292"><ele>17.25</ele><time>2026-04-11T15:12:29.035Z</time></trkpt><trkpt lat="45.3215601" lon="11.6378144"><ele>17.0</ele><time>2026-04-11T15:12:30.037Z</time></trkpt><trkpt lat="45.3214231" lon="11.6379197"><ele>16.333333333333336</ele><time>2026-04-11T15:12:31.035Z</time></trkpt><trkpt lat="45.3212955" lon="11.6380446"><ele>15.666666666666668</ele><time>2026-04-11T15:12:32.035Z</time></trkpt><trkpt lat="45.3211695" lon="11.6381875"><ele>15.0</ele><time>2026-04-11T15:12:33.034Z</time></trkpt><trkpt lat="45.3210463" lon="11.6383417"><ele>15.0</ele><time>2026-04-11T15:12:34.037Z</time></trkpt><trkpt lat="45.3209225" lon="11.6384892"><ele>15.0</ele><time>2026-04-11T15:12:35.036Z</time></trkpt><trkpt lat="45.3207902" lon="11.6386281"><ele>15.0</ele><time>2026-04-11T15:12:36.036Z</time></trkpt><trkpt lat="45.3206438" lon="11.6387497"><ele>15.666666666666668</ele><time>2026-04-11T15:12:37.035Z</time></trkpt><trkpt lat="45.3204895" lon="11.6388544"><ele>16.333333333333336</ele><time>2026-04-11T15:12:38.037Z</time></trkpt><trkpt lat="45.3203244" lon="11.6389332"><ele>17.0</ele><time>2026-04-11T15:12:39.035Z</time></trkpt><trkpt lat="45.3201527" lon="11.6390047"><ele>17.0</ele><time>2026-04-11T15:12:40.034Z</time></trkpt><trkpt lat="45.3199782" lon="11.6390704"><ele>17.0</ele><time>2026-04-11T15:12:41.035Z</time></trkpt><trkpt lat="45.3198083" lon="11.6391328"><ele>17.0</ele><time>2026-04-11T15:12:42.036Z</time></trkpt><trkpt lat="45.3196403" lon="11.6391972"><ele>17.0</ele><time>2026-04-11T15:12:43.037Z</time></trkpt><trkpt lat="45.3194773" lon="11.6392504"><ele>17.0</ele><time>2026-04-11T15:12:44.037Z</time></trkpt><trkpt lat="45.319316" lon="11.639311"><ele>17.0</ele><time>2026-04-11T15:12:45.035Z</time></trkpt><trkpt lat="45.3191516" lon="11.6393691"><ele>17.0</ele><time>2026-04-11T15:12:46.036Z</time></trkpt><trkpt lat="45.318992" lon="11.639435"><ele>17.0</ele><time>2026-04-11T15:12:47.035Z</time></trkpt><trkpt lat="45.3188305" lon="11.6394973"><ele>17.0</ele><time>2026-04-11T15:12:48.036Z</time></trkpt><trkpt lat="45.3186691" lon="11.6395593"><ele>17.0</ele><time>2026-04-11T15:12:49.036Z</time></trkpt><trkpt lat="45.3185098" lon="11.6396171"><ele>17.0</ele><time>2026-04-11T15:12:50.035Z</time></trkpt><trkpt lat="45.3183473" lon="11.639676"><ele>17.0</ele><time>2026-04-11T15:12:51.036Z</time></trkpt><trkpt lat="45.318187" lon="11.6397318"><ele>18.0</ele><time>2026-04-11T15:12:52.034Z</time></trkpt><trkpt lat="45.3180317" lon="11.6397881"><ele>19.0</ele><time>2026-04-11T15:12:53.036Z</time></trkpt><trkpt lat="45.3178755" lon="11.6398288"><ele>20.0</ele><time>2026-04-11T15:12:54.035Z</time></trkpt><trkpt lat="45.3177204" lon="11.6398513"><ele>20.0</ele><time>2026-04-11T15:12:55.035Z</time></trkpt><trkpt lat="45.3175629" lon="11.6398472"><ele>20.0</ele><time>2026-04-11T15:12:56.035Z</time></trkpt><trkpt lat="45.3174092" lon="11.6398235"><ele>20.0</ele><time>2026-04-11T15:12:57.036Z</time></trkpt><trkpt lat="45.3172583" lon="11.639777"><ele>19.666666666666668</ele><time>2026-04-11T15:12:58.034Z</time></trkpt><trkpt lat="45.3171114" lon="11.6397257"><ele>19.333333333333332</ele><time>2026-04-11T15:12:59.035Z</time></trkpt><trkpt lat="45.316963" lon="11.6396695"><ele>19.0</ele><time>2026-04-11T15:13:00.036Z</time></trkpt><trkpt lat="45.3168134" lon="11.63961"><ele>19.0</ele><time>2026-04-11T15:13:01.035Z</time></trkpt><trkpt lat="45.3166643" lon="11.639552"><ele>19.0</ele><time>2026-04-11T15:13:02.036Z</time></trkpt><trkpt lat="45.3165153" lon="11.6394935"><ele>19.0</ele><time>2026-04-11T15:13:03.036Z</time></trkpt><trkpt lat="45.3163675" lon="11.6394346"><ele>18.0</ele><time>2026-04-11T15:13:04.034Z</time></trkpt><trkpt lat="45.3162217" lon="11.6393784"><ele>17.0</ele><time>2026-04-11T15:13:05.035Z</time></trkpt><trkpt lat="45.3160749" lon="11.6393246"><ele>16.0</ele><time>2026-04-11T15:13:06.035Z</time></trkpt><trkpt lat="45.3159289" lon="11.6392639"><ele>16.0</ele><time>2026-04-11T15:13:07.034Z</time></trkpt><trkpt lat="45.3157823" lon="11.6392076"><ele>16.0</ele><time>2026-04-11T15:13:08.037Z</time></trkpt><trkpt lat="45.3156352" lon="11.639155"><ele>16.0</ele><time>2026-04-11T15:13:09.036Z</time></trkpt><trkpt lat="45.315485" lon="11.6391123"><ele>16.666666666666664</ele><time>2026-04-11T15:13:10.034Z</time></trkpt><trkpt lat="45.3153307" lon="11.6390798"><ele>17.333333333333332</ele><time>2026-04-11T15:13:11.036Z</time></trkpt><trkpt lat="45.3151753" lon="11.6390587"><ele>18.0</ele><time>2026-04-11T15:13:12.034Z</time></trkpt><trkpt lat="45.3150211" lon="11.6390379"><ele>18.0</ele><time>2026-04-11T15:13:13.036Z</time></trkpt><trkpt lat="45.3148665" lon="11.6390182"><ele>18.0</ele><time>2026-04-11T15:13:14.036Z</time></trkpt><trkpt lat="45.3147152" lon="11.6389945"><ele>18.0</ele><time>2026-04-11T15:13:15.035Z</time></trkpt><trkpt lat="45.3145598" lon="11.6389758"><ele>18.0</ele><time>2026-04-11T15:13:16.036Z</time></trkpt><trkpt lat="45.3144077" lon="11.6389605"><ele>18.0</ele><time>2026-04-11T15:13:17.036Z</time></trkpt><trkpt lat="45.3142522" lon="11.6389448"><ele>18.0</ele><time>2026-04-11T15:13:18.035Z</time></trkpt><trkpt lat="45.314099" lon="11.638929"><ele>18.0</ele><time>2026-04-11T15:13:19.035Z</time></trkpt><trkpt lat="45.3139464" lon="11.6389074"><ele>18.0</ele><time>2026-04-11T15:13:20.036Z</time></trkpt><trkpt lat="45.3137916" lon="11.6388885"><ele>18.0</ele><time>2026-04-11T15:13:21.035Z</time></trkpt><trkpt lat="45.3136404" lon="11.6388726"><ele>18.0</ele><time>2026-04-11T15:13:22.037Z</time></trkpt><trkpt lat="45.3134887" lon="11.638853"><ele>18.0</ele><time>2026-04-11T15:13:23.035Z</time></trkpt><trkpt lat="45.3133361" lon="11.638835"><ele>18.0</ele><time>2026-04-11T15:13:24.036Z</time></trkpt><trkpt lat="45.313191" lon="11.6388075"><ele>18.0</ele><time>2026-04-11T15:13:25.035Z</time></trkpt><trkpt lat="45.3130424" lon="11.638789"><ele>18.0</ele><time>2026-04-11T15:13:26.036Z</time></trkpt><trkpt lat="45.3128947" lon="11.6387633"><ele>18.0</ele><time>2026-04-11T15:13:27.035Z</time></trkpt><trkpt lat="45.3127462" lon="11.6387469"><ele>18.0</ele><time>2026-04-11T15:13:28.035Z</time></trkpt><trkpt lat="45.3126013" lon="11.638728"><ele>18.0</ele><time>2026-04-11T15:13:29.035Z</time></trkpt><trkpt lat="45.3124591" lon="11.6387077"><ele>18.0</ele><time>2026-04-11T15:13:30.036Z</time></trkpt><trkpt lat="45.3123125" lon="11.6386961"><ele>18.0</ele><time>2026-04-11T15:13:31.036Z</time></trkpt><trkpt lat="45.3121685" lon="11.6386895"><ele>18.0</ele><time>2026-04-11T15:13:32.035Z</time></trkpt><trkpt lat="45.312028" lon="11.6386876"><ele>17.75</ele><time>2026-04-11T15:13:33.035Z</time></trkpt><trkpt lat="45.3118879" lon="11.6386941"><ele>17.5</ele><time>2026-04-11T15:13:34.037Z</time></trkpt><trkpt lat="45.3117483" lon="11.6387056"><ele>17.25</ele><time>2026-04-11T15:13:35.036Z</time></trkpt><trkpt lat="45.3116069" lon="11.6387186"><ele>17.0</ele><time>2026-04-11T15:13:36.035Z</time></trkpt><trkpt lat="45.311471" lon="11.638738"><ele>16.75</ele><time>2026-04-11T15:13:37.035Z</time></trkpt><trkpt lat="45.3113258" lon="11.63876"><ele>16.5</ele><time>2026-04-11T15:13:38.036Z</time></trkpt><trkpt lat="45.3111834" lon="11.638781"><ele>16.25</ele><time>2026-04-11T15:13:39.035Z</time></trkpt><trkpt lat="45.3110415" lon="11.6388018"><ele>16.0</ele><time>2026-04-11T15:13:40.036Z</time></trkpt><trkpt lat="45.3109023" lon="11.6388198"><ele>16.0</ele><time>2026-04-11T15:13:41.035Z</time></trkpt><trkpt lat="45.310764" lon="11.6388335"><ele>16.0</ele><time>2026-04-11T15:13:42.037Z</time></trkpt><trkpt lat="45.3106259" lon="11.6388456"><ele>16.0</ele><time>2026-04-11T15:13:43.034Z</time></trkpt><trkpt lat="45.3104892" lon="11.6388617"><ele>16.0</ele><time>2026-04-11T15:13:44.036Z</time></trkpt><trkpt lat="45.3103513" lon="11.6388814"><ele>15.75</ele><time>2026-04-11T15:13:45.035Z</time></trkpt><trkpt lat="45.3102171" lon="11.6388913"><ele>15.5</ele><time>2026-04-11T15:13:46.036Z</time></trkpt><trkpt lat="45.3100818" lon="11.6389106"><ele>15.25</ele><time>2026-04-11T15:13:47.037Z</time></trkpt><trkpt lat="45.3099457" lon="11.6389296"><ele>15.0</ele><time>2026-04-11T15:13:48.035Z</time></trkpt><trkpt lat="45.3098076" lon="11.6389481"><ele>15.0</ele><time>2026-04-11T15:13:49.035Z</time></trkpt><trkpt lat="45.3096731" lon="11.6389652"><ele>15.0</ele><time>2026-04-11T15:13:50.036Z</time></trkpt><trkpt lat="45.309539" lon="11.6389683"><ele>15.0</ele><time>2026-04-11T15:13:51.035Z</time></trkpt><trkpt lat="45.3094095" lon="11.6389838"><ele>15.0</ele><time>2026-04-11T15:13:52.036Z</time></trkpt><trkpt lat="45.309278" lon="11.6390051"><ele>15.0</ele><time>2026-04-11T15:13:53.036Z</time></trkpt><trkpt lat="45.309147" lon="11.6390255"><ele>15.0</ele><time>2026-04-11T15:13:54.036Z</time></trkpt><trkpt lat="45.3090177" lon="11.6390474"><ele>15.0</ele><time>2026-04-11T15:13:55.036Z</time></trkpt><trkpt lat="45.3088899" lon="11.6390718"><ele>15.0</ele><time>2026-04-11T15:13:56.035Z</time></trkpt><trkpt lat="45.30876" lon="11.6391148"><ele>15.0</ele><time>2026-04-11T15:13:57.036Z</time></trkpt><trkpt lat="45.3086336" lon="11.6391648"><ele>15.0</ele><time>2026-04-11T15:13:58.035Z</time></trkpt><trkpt lat="45.3085086" lon="11.6392309"><ele>15.0</ele><time>2026-04-11T15:13:59.036Z</time></trkpt><trkpt lat="45.3083837" lon="11.6392977"><ele>15.0</ele><time>2026-04-11T15:14:00.035Z</time></trkpt><trkpt lat="45.3082623" lon="11.6393667"><ele>15.0</ele><time>2026-04-11T15:14:01.034Z</time></trkpt><trkpt lat="45.3081392" lon="11.6394352"><ele>15.0</ele><time>2026-04-11T15:14:02.035Z</time></trkpt><trkpt lat="45.3080167" lon="11.6394986"><ele>15.0</ele><time>2026-04-11T15:14:03.035Z</time></trkpt><trkpt lat="45.3078915" lon="11.6395425"><ele>15.0</ele><time>2026-04-11T15:14:04.036Z</time></trkpt><trkpt lat="45.3077657" lon="11.6395743"><ele>15.25</ele><time>2026-04-11T15:14:05.036Z</time></trkpt><trkpt lat="45.307644" lon="11.6395908"><ele>15.5</ele><time>2026-04-11T15:14:06.035Z</time></trkpt><trkpt lat="45.3075132" lon="11.6395941"><ele>15.75</ele><time>2026-04-11T15:14:07.036Z</time></trkpt><trkpt lat="45.307382" lon="11.6395759"><ele>16.0</ele><time>2026-04-11T15:14:08.035Z</time></trkpt><trkpt lat="45.3072497" lon="11.639553"><ele>15.5</ele><time>2026-04-11T15:14:09.035Z</time></trkpt><trkpt lat="45.3071265" lon="11.6395253"><ele>15.0</ele><time>2026-04-11T15:14:10.036Z</time></trkpt><trkpt lat="45.3069956" lon="11.6394952"><ele>14.5</ele><time>2026-04-11T15:14:11.036Z</time></trkpt><trkpt lat="45.3068662" lon="11.6394656"><ele>14.0</ele><time>2026-04-11T15:14:12.035Z</time></trkpt><trkpt lat="45.3067341" lon="11.6394418"><ele>13.75</ele><time>2026-04-11T15:14:13.037Z</time></trkpt><trkpt lat="45.3066025" lon="11.6394089"><ele>13.5</ele><time>2026-04-11T15:14:14.035Z</time></trkpt><trkpt lat="45.3064705" lon="11.6393653"><ele>13.25</ele><time>2026-04-11T15:14:15.035Z</time></trkpt><trkpt lat="45.3063439" lon="11.6393062"><ele>13.0</ele><time>2026-04-11T15:14:16.037Z</time></trkpt><trkpt lat="45.3062164" lon="11.6392471"><ele>12.75</ele><time>2026-04-11T15:14:17.036Z</time></trkpt><trkpt lat="45.3060905" lon="11.6391822"><ele>12.5</ele><time>2026-04-11T15:14:18.036Z</time></trkpt><trkpt lat="45.3059681" lon="11.6391161"><ele>12.25</ele><time>2026-04-11T15:14:19.035Z</time></trkpt><trkpt lat="45.3058426" lon="11.639049"><ele>12.0</ele><time>2026-04-11T15:14:20.035Z</time></trkpt><trkpt lat="45.3057166" lon="11.6389985"><ele>12.0</ele><time>2026-04-11T15:14:21.035Z</time></trkpt><trkpt lat="45.3055911" lon="11.6389458"><ele>12.0</ele><time>2026-04-11T15:14:22.035Z</time></trkpt><trkpt lat="45.3054683" lon="11.6388832"><ele>12.0</ele><time>2026-04-11T15:14:23.034Z</time></trkpt><trkpt lat="45.3053443" lon="11.638817"><ele>12.0</ele><time>2026-04-11T15:14:24.034Z</time></trkpt><trkpt lat="45.3052221" lon="11.6387533"><ele>12.25</ele><time>2026-04-11T15:14:25.036Z</time></trkpt><trkpt lat="45.3050979" lon="11.6386919"><ele>12.5</ele><time>2026-04-11T15:14:26.036Z</time></trkpt><trkpt lat="45.3049734" lon="11.6386331"><ele>12.75</ele><time>2026-04-11T15:14:27.037Z</time></trkpt><trkpt lat="45.3048394" lon="11.6386003"><ele>13.0</ele><time>2026-04-11T15:14:28.036Z</time></trkpt><trkpt lat="45.304704" lon="11.6385752"><ele>13.0</ele><time>2026-04-11T15:14:29.037Z</time></trkpt><trkpt lat="45.3045697" lon="11.6385651"><ele>13.0</ele><time>2026-04-11T15:14:30.034Z</time></trkpt><trkpt lat="45.3043013" lon="11.638558"><ele>13.0</ele><time>2026-04-11T15:14:32.036Z</time></trkpt><trkpt lat="45.3041692" lon="11.6385537"><ele>13.0</ele><time>2026-04-11T15:14:33.035Z</time></trkpt><trkpt lat="45.3040363" lon="11.638568"><ele>13.0</ele><time>2026-04-11T15:14:34.036Z</time></trkpt><trkpt lat="45.303903" lon="11.6385884"><ele>13.0</ele><time>2026-04-11T15:14:35.034Z</time></trkpt><trkpt lat="45.30377" lon="11.6386055"><ele>13.0</ele><time>2026-04-11T15:14:36.035Z</time></trkpt><trkpt lat="45.3036372" lon="11.638629"><ele>14.25</ele><time>2026-04-11T15:14:37.034Z</time></trkpt><trkpt lat="45.3035061" lon="11.6386509"><ele>15.5</ele><time>2026-04-11T15:14:38.036Z</time></trkpt><trkpt lat="45.3033771" lon="11.6386738"><ele>16.75</ele><time>2026-04-11T15:14:39.035Z</time></trkpt><trkpt lat="45.3032405" lon="11.6386988"><ele>18.0</ele><time>2026-04-11T15:14:40.036Z</time></trkpt><trkpt lat="45.3031135" lon="11.6387172"><ele>19.75</ele><time>2026-04-11T15:14:41.035Z</time></trkpt><trkpt lat="45.302988" lon="11.6387376"><ele>21.5</ele><time>2026-04-11T15:14:42.036Z</time></trkpt><trkpt lat="45.3028581" lon="11.6387586"><ele>23.25</ele><time>2026-04-11T15:14:43.034Z</time></trkpt><trkpt lat="45.3027353" lon="11.6387795"><ele>25.0</ele><time>2026-04-11T15:14:44.037Z</time></trkpt><trkpt lat="45.302599" lon="11.6388042"><ele>25.0</ele><time>2026-04-11T15:14:45.037Z</time></trkpt><trkpt lat="45.3024523" lon="11.6388313"><ele>25.0</ele><time>2026-04-11T15:14:46.035Z</time></trkpt><trkpt lat="45.3023064" lon="11.6388537"><ele>25.0</ele><time>2026-04-11T15:14:47.036Z</time></trkpt><trkpt lat="45.3021556" lon="11.6388774"><ele>25.0</ele><time>2026-04-11T15:14:48.036Z</time></trkpt><trkpt lat="45.3020003" lon="11.6389104"><ele>24.333333333333336</ele><time>2026-04-11T15:14:49.035Z</time></trkpt><trkpt lat="45.301843" lon="11.6389524"><ele>23.666666666666668</ele><time>2026-04-11T15:14:50.036Z</time></trkpt><trkpt lat="45.301684" lon="11.6389805"><ele>23.0</ele><time>2026-04-11T15:14:51.036Z</time></trkpt><trkpt lat="45.3015268" lon="11.6390195"><ele>20.0</ele><time>2026-04-11T15:14:52.035Z</time></trkpt><trkpt lat="45.3013709" lon="11.6390713"><ele>17.0</ele><time>2026-04-11T15:14:53.036Z</time></trkpt><trkpt lat="45.3012239" lon="11.6391472"><ele>14.0</ele><time>2026-04-11T15:14:54.035Z</time></trkpt><trkpt lat="45.3010837" lon="11.6392494"><ele>14.0</ele><time>2026-04-11T15:14:55.035Z</time></trkpt><trkpt lat="45.3009413" lon="11.6393661"><ele>14.0</ele><time>2026-04-11T15:14:56.037Z</time></trkpt><trkpt lat="45.3007937" lon="11.6394827"><ele>14.0</ele><time>2026-04-11T15:14:57.036Z</time></trkpt><trkpt lat="45.3006436" lon="11.6396079"><ele>13.666666666666668</ele><time>2026-04-11T15:14:58.035Z</time></trkpt><trkpt lat="45.3004834" lon="11.6397298"><ele>13.333333333333332</ele><time>2026-04-11T15:14:59.037Z</time></trkpt><trkpt lat="45.3003175" lon="11.6398541"><ele>13.0</ele><time>2026-04-11T15:15:00.037Z</time></trkpt><trkpt lat="45.3001447" lon="11.6399784"><ele>13.0</ele><time>2026-04-11T15:15:01.035Z</time></trkpt><trkpt lat="45.2999662" lon="11.6401071"><ele>13.0</ele><time>2026-04-11T15:15:02.035Z</time></trkpt><trkpt lat="45.299785" lon="11.6402301"><ele>13.0</ele><time>2026-04-11T15:15:03.036Z</time></trkpt><trkpt lat="45.2996109" lon="11.640353"><ele>13.333333333333332</ele><time>2026-04-11T15:15:04.036Z</time></trkpt><trkpt lat="45.2994369" lon="11.6404709"><ele>13.666666666666668</ele><time>2026-04-11T15:15:05.035Z</time></trkpt><trkpt lat="45.2992652" lon="11.6405843"><ele>14.0</ele><time>2026-04-11T15:15:06.034Z</time></trkpt><trkpt lat="45.2990996" lon="11.6406967"><ele>14.0</ele><time>2026-04-11T15:15:07.036Z</time></trkpt><trkpt lat="45.2989386" lon="11.6408098"><ele>14.0</ele><time>2026-04-11T15:15:08.034Z</time></trkpt><trkpt lat="45.2987828" lon="11.6409238"><ele>14.0</ele><time>2026-04-11T15:15:09.035Z</time></trkpt><trkpt lat="45.2986338" lon="11.6410718"><ele>14.666666666666668</ele><time>2026-04-11T15:15:10.034Z</time></trkpt><trkpt lat="45.2984864" lon="11.6412389"><ele>15.333333333333332</ele><time>2026-04-11T15:15:11.037Z</time></trkpt><trkpt lat="45.298337" lon="11.6414353"><ele>16.0</ele><time>2026-04-11T15:15:12.035Z</time></trkpt><trkpt lat="45.2981804" lon="11.6416472"><ele>15.5</ele><time>2026-04-11T15:15:13.035Z</time></trkpt><trkpt lat="45.2980149" lon="11.6418814"><ele>15.0</ele><time>2026-04-11T15:15:14.035Z</time></trkpt><trkpt lat="45.2978387" lon="11.6421279"><ele>15.0</ele><time>2026-04-11T15:15:15.037Z</time></trkpt><trkpt lat="45.2976486" lon="11.6423982"><ele>15.0</ele><time>2026-04-11T15:15:16.035Z</time></trkpt><trkpt lat="45.2974452" lon="11.6426845"><ele>16.5</ele><time>2026-04-11T15:15:17.035Z</time></trkpt><trkpt lat="45.2972215" lon="11.6429878"><ele>18.0</ele><time>2026-04-11T15:15:18.037Z</time></trkpt><trkpt lat="45.2969876" lon="11.643304"><ele>18.0</ele><time>2026-04-11T15:15:19.035Z</time></trkpt><trkpt lat="45.2967704" lon="11.6435991"><ele>18.0</ele><time>2026-04-11T15:15:20.036Z</time></trkpt><trkpt lat="45.2965663" lon="11.6438776"><ele>17.5</ele><time>2026-04-11T15:15:21.036Z</time></trkpt><trkpt lat="45.2963789" lon="11.6441385"><ele>17.0</ele><time>2026-04-11T15:15:22.035Z</time></trkpt><trkpt lat="45.2962045" lon="11.6443725"><ele>18.666666666666668</ele><time>2026-04-11T15:15:23.035Z</time></trkpt><trkpt lat="45.2960442" lon="11.6445939"><ele>20.333333333333332</ele><time>2026-04-11T15:15:24.037Z</time></trkpt><trkpt lat="45.2958981" lon="11.6447964"><ele>22.0</ele><time>2026-04-11T15:15:25.036Z</time></trkpt><trkpt lat="45.2957632" lon="11.6449809"><ele>22.0</ele><time>2026-04-11T15:15:26.035Z</time></trkpt><trkpt lat="45.295632" lon="11.6451453"><ele>22.0</ele><time>2026-04-11T15:15:27.036Z</time></trkpt><trkpt lat="45.2955013" lon="11.6452832"><ele>22.0</ele><time>2026-04-11T15:15:28.036Z</time></trkpt><trkpt lat="45.2953761" lon="11.6453935"><ele>22.0</ele><time>2026-04-11T15:15:29.035Z</time></trkpt><trkpt lat="45.2952638" lon="11.6454685"><ele>22.0</ele><time>2026-04-11T15:15:30.036Z</time></trkpt><trkpt lat="45.2951619" lon="11.6455322"><ele>22.0</ele><time>2026-04-11T15:15:31.035Z</time></trkpt><trkpt lat="45.295066" lon="11.6455928"><ele>22.0</ele><time>2026-04-11T15:15:32.035Z</time></trkpt><trkpt lat="45.2949619" lon="11.6456458"><ele>22.0</ele><time>2026-04-11T15:15:33.035Z</time></trkpt><trkpt lat="45.294852" lon="11.6456908"><ele>22.0</ele><time>2026-04-11T15:15:34.037Z</time></trkpt><trkpt lat="45.2947361" lon="11.6457354"><ele>22.0</ele><time>2026-04-11T15:15:35.035Z</time></trkpt><trkpt lat="45.2946107" lon="11.6457704"><ele>22.0</ele><time>2026-04-11T15:15:36.036Z</time></trkpt><trkpt lat="45.2944823" lon="11.6457988"><ele>22.333333333333332</ele><time>2026-04-11T15:15:37.036Z</time></trkpt><trkpt lat="45.2943342" lon="11.6458197"><ele>22.666666666666668</ele><time>2026-04-11T15:15:38.035Z</time></trkpt><trkpt lat="45.2941884" lon="11.6458371"><ele>23.0</ele><time>2026-04-11T15:15:39.037Z</time></trkpt><trkpt lat="45.2940312" lon="11.6458578"><ele>22.0</ele><time>2026-04-11T15:15:40.035Z</time></trkpt><trkpt lat="45.2938798" lon="11.6458821"><ele>21.0</ele><time>2026-04-11T15:15:41.037Z</time></trkpt><trkpt lat="45.2937215" lon="11.6459096"><ele>20.0</ele><time>2026-04-11T15:15:42.035Z</time></trkpt><trkpt lat="45.2935665" lon="11.6459279"><ele>20.0</ele><time>2026-04-11T15:15:43.034Z</time></trkpt><trkpt lat="45.2934064" lon="11.6459505"><ele>20.0</ele><time>2026-04-11T15:15:44.036Z</time></trkpt><trkpt lat="45.2932519" lon="11.6459697"><ele>20.0</ele><time>2026-04-11T15:15:45.036Z</time></trkpt><trkpt lat="45.2931097" lon="11.6459885"><ele>19.75</ele><time>2026-04-11T15:15:46.034Z</time></trkpt><trkpt lat="45.292974" lon="11.6460063"><ele>19.5</ele><time>2026-04-11T15:15:47.036Z</time></trkpt><trkpt lat="45.2928461" lon="11.6460147"><ele>19.25</ele><time>2026-04-11T15:15:48.034Z</time></trkpt><trkpt lat="45.2927272" lon="11.6460157"><ele>19.0</ele><time>2026-04-11T15:15:49.037Z</time></trkpt><trkpt lat="45.2926061" lon="11.6460154"><ele>19.0</ele><time>2026-04-11T15:15:50.036Z</time></trkpt><trkpt lat="45.2924759" lon="11.6460051"><ele>19.0</ele><time>2026-04-11T15:15:51.035Z</time></trkpt><trkpt lat="45.2923398" lon="11.6459815"><ele>19.0</ele><time>2026-04-11T15:15:52.036Z</time></trkpt><trkpt lat="45.2922017" lon="11.6459568"><ele>19.0</ele><time>2026-04-11T15:15:53.035Z</time></trkpt><trkpt lat="45.2920566" lon="11.6459327"><ele>19.0</ele><time>2026-04-11T15:15:54.037Z</time></trkpt><trkpt lat="45.2919035" lon="11.6459"><ele>19.0</ele><time>2026-04-11T15:15:55.036Z</time></trkpt><trkpt lat="45.29174" lon="11.6458682"><ele>19.0</ele><time>2026-04-11T15:15:56.035Z</time></trkpt><trkpt lat="45.2915645" lon="11.6458402"><ele>18.666666666666664</ele><time>2026-04-11T15:15:57.036Z</time></trkpt><trkpt lat="45.2913727" lon="11.6458097"><ele>18.333333333333332</ele><time>2026-04-11T15:15:58.036Z</time></trkpt><trkpt lat="45.2911814" lon="11.6457759"><ele>18.0</ele><time>2026-04-11T15:15:59.036Z</time></trkpt><trkpt lat="45.2909856" lon="11.6457527"><ele>18.0</ele><time>2026-04-11T15:16:00.036Z</time></trkpt><trkpt lat="45.2907764" lon="11.6457362"><ele>18.0</ele><time>2026-04-11T15:16:01.037Z</time></trkpt><trkpt lat="45.2905833" lon="11.6457294"><ele>18.0</ele><time>2026-04-11T15:16:02.035Z</time></trkpt><trkpt lat="45.2903997" lon="11.6457452"><ele>17.333333333333332</ele><time>2026-04-11T15:16:03.036Z</time></trkpt><trkpt lat="45.2902278" lon="11.6457735"><ele>16.666666666666664</ele><time>2026-04-11T15:16:04.035Z</time></trkpt><trkpt lat="45.2900791" lon="11.6458036"><ele>16.0</ele><time>2026-04-11T15:16:05.036Z</time></trkpt><trkpt lat="45.2899424" lon="11.6458345"><ele>16.0</ele><time>2026-04-11T15:16:06.036Z</time></trkpt><trkpt lat="45.2898167" lon="11.6458704"><ele>16.0</ele><time>2026-04-11T15:16:07.035Z</time></trkpt><trkpt lat="45.2897132" lon="11.6459016"><ele>16.0</ele><time>2026-04-11T15:16:08.036Z</time></trkpt><trkpt lat="45.2896362" lon="11.645933"><ele>16.0</ele><time>2026-04-11T15:16:09.036Z</time></trkpt><trkpt lat="45.2895742" lon="11.6459618"><ele>16.0</ele><time>2026-04-11T15:16:10.036Z</time></trkpt><trkpt lat="45.2895105" lon="11.6460713"><ele>16.5</ele><time>2026-04-11T15:16:12.035Z</time></trkpt><trkpt lat="45.2895161" lon="11.6462014"><ele>17.0</ele><time>2026-04-11T15:16:14.035Z</time></trkpt><trkpt lat="45.2895597" lon="11.6463714"><ele>17.5</ele><time>2026-04-11T15:16:16.035Z</time></trkpt><trkpt lat="45.2896039" lon="11.6465224"><ele>18.0</ele><time>2026-04-11T15:16:17.037Z</time></trkpt><trkpt lat="45.2896506" lon="11.6466812"><ele>18.0</ele><time>2026-04-11T15:16:18.036Z</time></trkpt><trkpt lat="45.2897433" lon="11.6468871"><ele>18.0</ele><time>2026-04-11T15:16:19.036Z</time></trkpt><trkpt lat="45.2898417" lon="11.6471108"><ele>18.0</ele><time>2026-04-11T15:16:20.036Z</time></trkpt><trkpt lat="45.2899397" lon="11.6473382"><ele>18.0</ele><time>2026-04-11T15:16:21.036Z</time></trkpt><trkpt lat="45.290052" lon="11.6475941"><ele>18.0</ele><time>2026-04-11T15:16:22.037Z</time></trkpt><trkpt lat="45.2901667" lon="11.6478414"><ele>18.0</ele><time>2026-04-11T15:16:23.036Z</time></trkpt><trkpt lat="45.2902855" lon="11.6481166"><ele>18.0</ele><time>2026-04-11T15:16:24.036Z</time></trkpt><trkpt lat="45.2904024" lon="11.648406"><ele>18.0</ele><time>2026-04-11T15:16:25.036Z</time></trkpt><trkpt lat="45.2905219" lon="11.6486882"><ele>19.5</ele><time>2026-04-11T15:16:26.035Z</time></trkpt><trkpt lat="45.2906458" lon="11.6489756"><ele>21.0</ele><time>2026-04-11T15:16:27.035Z</time></trkpt><trkpt lat="45.2907632" lon="11.6492581"><ele>21.333333333333332</ele><time>2026-04-11T15:16:28.037Z</time></trkpt><trkpt lat="45.290875" lon="11.6495312"><ele>21.666666666666664</ele><time>2026-04-11T15:16:29.035Z</time></trkpt><trkpt lat="45.2909781" lon="11.6497983"><ele>22.0</ele><time>2026-04-11T15:16:30.036Z</time></trkpt><trkpt lat="45.2910671" lon="11.6500535"><ele>22.333333333333332</ele><time>2026-04-11T15:16:31.036Z</time></trkpt><trkpt lat="45.2911503" lon="11.6502925"><ele>22.666666666666668</ele><time>2026-04-11T15:16:32.034Z</time></trkpt><trkpt lat="45.2912254" lon="11.6505217"><ele>23.0</ele><time>2026-04-11T15:16:33.034Z</time></trkpt><trkpt lat="45.2912892" lon="11.6507493"><ele>23.0</ele><time>2026-04-11T15:16:34.035Z</time></trkpt><trkpt lat="45.291325" lon="11.6510108"><ele>23.0</ele><time>2026-04-11T15:16:35.036Z</time></trkpt><trkpt lat="45.2913546" lon="11.6512696"><ele>23.0</ele><time>2026-04-11T15:16:36.036Z</time></trkpt><trkpt lat="45.2913714" lon="11.6515439"><ele>23.0</ele><time>2026-04-11T15:16:37.036Z</time></trkpt><trkpt lat="45.2913852" lon="11.6518213"><ele>23.0</ele><time>2026-04-11T15:16:38.035Z</time></trkpt><trkpt lat="45.2914031" lon="11.6520955"><ele>23.0</ele><time>2026-04-11T15:16:39.035Z</time></trkpt><trkpt lat="45.2914281" lon="11.6523588"><ele>23.666666666666668</ele><time>2026-04-11T15:16:40.034Z</time></trkpt><trkpt lat="45.2914603" lon="11.6526153"><ele>24.333333333333336</ele><time>2026-04-11T15:16:41.036Z</time></trkpt><trkpt lat="45.2914896" lon="11.6528512"><ele>25.0</ele><time>2026-04-11T15:16:42.037Z</time></trkpt><trkpt lat="45.2914989" lon="11.6530634"><ele>25.666666666666668</ele><time>2026-04-11T15:16:43.036Z</time></trkpt><trkpt lat="45.2914886" lon="11.6532747"><ele>26.333333333333336</ele><time>2026-04-11T15:16:44.035Z</time></trkpt><trkpt lat="45.2914595" lon="11.653488"><ele>27.0</ele><time>2026-04-11T15:16:45.035Z</time></trkpt><trkpt lat="45.2914155" lon="11.6537055"><ele>28.333333333333336</ele><time>2026-04-11T15:16:46.035Z</time></trkpt><trkpt lat="45.2913629" lon="11.6539294"><ele>29.666666666666668</ele><time>2026-04-11T15:16:47.035Z</time></trkpt><trkpt lat="45.2913123" lon="11.6541456"><ele>31.0</ele><time>2026-04-11T15:16:48.035Z</time></trkpt><trkpt lat="45.2912454" lon="11.6543489"><ele>31.0</ele><time>2026-04-11T15:16:49.036Z</time></trkpt><trkpt lat="45.2911749" lon="11.6545462"><ele>31.0</ele><time>2026-04-11T15:16:50.036Z</time></trkpt><trkpt lat="45.2911045" lon="11.6547435"><ele>31.0</ele><time>2026-04-11T15:16:51.034Z</time></trkpt><trkpt lat="45.2910379" lon="11.6549357"><ele>31.0</ele><time>2026-04-11T15:16:52.036Z</time></trkpt><trkpt lat="45.2909835" lon="11.6551318"><ele>31.0</ele><time>2026-04-11T15:16:53.035Z</time></trkpt><trkpt lat="45.2909408" lon="11.6553377"><ele>31.0</ele><time>2026-04-11T15:16:54.035Z</time></trkpt><trkpt lat="45.2909107" lon="11.655551"><ele>31.0</ele><time>2026-04-11T15:16:55.036Z</time></trkpt><trkpt lat="45.2908906" lon="11.6557727"><ele>31.0</ele><time>2026-04-11T15:16:56.036Z</time></trkpt><trkpt lat="45.2908679" lon="11.6559899"><ele>31.0</ele><time>2026-04-11T15:16:57.035Z</time></trkpt><trkpt lat="45.2908455" lon="11.6562099"><ele>30.666666666666668</ele><time>2026-04-11T15:16:58.036Z</time></trkpt><trkpt lat="45.2908163" lon="11.6564307"><ele>30.333333333333336</ele><time>2026-04-11T15:16:59.036Z</time></trkpt><trkpt lat="45.2907897" lon="11.6566448"><ele>30.0</ele><time>2026-04-11T15:17:00.036Z</time></trkpt><trkpt lat="45.2907717" lon="11.6568596"><ele>30.0</ele><time>2026-04-11T15:17:01.035Z</time></trkpt><trkpt lat="45.290783" lon="11.6570756"><ele>30.0</ele><time>2026-04-11T15:17:02.036Z</time></trkpt><trkpt lat="45.2908042" lon="11.6572936"><ele>30.0</ele><time>2026-04-11T15:17:03.037Z</time></trkpt><trkpt lat="45.290845" lon="11.657509"><ele>30.0</ele><time>2026-04-11T15:17:04.036Z</time></trkpt><trkpt lat="45.2908809" lon="11.6577363"><ele>30.0</ele><time>2026-04-11T15:17:05.035Z</time></trkpt><trkpt lat="45.2909206" lon="11.6579591"><ele>30.0</ele><time>2026-04-11T15:17:06.036Z</time></trkpt><trkpt lat="45.2909592" lon="11.6581735"><ele>30.333333333333336</ele><time>2026-04-11T15:17:07.035Z</time></trkpt><trkpt lat="45.2909964" lon="11.6583892"><ele>30.666666666666668</ele><time>2026-04-11T15:17:08.035Z</time></trkpt><trkpt lat="45.2910261" lon="11.6586044"><ele>31.0</ele><time>2026-04-11T15:17:09.037Z</time></trkpt><trkpt lat="45.2910507" lon="11.6588152"><ele>31.5</ele><time>2026-04-11T15:17:10.037Z</time></trkpt><trkpt lat="45.291061" lon="11.6590208"><ele>32.0</ele><time>2026-04-11T15:17:11.036Z</time></trkpt><trkpt lat="45.2910795" lon="11.6592327"><ele>32.5</ele><time>2026-04-11T15:17:12.035Z</time></trkpt><trkpt lat="45.2911021" lon="11.6594324"><ele>33.0</ele><time>2026-04-11T15:17:13.036Z</time></trkpt><trkpt lat="45.2911219" lon="11.6596413"><ele>33.25</ele><time>2026-04-11T15:17:14.035Z</time></trkpt><trkpt lat="45.2911392" lon="11.6598337"><ele>33.5</ele><time>2026-04-11T15:17:15.036Z</time></trkpt><trkpt lat="45.2911574" lon="11.660019"><ele>33.75</ele><time>2026-04-11T15:17:16.037Z</time></trkpt><trkpt lat="45.2911749" lon="11.6601953"><ele>34.0</ele><time>2026-04-11T15:17:17.035Z</time></trkpt><trkpt lat="45.2911916" lon="11.6603699"><ele>34.5</ele><time>2026-04-11T15:17:18.034Z</time></trkpt><trkpt lat="45.2912088" lon="11.6605426"><ele>35.0</ele><time>2026-04-11T15:17:19.036Z</time></trkpt><trkpt lat="45.2912293" lon="11.6607246"><ele>35.5</ele><time>2026-04-11T15:17:20.035Z</time></trkpt><trkpt lat="45.2912479" lon="11.6609124"><ele>36.0</ele><time>2026-04-11T15:17:21.036Z</time></trkpt><trkpt lat="45.2912639" lon="11.6611023"><ele>36.0</ele><time>2026-04-11T15:17:22.035Z</time></trkpt><trkpt lat="45.2912893" lon="11.6612873"><ele>36.0</ele><time>2026-04-11T15:17:23.035Z</time></trkpt><trkpt lat="45.2913082" lon="11.6614575"><ele>36.0</ele><time>2026-04-11T15:17:24.034Z</time></trkpt><trkpt lat="45.2913289" lon="11.661605"><ele>36.0</ele><time>2026-04-11T15:17:25.034Z</time></trkpt><trkpt lat="45.2913446" lon="11.6617398"><ele>36.0</ele><time>2026-04-11T15:17:26.037Z</time></trkpt><trkpt lat="45.2913548" lon="11.6618627"><ele>36.0</ele><time>2026-04-11T15:17:27.034Z</time></trkpt><trkpt lat="45.291335" lon="11.6619579"><ele>36.0</ele><time>2026-04-11T15:17:28.036Z</time></trkpt><trkpt lat="45.2912718" lon="11.6620885"><ele>36.0</ele><time>2026-04-11T15:17:30.037Z</time></trkpt><trkpt lat="45.2912096" lon="11.6621913"><ele>36.0</ele><time>2026-04-11T15:17:32.035Z</time></trkpt><trkpt lat="45.2911996" lon="11.6623687"><ele>36.25</ele><time>2026-04-11T15:17:34.036Z</time></trkpt><trkpt lat="45.2911829" lon="11.6624953"><ele>36.5</ele><time>2026-04-11T15:17:35.035Z</time></trkpt><trkpt lat="45.2911436" lon="11.6626391"><ele>36.75</ele><time>2026-04-11T15:17:36.035Z</time></trkpt><trkpt lat="45.2910773" lon="11.6628004"><ele>37.0</ele><time>2026-04-11T15:17:37.035Z</time></trkpt><trkpt lat="45.2910016" lon="11.6629824"><ele>38.0</ele><time>2026-04-11T15:17:38.035Z</time></trkpt><trkpt lat="45.2909263" lon="11.6631703"><ele>39.0</ele><time>2026-04-11T15:17:39.036Z</time></trkpt><trkpt lat="45.290861" lon="11.6633531"><ele>40.0</ele><time>2026-04-11T15:17:40.037Z</time></trkpt><trkpt lat="45.2908136" lon="11.6635618"><ele>42.333333333333336</ele><time>2026-04-11T15:17:41.036Z</time></trkpt><trkpt lat="45.290777" lon="11.6637852"><ele>44.666666666666664</ele><time>2026-04-11T15:17:42.036Z</time></trkpt><trkpt lat="45.2907444" lon="11.6640213"><ele>47.0</ele><time>2026-04-11T15:17:43.035Z</time></trkpt><trkpt lat="45.2907111" lon="11.6642558"><ele>48.666666666666664</ele><time>2026-04-11T15:17:44.035Z</time></trkpt><trkpt lat="45.2906787" lon="11.664489"><ele>50.33333333333333</ele><time>2026-04-11T15:17:45.034Z</time></trkpt><trkpt lat="45.2906496" lon="11.6647199"><ele>52.0</ele><time>2026-04-11T15:17:46.037Z</time></trkpt><trkpt lat="45.2906201" lon="11.6649452"><ele>48.666666666666664</ele><time>2026-04-11T15:17:47.035Z</time></trkpt><trkpt lat="45.2905888" lon="11.6651661"><ele>45.33333333333333</ele><time>2026-04-11T15:17:48.036Z</time></trkpt><trkpt lat="45.2905568" lon="11.6653844"><ele>42.0</ele><time>2026-04-11T15:17:49.036Z</time></trkpt><trkpt lat="45.2905255" lon="11.6656042"><ele>42.0</ele><time>2026-04-11T15:17:50.034Z</time></trkpt><trkpt lat="45.2905076" lon="11.6658274"><ele>42.0</ele><time>2026-04-11T15:17:51.036Z</time></trkpt><trkpt lat="45.2905025" lon="11.6660563"><ele>42.0</ele><time>2026-04-11T15:17:52.034Z</time></trkpt><trkpt lat="45.2905072" lon="11.6662904"><ele>42.333333333333336</ele><time>2026-04-11T15:17:53.035Z</time></trkpt><trkpt lat="45.2905203" lon="11.6665273"><ele>42.66666666666667</ele><time>2026-04-11T15:17:54.035Z</time></trkpt><trkpt lat="45.2905356" lon="11.6667617"><ele>43.0</ele><time>2026-04-11T15:17:55.035Z</time></trkpt><trkpt lat="45.2905481" lon="11.6669992"><ele>43.0</ele><time>2026-04-11T15:17:56.037Z</time></trkpt><trkpt lat="45.2905579" lon="11.6672316"><ele>43.0</ele><time>2026-04-11T15:17:57.036Z</time></trkpt><trkpt lat="45.2905695" lon="11.6674694"><ele>43.0</ele><time>2026-04-11T15:17:58.035Z</time></trkpt><trkpt lat="45.2905837" lon="11.667707"><ele>44.66666666666667</ele><time>2026-04-11T15:17:59.036Z</time></trkpt><trkpt lat="45.2905963" lon="11.6679487"><ele>46.333333333333336</ele><time>2026-04-11T15:18:00.036Z</time></trkpt><trkpt lat="45.2906115" lon="11.6681894"><ele>48.0</ele><time>2026-04-11T15:18:01.035Z</time></trkpt><trkpt lat="45.2906263" lon="11.6684305"><ele>48.33333333333333</ele><time>2026-04-11T15:18:02.036Z</time></trkpt><trkpt lat="45.2906408" lon="11.6686746"><ele>48.666666666666664</ele><time>2026-04-11T15:18:03.036Z</time></trkpt><trkpt lat="45.2906543" lon="11.668911"><ele>49.0</ele><time>2026-04-11T15:18:04.036Z</time></trkpt><trkpt lat="45.2906687" lon="11.6691423"><ele>49.0</ele><time>2026-04-11T15:18:05.035Z</time></trkpt><trkpt lat="45.2906903" lon="11.6693674"><ele>49.0</ele><time>2026-04-11T15:18:06.036Z</time></trkpt><trkpt lat="45.290717" lon="11.6695974"><ele>49.0</ele><time>2026-04-11T15:18:07.036Z</time></trkpt><trkpt lat="45.2907556" lon="11.6698277"><ele>49.0</ele><time>2026-04-11T15:18:08.036Z</time></trkpt><trkpt lat="45.2908013" lon="11.6700562"><ele>49.0</ele><time>2026-04-11T15:18:09.035Z</time></trkpt><trkpt lat="45.2908558" lon="11.6702941"><ele>49.0</ele><time>2026-04-11T15:18:10.036Z</time></trkpt><trkpt lat="45.2909048" lon="11.670532"><ele>49.666666666666664</ele><time>2026-04-11T15:18:11.036Z</time></trkpt><trkpt lat="45.2909551" lon="11.670768"><ele>50.33333333333333</ele><time>2026-04-11T15:18:12.036Z</time></trkpt><trkpt lat="45.2910065" lon="11.6710054"><ele>51.0</ele><time>2026-04-11T15:18:13.036Z</time></trkpt><trkpt lat="45.2910583" lon="11.6712491"><ele>51.33333333333333</ele><time>2026-04-11T15:18:14.037Z</time></trkpt><trkpt lat="45.2911127" lon="11.6714915"><ele>51.666666666666664</ele><time>2026-04-11T15:18:15.036Z</time></trkpt><trkpt lat="45.2911542" lon="11.671751"><ele>52.0</ele><time>2026-04-11T15:18:16.037Z</time></trkpt><trkpt lat="45.2911875" lon="11.6720098"><ele>52.666666666666664</ele><time>2026-04-11T15:18:17.035Z</time></trkpt><trkpt lat="45.2912089" lon="11.6722731"><ele>53.33333333333333</ele><time>2026-04-11T15:18:18.037Z</time></trkpt><trkpt lat="45.2912235" lon="11.6725451"><ele>54.0</ele><time>2026-04-11T15:18:19.034Z</time></trkpt><trkpt lat="45.2912372" lon="11.6728168"><ele>55.0</ele><time>2026-04-11T15:18:20.035Z</time></trkpt><trkpt lat="45.291249" lon="11.6730922"><ele>56.0</ele><time>2026-04-11T15:18:21.035Z</time></trkpt><trkpt lat="45.2912552" lon="11.6733648"><ele>57.0</ele><time>2026-04-11T15:18:22.035Z</time></trkpt><trkpt lat="45.2912508" lon="11.6736432"><ele>58.66666666666667</ele><time>2026-04-11T15:18:23.036Z</time></trkpt><trkpt lat="45.2912408" lon="11.6739154"><ele>60.333333333333336</ele><time>2026-04-11T15:18:24.036Z</time></trkpt><trkpt lat="45.2912217" lon="11.6741882"><ele>62.0</ele><time>2026-04-11T15:18:25.036Z</time></trkpt><trkpt lat="45.291193" lon="11.6744561"><ele>64.66666666666667</ele><time>2026-04-11T15:18:26.036Z</time></trkpt><trkpt lat="45.2911571" lon="11.6747195"><ele>67.33333333333333</ele><time>2026-04-11T15:18:27.037Z</time></trkpt><trkpt lat="45.2911191" lon="11.6749682"><ele>70.0</ele><time>2026-04-11T15:18:28.036Z</time></trkpt><trkpt lat="45.2910964" lon="11.6752169"><ele>72.0</ele><time>2026-04-11T15:18:29.036Z</time></trkpt><trkpt lat="45.2910878" lon="11.675474"><ele>74.0</ele><time>2026-04-11T15:18:30.035Z</time></trkpt><trkpt lat="45.2911307" lon="11.6757249"><ele>76.0</ele><time>2026-04-11T15:18:31.036Z</time></trkpt><trkpt lat="45.2911692" lon="11.6759714"><ele>77.33333333333333</ele><time>2026-04-11T15:18:32.036Z</time></trkpt><trkpt lat="45.2912148" lon="11.6762244"><ele>78.66666666666667</ele><time>2026-04-11T15:18:33.035Z</time></trkpt><trkpt lat="45.2912632" lon="11.6764896"><ele>80.0</ele><time>2026-04-11T15:18:34.037Z</time></trkpt><trkpt lat="45.2913161" lon="11.6767504"><ele>82.66666666666667</ele><time>2026-04-11T15:18:35.036Z</time></trkpt><trkpt lat="45.2913714" lon="11.6770048"><ele>85.33333333333333</ele><time>2026-04-11T15:18:36.036Z</time></trkpt><trkpt lat="45.2914296" lon="11.6772577"><ele>88.0</ele><time>2026-04-11T15:18:37.036Z</time></trkpt><trkpt lat="45.2914905" lon="11.6775055"><ele>84.0</ele><time>2026-04-11T15:18:38.036Z</time></trkpt><trkpt lat="45.2915553" lon="11.6777482"><ele>80.0</ele><time>2026-04-11T15:18:39.036Z</time></trkpt><trkpt lat="45.2916344" lon="11.6779805"><ele>76.0</ele><time>2026-04-11T15:18:40.036Z</time></trkpt><trkpt lat="45.2917202" lon="11.6782059"><ele>76.0</ele><time>2026-04-11T15:18:41.034Z</time></trkpt><trkpt lat="45.2918063" lon="11.678432"><ele>76.0</ele><time>2026-04-11T15:18:42.036Z</time></trkpt><trkpt lat="45.2918944" lon="11.678663"><ele>76.0</ele><time>2026-04-11T15:18:43.036Z</time></trkpt><trkpt lat="45.2919915" lon="11.6788862"><ele>75.66666666666666</ele><time>2026-04-11T15:18:44.036Z</time></trkpt><trkpt lat="45.2921009" lon="11.6790955"><ele>75.33333333333333</ele><time>2026-04-11T15:18:45.037Z</time></trkpt><trkpt lat="45.2922273" lon="11.6792942"><ele>75.0</ele><time>2026-04-11T15:18:46.036Z</time></trkpt><trkpt lat="45.2923502" lon="11.6794731"><ele>75.0</ele><time>2026-04-11T15:18:47.036Z</time></trkpt><trkpt lat="45.2924652" lon="11.6796591"><ele>75.0</ele><time>2026-04-11T15:18:48.036Z</time></trkpt><trkpt lat="45.2925658" lon="11.6798492"><ele>75.0</ele><time>2026-04-11T15:18:49.035Z</time></trkpt><trkpt lat="45.2926417" lon="11.6800448"><ele>75.0</ele><time>2026-04-11T15:18:50.037Z</time></trkpt><trkpt lat="45.2926999" lon="11.6802553"><ele>75.0</ele><time>2026-04-11T15:18:51.036Z</time></trkpt><trkpt lat="45.2927631" lon="11.6804668"><ele>75.0</ele><time>2026-04-11T15:18:52.035Z</time></trkpt><trkpt lat="45.2928331" lon="11.6806708"><ele>78.66666666666667</ele><time>2026-04-11T15:18:53.037Z</time></trkpt><trkpt lat="45.2929131" lon="11.6808756"><ele>82.33333333333334</ele><time>2026-04-11T15:18:54.037Z</time></trkpt><trkpt lat="45.2929879" lon="11.6810809"><ele>86.0</ele><time>2026-04-11T15:18:55.036Z</time></trkpt><trkpt lat="45.2930555" lon="11.6812942"><ele>84.0</ele><time>2026-04-11T15:18:56.036Z</time></trkpt><trkpt lat="45.2931123" lon="11.6815073"><ele>82.0</ele><time>2026-04-11T15:18:57.037Z</time></trkpt><trkpt lat="45.2931556" lon="11.6817225"><ele>80.0</ele><time>2026-04-11T15:18:58.036Z</time></trkpt><trkpt lat="45.2931825" lon="11.6819406"><ele>80.0</ele><time>2026-04-11T15:18:59.037Z</time></trkpt><trkpt lat="45.2931921" lon="11.6821437"><ele>80.0</ele><time>2026-04-11T15:19:00.035Z</time></trkpt><trkpt lat="45.2931994" lon="11.6823288"><ele>80.0</ele><time>2026-04-11T15:19:01.035Z</time></trkpt><trkpt lat="45.293209" lon="11.6824861"><ele>80.0</ele><time>2026-04-11T15:19:02.035Z</time></trkpt><trkpt lat="45.2932497" lon="11.6826129"><ele>80.0</ele><time>2026-04-11T15:19:03.035Z</time></trkpt><trkpt lat="45.2933163" lon="11.6827067"><ele>80.0</ele><time>2026-04-11T15:19:04.036Z</time></trkpt><trkpt lat="45.2933948" lon="11.6827785"><ele>80.0</ele><time>2026-04-11T15:19:05.037Z</time></trkpt><trkpt lat="45.2934803" lon="11.6828371"><ele>80.0</ele><time>2026-04-11T15:19:06.037Z</time></trkpt><trkpt lat="45.2935672" lon="11.6828912"><ele>80.0</ele><time>2026-04-11T15:19:07.036Z</time></trkpt><trkpt lat="45.2936483" lon="11.6829505"><ele>80.83333333333334</ele><time>2026-04-11T15:19:08.034Z</time></trkpt><trkpt lat="45.2937186" lon="11.6830183"><ele>81.66666666666667</ele><time>2026-04-11T15:19:09.036Z</time></trkpt><trkpt lat="45.2937469" lon="11.6831075"><ele>82.5</ele><time>2026-04-11T15:19:10.036Z</time></trkpt><trkpt lat="45.2937756" lon="11.6831935"><ele>83.33333333333333</ele><time>2026-04-11T15:19:11.036Z</time></trkpt><trkpt lat="45.2937938" lon="11.6832927"><ele>84.16666666666666</ele><time>2026-04-11T15:19:12.036Z</time></trkpt><trkpt lat="45.2937991" lon="11.6833977"><ele>85.0</ele><time>2026-04-11T15:19:13.036Z</time></trkpt><trkpt lat="45.2937982" lon="11.6835159"><ele>86.6</ele><time>2026-04-11T15:19:14.036Z</time></trkpt><trkpt lat="45.2937993" lon="11.6836412"><ele>88.2</ele><time>2026-04-11T15:19:15.037Z</time></trkpt><trkpt lat="45.2938011" lon="11.683777"><ele>89.80000000000001</ele><time>2026-04-11T15:19:16.035Z</time></trkpt><trkpt lat="45.2938098" lon="11.6839192"><ele>91.4</ele><time>2026-04-11T15:19:17.036Z</time></trkpt><trkpt lat="45.2938291" lon="11.6840724"><ele>93.0</ele><time>2026-04-11T15:19:18.035Z</time></trkpt><trkpt lat="45.2938576" lon="11.6842377"><ele>93.0</ele><time>2026-04-11T15:19:19.036Z</time></trkpt><trkpt lat="45.2938888" lon="11.6844095"><ele>93.0</ele><time>2026-04-11T15:19:20.035Z</time></trkpt><trkpt lat="45.2939157" lon="11.6845788"><ele>93.0</ele><time>2026-04-11T15:19:21.036Z</time></trkpt><trkpt lat="45.293945" lon="11.6847441"><ele>93.0</ele><time>2026-04-11T15:19:22.036Z</time></trkpt><trkpt lat="45.2939675" lon="11.6849119"><ele>92.25</ele><time>2026-04-11T15:19:23.036Z</time></trkpt><trkpt lat="45.2939885" lon="11.6850785"><ele>91.5</ele><time>2026-04-11T15:19:24.036Z</time></trkpt><trkpt lat="45.2940128" lon="11.6852375"><ele>90.75</ele><time>2026-04-11T15:19:25.036Z</time></trkpt><trkpt lat="45.294038" lon="11.6854009"><ele>90.0</ele><time>2026-04-11T15:19:26.035Z</time></trkpt><trkpt lat="45.2940687" lon="11.6855483"><ele>90.0</ele><time>2026-04-11T15:19:27.036Z</time></trkpt><trkpt lat="45.2941018" lon="11.6856766"><ele>90.0</ele><time>2026-04-11T15:19:28.037Z</time></trkpt><trkpt lat="45.2941331" lon="11.6857844"><ele>90.0</ele><time>2026-04-11T15:19:29.036Z</time></trkpt><trkpt lat="45.2941674" lon="11.6858883"><ele>90.0</ele><time>2026-04-11T15:19:30.036Z</time></trkpt><trkpt lat="45.2942061" lon="11.6859878"><ele>90.0</ele><time>2026-04-11T15:19:31.036Z</time></trkpt><trkpt lat="45.294252" lon="11.6860806"><ele>90.0</ele><time>2026-04-11T15:19:32.036Z</time></trkpt><trkpt lat="45.2943112" lon="11.6861542"><ele>90.0</ele><time>2026-04-11T15:19:33.037Z</time></trkpt><trkpt lat="45.2943884" lon="11.6862033"><ele>90.0</ele><time>2026-04-11T15:19:34.036Z</time></trkpt><trkpt lat="45.2944769" lon="11.6862277"><ele>90.0</ele><time>2026-04-11T15:19:35.036Z</time></trkpt><trkpt lat="45.294569" lon="11.686252"><ele>90.0</ele><time>2026-04-11T15:19:36.036Z</time></trkpt><trkpt lat="45.2946586" lon="11.6862843"><ele>90.0</ele><time>2026-04-11T15:19:37.036Z</time></trkpt><trkpt lat="45.294746" lon="11.6863347"><ele>91.2</ele><time>2026-04-11T15:19:38.035Z</time></trkpt><trkpt lat="45.294826" lon="11.6864047"><ele>92.4</ele><time>2026-04-11T15:19:39.035Z</time></trkpt><trkpt lat="45.2949015" lon="11.6864833"><ele>93.6</ele><time>2026-04-11T15:19:40.036Z</time></trkpt><trkpt lat="45.2949704" lon="11.6865696"><ele>94.8</ele><time>2026-04-11T15:19:41.036Z</time></trkpt><trkpt lat="45.2950338" lon="11.6866632"><ele>96.0</ele><time>2026-04-11T15:19:42.035Z</time></trkpt><trkpt lat="45.2950947" lon="11.6867561"><ele>96.0</ele><time>2026-04-11T15:19:43.037Z</time></trkpt><trkpt lat="45.2951585" lon="11.6868596"><ele>96.0</ele><time>2026-04-11T15:19:44.035Z</time></trkpt><trkpt lat="45.2952225" lon="11.6869493"><ele>96.0</ele><time>2026-04-11T15:19:45.035Z</time></trkpt><trkpt lat="45.2952817" lon="11.6870389"><ele>96.0</ele><time>2026-04-11T15:19:46.034Z</time></trkpt><trkpt lat="45.2953327" lon="11.6871326"><ele>96.0</ele><time>2026-04-11T15:19:47.036Z</time></trkpt><trkpt lat="45.2953732" lon="11.6872248"><ele>96.0</ele><time>2026-04-11T15:19:48.036Z</time></trkpt><trkpt lat="45.2954004" lon="11.6873239"><ele>96.5</ele><time>2026-04-11T15:19:49.037Z</time></trkpt><trkpt lat="45.2954193" lon="11.6874257"><ele>97.0</ele><time>2026-04-11T15:19:50.036Z</time></trkpt><trkpt lat="45.2954241" lon="11.6875306"><ele>97.5</ele><time>2026-04-11T15:19:51.036Z</time></trkpt><trkpt lat="45.2954" lon="11.6876322"><ele>98.0</ele><time>2026-04-11T15:19:52.036Z</time></trkpt><trkpt lat="45.2953661" lon="11.6877353"><ele>98.5</ele><time>2026-04-11T15:19:53.036Z</time></trkpt><trkpt lat="45.2953276" lon="11.6878434"><ele>99.0</ele><time>2026-04-11T15:19:54.036Z</time></trkpt><trkpt lat="45.29529" lon="11.6879614"><ele>99.0</ele><time>2026-04-11T15:19:55.037Z</time></trkpt><trkpt lat="45.2952539" lon="11.6880888"><ele>99.0</ele><time>2026-04-11T15:19:56.034Z</time></trkpt><trkpt lat="45.2952225" lon="11.6882278"><ele>99.0</ele><time>2026-04-11T15:19:57.035Z</time></trkpt><trkpt lat="45.2952027" lon="11.688374"><ele>99.0</ele><time>2026-04-11T15:19:58.035Z</time></trkpt><trkpt lat="45.2951955" lon="11.6885261"><ele>99.0</ele><time>2026-04-11T15:19:59.037Z</time></trkpt><trkpt lat="45.2952014" lon="11.6886782"><ele>98.6</ele><time>2026-04-11T15:20:00.036Z</time></trkpt><trkpt lat="45.2952251" lon="11.6888238"><ele>98.2</ele><time>2026-04-11T15:20:01.037Z</time></trkpt><trkpt lat="45.2952749" lon="11.6889575"><ele>97.8</ele><time>2026-04-11T15:20:02.036Z</time></trkpt><trkpt lat="45.2953397" lon="11.6890842"><ele>97.39999999999999</ele><time>2026-04-11T15:20:03.036Z</time></trkpt><trkpt lat="45.2954028" lon="11.6892122"><ele>97.0</ele><time>2026-04-11T15:20:04.035Z</time></trkpt><trkpt lat="45.2954652" lon="11.689332"><ele>97.33333333333334</ele><time>2026-04-11T15:20:05.036Z</time></trkpt><trkpt lat="45.295516" lon="11.689452"><ele>97.66666666666667</ele><time>2026-04-11T15:20:06.036Z</time></trkpt><trkpt lat="45.2955694" lon="11.6895682"><ele>98.0</ele><time>2026-04-11T15:20:07.036Z</time></trkpt><trkpt lat="45.2956169" lon="11.6896792"><ele>98.33333333333334</ele><time>2026-04-11T15:20:08.036Z</time></trkpt><trkpt lat="45.295651" lon="11.6897746"><ele>98.66666666666667</ele><time>2026-04-11T15:20:09.035Z</time></trkpt><trkpt lat="45.2956737" lon="11.6898677"><ele>99.0</ele><time>2026-04-11T15:20:10.036Z</time></trkpt><trkpt lat="45.2957065" lon="11.6899446"><ele>100.16666666666667</ele><time>2026-04-11T15:20:11.036Z</time></trkpt><trkpt lat="45.2957511" lon="11.6900121"><ele>101.33333333333334</ele><time>2026-04-11T15:20:12.037Z</time></trkpt><trkpt lat="45.2958003" lon="11.6900839"><ele>102.5</ele><time>2026-04-11T15:20:14.036Z</time></trkpt><trkpt lat="45.2958708" lon="11.6901416"><ele>103.66666666666667</ele><time>2026-04-11T15:20:27.037Z</time></trkpt><trkpt lat="45.295964" lon="11.6902105"><ele>104.83333333333334</ele><time>2026-04-11T15:20:29.037Z</time></trkpt><trkpt lat="45.2960181" lon="11.6902736"><ele>106.0</ele><time>2026-04-11T15:20:30.037Z</time></trkpt><trkpt lat="45.2960707" lon="11.690354"><ele>106.0</ele><time>2026-04-11T15:20:31.036Z</time></trkpt><trkpt lat="45.2961156" lon="11.6904405"><ele>106.0</ele><time>2026-04-11T15:20:32.036Z</time></trkpt><trkpt lat="45.2961514" lon="11.6905537"><ele>106.0</ele><time>2026-04-11T15:20:33.036Z</time></trkpt><trkpt lat="45.2961679" lon="11.6906947"><ele>106.0</ele><time>2026-04-11T15:20:34.037Z</time></trkpt><trkpt lat="45.2961776" lon="11.6908655"><ele>106.0</ele><time>2026-04-11T15:20:35.037Z</time></trkpt><trkpt lat="45.2961839" lon="11.6910576"><ele>106.25</ele><time>2026-04-11T15:20:36.035Z</time></trkpt><trkpt lat="45.2961888" lon="11.6912638"><ele>106.5</ele><time>2026-04-11T15:20:37.036Z</time></trkpt><trkpt lat="45.296196" lon="11.6914619"><ele>106.75</ele><time>2026-04-11T15:20:38.037Z</time></trkpt><trkpt lat="45.2962048" lon="11.6916454"><ele>107.0</ele><time>2026-04-11T15:20:39.037Z</time></trkpt><trkpt lat="45.2962063" lon="11.6918101"><ele>107.19999999999999</ele><time>2026-04-11T15:20:40.036Z</time></trkpt><trkpt lat="45.2962031" lon="11.6919625"><ele>107.39999999999999</ele><time>2026-04-11T15:20:41.036Z</time></trkpt><trkpt lat="45.2961975" lon="11.6921093"><ele>107.60000000000001</ele><time>2026-04-11T15:20:42.035Z</time></trkpt><trkpt lat="45.2961972" lon="11.6922482"><ele>107.80000000000001</ele><time>2026-04-11T15:20:43.036Z</time></trkpt><trkpt lat="45.2962058" lon="11.6923786"><ele>108.0</ele><time>2026-04-11T15:20:44.036Z</time></trkpt><trkpt lat="45.2962278" lon="11.6925003"><ele>108.0</ele><time>2026-04-11T15:20:45.037Z</time></trkpt><trkpt lat="45.2962642" lon="11.6926066"><ele>108.0</ele><time>2026-04-11T15:20:46.037Z</time></trkpt><trkpt lat="45.2963231" lon="11.6927022"><ele>108.0</ele><time>2026-04-11T15:20:47.036Z</time></trkpt><trkpt lat="45.2963907" lon="11.6927875"><ele>108.0</ele><time>2026-04-11T15:20:48.035Z</time></trkpt><trkpt lat="45.2964623" lon="11.6928627"><ele>108.0</ele><time>2026-04-11T15:20:49.036Z</time></trkpt><trkpt lat="45.2965277" lon="11.6929309"><ele>108.0</ele><time>2026-04-11T15:20:50.035Z</time></trkpt><trkpt lat="45.2965805" lon="11.6929909"><ele>109.80000000000001</ele><time>2026-04-11T15:20:51.035Z</time></trkpt><trkpt lat="45.2966459" lon="11.6931152"><ele>111.60000000000001</ele><time>2026-04-11T15:20:53.037Z</time></trkpt><trkpt lat="45.2966271" lon="11.6932491"><ele>113.39999999999999</ele><time>2026-04-11T15:20:55.035Z</time></trkpt><trkpt lat="45.2965345" lon="11.69334"><ele>115.19999999999999</ele><time>2026-04-11T15:20:57.036Z</time></trkpt><trkpt lat="45.2964849" lon="11.6934123"><ele>117.0</ele><time>2026-04-11T15:20:58.035Z</time></trkpt><trkpt lat="45.2964366" lon="11.6935001"><ele>116.19999999999999</ele><time>2026-04-11T15:20:59.036Z</time></trkpt><trkpt lat="45.2963903" lon="11.6935956"><ele>115.39999999999999</ele><time>2026-04-11T15:21:00.036Z</time></trkpt><trkpt lat="45.2963426" lon="11.6937082"><ele>114.60000000000001</ele><time>2026-04-11T15:21:01.036Z</time></trkpt><trkpt lat="45.2962951" lon="11.6938375"><ele>113.80000000000001</ele><time>2026-04-11T15:21:02.036Z</time></trkpt><trkpt lat="45.2962324" lon="11.6939792"><ele>113.0</ele><time>2026-04-11T15:21:03.037Z</time></trkpt><trkpt lat="45.2961679" lon="11.6941147"><ele>113.0</ele><time>2026-04-11T15:21:04.036Z</time></trkpt><trkpt lat="45.296098" lon="11.6942439"><ele>113.0</ele><time>2026-04-11T15:21:05.035Z</time></trkpt><trkpt lat="45.2960291" lon="11.6943733"><ele>113.0</ele><time>2026-04-11T15:21:06.036Z</time></trkpt><trkpt lat="45.2959494" lon="11.6944968"><ele>113.0</ele><time>2026-04-11T15:21:07.036Z</time></trkpt><trkpt lat="45.2958778" lon="11.6946294"><ele>114.25</ele><time>2026-04-11T15:21:08.037Z</time></trkpt><trkpt lat="45.295815" lon="11.6947704"><ele>115.5</ele><time>2026-04-11T15:21:09.036Z</time></trkpt><trkpt lat="45.2957543" lon="11.6949156"><ele>116.75</ele><time>2026-04-11T15:21:10.036Z</time></trkpt><trkpt lat="45.2956962" lon="11.6950689"><ele>118.0</ele><time>2026-04-11T15:21:11.035Z</time></trkpt><trkpt lat="45.2956374" lon="11.6952298"><ele>120.75</ele><time>2026-04-11T15:21:12.036Z</time></trkpt><trkpt lat="45.2955742" lon="11.6953871"><ele>123.5</ele><time>2026-04-11T15:21:13.035Z</time></trkpt><trkpt lat="45.2955111" lon="11.6955506"><ele>126.25</ele><time>2026-04-11T15:21:14.035Z</time></trkpt><trkpt lat="45.2954509" lon="11.6957181"><ele>129.0</ele><time>2026-04-11T15:21:15.036Z</time></trkpt><trkpt lat="45.2953879" lon="11.6958817"><ele>129.0</ele><time>2026-04-11T15:21:16.035Z</time></trkpt><trkpt lat="45.2953235" lon="11.6960479"><ele>129.0</ele><time>2026-04-11T15:21:17.036Z</time></trkpt><trkpt lat="45.2952578" lon="11.696205"><ele>129.0</ele><time>2026-04-11T15:21:18.037Z</time></trkpt><trkpt lat="45.2951926" lon="11.6963589"><ele>129.0</ele><time>2026-04-11T15:21:19.036Z</time></trkpt><trkpt lat="45.2951407" lon="11.6965105"><ele>129.2</ele><time>2026-04-11T15:21:20.036Z</time></trkpt><trkpt lat="45.295105" lon="11.6966652"><ele>129.4</ele><time>2026-04-11T15:21:21.035Z</time></trkpt><trkpt lat="45.2950851" lon="11.6968191"><ele>129.6</ele><time>2026-04-11T15:21:22.036Z</time></trkpt><trkpt lat="45.2950655" lon="11.6969716"><ele>129.8</ele><time>2026-04-11T15:21:23.036Z</time></trkpt><trkpt lat="45.2950291" lon="11.6971191"><ele>130.0</ele><time>2026-04-11T15:21:24.035Z</time></trkpt><trkpt lat="45.2949716" lon="11.6972621"><ele>130.0</ele><time>2026-04-11T15:21:25.037Z</time></trkpt><trkpt lat="45.2948985" lon="11.6973849"><ele>130.0</ele><time>2026-04-11T15:21:26.036Z</time></trkpt><trkpt lat="45.2948173" lon="11.6975056"><ele>130.0</ele><time>2026-04-11T15:21:27.036Z</time></trkpt><trkpt lat="45.294736" lon="11.6976267"><ele>130.0</ele><time>2026-04-11T15:21:28.034Z</time></trkpt><trkpt lat="45.2946594" lon="11.6977451"><ele>131.0</ele><time>2026-04-11T15:21:29.037Z</time></trkpt><trkpt lat="45.294579" lon="11.6978616"><ele>132.0</ele><time>2026-04-11T15:21:30.036Z</time></trkpt><trkpt lat="45.2945015" lon="11.6979822"><ele>133.0</ele><time>2026-04-11T15:21:31.034Z</time></trkpt><trkpt lat="45.2944169" lon="11.6980992"><ele>134.0</ele><time>2026-04-11T15:21:32.036Z</time></trkpt><trkpt lat="45.2943405" lon="11.6982161"><ele>134.0</ele><time>2026-04-11T15:21:33.035Z</time></trkpt><trkpt lat="45.2942644" lon="11.6983366"><ele>134.0</ele><time>2026-04-11T15:21:34.036Z</time></trkpt><trkpt lat="45.2941912" lon="11.6984613"><ele>134.0</ele><time>2026-04-11T15:21:35.036Z</time></trkpt><trkpt lat="45.2941185" lon="11.698584"><ele>134.0</ele><time>2026-04-11T15:21:36.035Z</time></trkpt><trkpt lat="45.2940389" lon="11.6986906"><ele>137.0</ele><time>2026-04-11T15:21:37.036Z</time></trkpt><trkpt lat="45.2939501" lon="11.6987813"><ele>140.0</ele><time>2026-04-11T15:21:38.035Z</time></trkpt><trkpt lat="45.2938536" lon="11.6988597"><ele>143.0</ele><time>2026-04-11T15:21:39.036Z</time></trkpt><trkpt lat="45.2937456" lon="11.6989299"><ele>146.0</ele><time>2026-04-11T15:21:40.036Z</time></trkpt><trkpt lat="45.2936306" lon="11.69898"><ele>146.0</ele><time>2026-04-11T15:21:41.035Z</time></trkpt><trkpt lat="45.2935149" lon="11.6990232"><ele>146.0</ele><time>2026-04-11T15:21:42.035Z</time></trkpt><trkpt lat="45.2934044" lon="11.6990748"><ele>146.0</ele><time>2026-04-11T15:21:43.035Z</time></trkpt><trkpt lat="45.2932917" lon="11.6991471"><ele>146.0</ele><time>2026-04-11T15:21:44.035Z</time></trkpt><trkpt lat="45.2931819" lon="11.6992185"><ele>146.25</ele><time>2026-04-11T15:21:45.035Z</time></trkpt><trkpt lat="45.2930749" lon="11.6992946"><ele>146.5</ele><time>2026-04-11T15:21:46.036Z</time></trkpt><trkpt lat="45.2929661" lon="11.6993654"><ele>146.75</ele><time>2026-04-11T15:21:47.036Z</time></trkpt><trkpt lat="45.2928616" lon="11.6994393"><ele>147.0</ele><time>2026-04-11T15:21:48.037Z</time></trkpt><trkpt lat="45.2927668" lon="11.6995251"><ele>147.0</ele><time>2026-04-11T15:21:49.034Z</time></trkpt><trkpt lat="45.2926792" lon="11.6996195"><ele>147.0</ele><time>2026-04-11T15:21:50.035Z</time></trkpt><trkpt lat="45.2925993" lon="11.6997198"><ele>147.0</ele><time>2026-04-11T15:21:51.037Z</time></trkpt><trkpt lat="45.2925204" lon="11.69983"><ele>147.0</ele><time>2026-04-11T15:21:52.035Z</time></trkpt><trkpt lat="45.2924374" lon="11.6999386"><ele>147.0</ele><time>2026-04-11T15:21:53.037Z</time></trkpt><trkpt lat="45.2923551" lon="11.7000582"><ele>147.0</ele><time>2026-04-11T15:21:54.036Z</time></trkpt><trkpt lat="45.292269" lon="11.700178"><ele>147.0</ele><time>2026-04-11T15:21:55.036Z</time></trkpt><trkpt lat="45.2921888" lon="11.700308"><ele>147.0</ele><time>2026-04-11T15:21:56.036Z</time></trkpt><trkpt lat="45.2921104" lon="11.7004512"><ele>147.0</ele><time>2026-04-11T15:21:57.034Z</time></trkpt><trkpt lat="45.2920345" lon="11.7006033"><ele>150.25</ele><time>2026-04-11T15:21:58.035Z</time></trkpt><trkpt lat="45.2919657" lon="11.7007688"><ele>153.5</ele><time>2026-04-11T15:21:59.035Z</time></trkpt><trkpt lat="45.2918968" lon="11.7009427"><ele>156.75</ele><time>2026-04-11T15:22:00.036Z</time></trkpt><trkpt lat="45.2918327" lon="11.7011187"><ele>160.0</ele><time>2026-04-11T15:22:01.036Z</time></trkpt><trkpt lat="45.2917762" lon="11.701293"><ele>160.0</ele><time>2026-04-11T15:22:02.036Z</time></trkpt><trkpt lat="45.291721" lon="11.701467"><ele>160.0</ele><time>2026-04-11T15:22:03.035Z</time></trkpt><trkpt lat="45.2916747" lon="11.7016327"><ele>160.0</ele><time>2026-04-11T15:22:04.037Z</time></trkpt><trkpt lat="45.2916294" lon="11.7017809"><ele>160.0</ele><time>2026-04-11T15:22:05.037Z</time></trkpt><trkpt lat="45.2915818" lon="11.7019169"><ele>163.5</ele><time>2026-04-11T15:22:06.035Z</time></trkpt><trkpt lat="45.2915251" lon="11.7020485"><ele>167.0</ele><time>2026-04-11T15:22:07.035Z</time></trkpt><trkpt lat="45.2914587" lon="11.702185"><ele>170.5</ele><time>2026-04-11T15:22:08.035Z</time></trkpt><trkpt lat="45.291384" lon="11.702311"><ele>174.0</ele><time>2026-04-11T15:22:09.036Z</time></trkpt><trkpt lat="45.2912972" lon="11.7024279"><ele>175.5</ele><time>2026-04-11T15:22:10.035Z</time></trkpt><trkpt lat="45.2912008" lon="11.7025389"><ele>177.0</ele><time>2026-04-11T15:22:11.036Z</time></trkpt><trkpt lat="45.2910998" lon="11.7026525"><ele>178.5</ele><time>2026-04-11T15:22:12.036Z</time></trkpt><trkpt lat="45.2909969" lon="11.7027743"><ele>180.0</ele><time>2026-04-11T15:22:13.036Z</time></trkpt><trkpt lat="45.2908982" lon="11.7028879"><ele>182.5</ele><time>2026-04-11T15:22:14.037Z</time></trkpt><trkpt lat="45.2907965" lon="11.7029917"><ele>185.0</ele><time>2026-04-11T15:22:15.036Z</time></trkpt><trkpt lat="45.2906827" lon="11.7030728"><ele>187.5</ele><time>2026-04-11T15:22:16.037Z</time></trkpt><trkpt lat="45.2905628" lon="11.7031398"><ele>190.0</ele><time>2026-04-11T15:22:17.036Z</time></trkpt><trkpt lat="45.2904337" lon="11.7031867"><ele>190.0</ele><time>2026-04-11T15:22:18.036Z</time></trkpt><trkpt lat="45.290306" lon="11.7032289"><ele>190.0</ele><time>2026-04-11T15:22:19.038Z</time></trkpt><trkpt lat="45.2901922" lon="11.7032632"><ele>190.0</ele><time>2026-04-11T15:22:20.035Z</time></trkpt><trkpt lat="45.2900953" lon="11.703307"><ele>190.0</ele><time>2026-04-11T15:22:21.036Z</time></trkpt><trkpt lat="45.2900155" lon="11.7033488"><ele>190.0</ele><time>2026-04-11T15:22:22.034Z</time></trkpt><trkpt lat="45.2899485" lon="11.7033528"><ele>190.0</ele><time>2026-04-11T15:22:23.035Z</time></trkpt><trkpt lat="45.2898917" lon="11.7032476"><ele>190.0</ele><time>2026-04-11T15:22:25.035Z</time></trkpt><trkpt lat="45.2899194" lon="11.7031158"><ele>190.0</ele><time>2026-04-11T15:22:27.035Z</time></trkpt><trkpt lat="45.2900007" lon="11.7030748"><ele>190.0</ele><time>2026-04-11T15:22:28.035Z</time></trkpt><trkpt lat="45.2900777" lon="11.7030333"><ele>190.0</ele><time>2026-04-11T15:22:29.035Z</time></trkpt><trkpt lat="45.2901644" lon="11.7029948"><ele>190.0</ele><time>2026-04-11T15:22:30.036Z</time></trkpt><trkpt lat="45.2902482" lon="11.7029577"><ele>190.0</ele><time>2026-04-11T15:22:31.035Z</time></trkpt><trkpt lat="45.2903176" lon="11.7029206"><ele>190.0</ele><time>2026-04-11T15:22:32.035Z</time></trkpt><trkpt lat="45.2904113" lon="11.7028398"><ele>190.0</ele><time>2026-04-11T15:22:34.036Z</time></trkpt><trkpt lat="45.2903733" lon="11.7027395"><ele>190.0</ele><time>2026-04-11T15:22:37.035Z</time></trkpt><trkpt lat="45.2903002" lon="11.7027772"><ele>190.0</ele><time>2026-04-11T15:22:39.037Z</time></trkpt><trkpt lat="45.2901599" lon="11.702845"><ele>190.0</ele><time>2026-04-11T15:22:41.035Z</time></trkpt><trkpt lat="45.2900769" lon="11.7028824"><ele>190.0</ele><time>2026-04-11T15:22:42.036Z</time></trkpt><trkpt lat="45.289978" lon="11.7029211"><ele>190.0</ele><time>2026-04-11T15:22:43.036Z</time></trkpt><trkpt lat="45.2898637" lon="11.702967"><ele>190.0</ele><time>2026-04-11T15:22:44.036Z</time></trkpt><trkpt lat="45.2897501" lon="11.703032"><ele>190.0</ele><time>2026-04-11T15:22:45.036Z</time></trkpt><trkpt lat="45.2896383" lon="11.7031044"><ele>193.5</ele><time>2026-04-11T15:22:46.036Z</time></trkpt><trkpt lat="45.2895357" lon="11.7031757"><ele>197.0</ele><time>2026-04-11T15:22:47.036Z</time></trkpt><trkpt lat="45.2894383" lon="11.7032566"><ele>200.5</ele><time>2026-04-11T15:22:48.034Z</time></trkpt><trkpt lat="45.2893211" lon="11.7033248"><ele>204.0</ele><time>2026-04-11T15:22:49.036Z</time></trkpt><trkpt lat="45.2892111" lon="11.7033828"><ele>204.0</ele><time>2026-04-11T15:22:50.035Z</time></trkpt><trkpt lat="45.2890947" lon="11.7034368"><ele>204.0</ele><time>2026-04-11T15:22:51.035Z</time></trkpt><trkpt lat="45.289007" lon="11.7034665"><ele>204.0</ele><time>2026-04-11T15:22:52.036Z</time></trkpt><trkpt lat="45.2889295" lon="11.7034904"><ele>204.0</ele><time>2026-04-11T15:22:53.037Z</time></trkpt><trkpt lat="45.288848" lon="11.7034921"><ele>204.0</ele><time>2026-04-11T15:22:54.036Z</time></trkpt><trkpt lat="45.2887599" lon="11.7034811"><ele>207.2</ele><time>2026-04-11T15:22:55.036Z</time></trkpt><trkpt lat="45.2886681" lon="11.7034651"><ele>210.39999999999998</ele><time>2026-04-11T15:22:56.036Z</time></trkpt><trkpt lat="45.2886004" lon="11.7034302"><ele>213.6</ele><time>2026-04-11T15:22:57.035Z</time></trkpt><trkpt lat="45.2885132" lon="11.7033867"><ele>216.8</ele><time>2026-04-11T15:22:58.036Z</time></trkpt><trkpt lat="45.2884224" lon="11.7033476"><ele>220.0</ele><time>2026-04-11T15:22:59.036Z</time></trkpt><trkpt lat="45.2883199" lon="11.7033094"><ele>220.0</ele><time>2026-04-11T15:23:00.037Z</time></trkpt><trkpt lat="45.2882167" lon="11.7032584"><ele>220.0</ele><time>2026-04-11T15:23:01.036Z</time></trkpt><trkpt lat="45.2881173" lon="11.7032108"><ele>220.0</ele><time>2026-04-11T15:23:02.037Z</time></trkpt><trkpt lat="45.2880235" lon="11.7031862"><ele>220.0</ele><time>2026-04-11T15:23:03.036Z</time></trkpt><trkpt lat="45.2879387" lon="11.7031944"><ele>220.0</ele><time>2026-04-11T15:23:04.035Z</time></trkpt><trkpt lat="45.2878701" lon="11.7032287"><ele>222.16666666666666</ele><time>2026-04-11T15:23:05.035Z</time></trkpt><trkpt lat="45.2877631" lon="11.7032286"><ele>224.33333333333331</ele><time>2026-04-11T15:23:07.035Z</time></trkpt><trkpt lat="45.2877513" lon="11.7031229"><ele>226.5</ele><time>2026-04-11T15:23:09.036Z</time></trkpt><trkpt lat="45.2878386" lon="11.7030476"><ele>228.66666666666669</ele><time>2026-04-11T15:23:11.035Z</time></trkpt><trkpt lat="45.2879066" lon="11.7030158"><ele>230.83333333333334</ele><time>2026-04-11T15:23:12.036Z</time></trkpt><trkpt lat="45.2879711" lon="11.7029754"><ele>233.0</ele><time>2026-04-11T15:23:13.036Z</time></trkpt><trkpt lat="45.2880263" lon="11.7029241"><ele>233.00000000000003</ele><time>2026-04-11T15:23:14.036Z</time></trkpt><trkpt lat="45.2880802" lon="11.7028774"><ele>233.0</ele><time>2026-04-11T15:23:15.037Z</time></trkpt><trkpt lat="45.2881096" lon="11.7027647"><ele>233.0</ele><time>2026-04-11T15:23:17.035Z</time></trkpt><trkpt lat="45.2880517" lon="11.7027103"><ele>233.0</ele><time>2026-04-11T15:23:19.035Z</time></trkpt><trkpt lat="45.2879262" lon="11.7027605"><ele>233.00000000000003</ele><time>2026-04-11T15:23:21.036Z</time></trkpt><trkpt lat="45.2878406" lon="11.7027878"><ele>233.0</ele><time>2026-04-11T15:23:22.036Z</time></trkpt><trkpt lat="45.2877479" lon="11.7028058"><ele>233.0</ele><time>2026-04-11T15:23:23.037Z</time></trkpt><trkpt lat="45.2876365" lon="11.7028267"><ele>233.0</ele><time>2026-04-11T15:23:24.037Z</time></trkpt><trkpt lat="45.2875098" lon="11.7028538"><ele>233.0</ele><time>2026-04-11T15:23:25.036Z</time></trkpt><trkpt lat="45.2873866" lon="11.7028856"><ele>233.0</ele><time>2026-04-11T15:23:26.037Z</time></trkpt><trkpt lat="45.2872729" lon="11.7029164"><ele>234.16666666666669</ele><time>2026-04-11T15:23:27.035Z</time></trkpt><trkpt lat="45.2871784" lon="11.7029453"><ele>235.33333333333334</ele><time>2026-04-11T15:23:28.037Z</time></trkpt><trkpt lat="45.2871037" lon="11.7029749"><ele>236.5</ele><time>2026-04-11T15:23:29.035Z</time></trkpt><trkpt lat="45.2870416" lon="11.7029945"><ele>237.66666666666669</ele><time>2026-04-11T15:23:30.036Z</time></trkpt><trkpt lat="45.2869615" lon="11.7030315"><ele>238.83333333333334</ele><time>2026-04-11T15:23:32.036Z</time></trkpt><trkpt lat="45.2868944" lon="11.7030939"><ele>240.0</ele><time>2026-04-11T15:23:35.036Z</time></trkpt><trkpt lat="45.2868326" lon="11.7031986"><ele>240.0</ele><time>2026-04-11T15:23:37.035Z</time></trkpt><trkpt lat="45.2867551" lon="11.7033146"><ele>240.0</ele><time>2026-04-11T15:23:39.036Z</time></trkpt><trkpt lat="45.286707" lon="11.7034233"><ele>240.0</ele><time>2026-04-11T15:23:41.035Z</time></trkpt><trkpt lat="45.2867381" lon="11.7035602"><ele>240.0</ele><time>2026-04-11T15:23:44.037Z</time></trkpt><trkpt lat="45.286786" lon="11.703695"><ele>240.0</ele><time>2026-04-11T15:23:46.037Z</time></trkpt><trkpt lat="45.2868094" lon="11.703779"><ele>241.83333333333334</ele><time>2026-04-11T15:23:47.036Z</time></trkpt><trkpt lat="45.2868234" lon="11.703875"><ele>243.66666666666669</ele><time>2026-04-11T15:23:48.037Z</time></trkpt><trkpt lat="45.2868047" lon="11.7039772"><ele>245.5</ele><time>2026-04-11T15:23:49.036Z</time></trkpt><trkpt lat="45.2868031" lon="11.704076"><ele>247.33333333333334</ele><time>2026-04-11T15:23:50.036Z</time></trkpt><trkpt lat="45.2868163" lon="11.7041797"><ele>249.16666666666669</ele><time>2026-04-11T15:23:51.035Z</time></trkpt><trkpt lat="45.2868402" lon="11.7042869"><ele>251.0</ele><time>2026-04-11T15:23:52.036Z</time></trkpt><trkpt lat="45.2869097" lon="11.7043892"><ele>253.4</ele><time>2026-04-11T15:23:53.037Z</time></trkpt><trkpt lat="45.2869749" lon="11.7044929"><ele>255.8</ele><time>2026-04-11T15:23:54.037Z</time></trkpt><trkpt lat="45.2870441" lon="11.7045821"><ele>258.20000000000005</ele><time>2026-04-11T15:23:55.036Z</time></trkpt><trkpt lat="45.2871271" lon="11.7046578"><ele>260.6</ele><time>2026-04-11T15:23:56.035Z</time></trkpt><trkpt lat="45.2872198" lon="11.7047531"><ele>263.0</ele><time>2026-04-11T15:23:57.035Z</time></trkpt><trkpt lat="45.2873283" lon="11.7048785"><ele>263.0</ele><time>2026-04-11T15:23:58.036Z</time></trkpt><trkpt lat="45.2874332" lon="11.7049965"><ele>263.0</ele><time>2026-04-11T15:23:59.037Z</time></trkpt><trkpt lat="45.2875225" lon="11.7051063"><ele>263.0</ele><time>2026-04-11T15:24:00.037Z</time></trkpt><trkpt lat="45.2876092" lon="11.7052119"><ele>263.0</ele><time>2026-04-11T15:24:01.034Z</time></trkpt><trkpt lat="45.2876726" lon="11.705291"><ele>264.2857142857143</ele><time>2026-04-11T15:24:02.035Z</time></trkpt><trkpt lat="45.2877217" lon="11.7053873"><ele>265.57142857142856</ele><time>2026-04-11T15:24:03.036Z</time></trkpt><trkpt lat="45.2877507" lon="11.7054793"><ele>266.85714285714283</ele><time>2026-04-11T15:24:04.036Z</time></trkpt><trkpt lat="45.287761" lon="11.7055732"><ele>268.1428571428571</ele><time>2026-04-11T15:24:05.035Z</time></trkpt><trkpt lat="45.287754" lon="11.7056684"><ele>269.42857142857144</ele><time>2026-04-11T15:24:06.036Z</time></trkpt><trkpt lat="45.2877315" lon="11.7057681"><ele>270.71428571428567</ele><time>2026-04-11T15:24:07.036Z</time></trkpt><trkpt lat="45.2877151" lon="11.7058749"><ele>272.0</ele><time>2026-04-11T15:24:08.037Z</time></trkpt><trkpt lat="45.2877166" lon="11.7059898"><ele>270.6666666666667</ele><time>2026-04-11T15:24:09.037Z</time></trkpt><trkpt lat="45.2877278" lon="11.7060984"><ele>269.33333333333337</ele><time>2026-04-11T15:24:10.036Z</time></trkpt><trkpt lat="45.2877591" lon="11.7061981"><ele>268.0</ele><time>2026-04-11T15:24:11.035Z</time></trkpt><trkpt lat="45.2878134" lon="11.7062929"><ele>266.6666666666667</ele><time>2026-04-11T15:24:12.037Z</time></trkpt><trkpt lat="45.2878843" lon="11.7063779"><ele>265.3333333333333</ele><time>2026-04-11T15:24:13.036Z</time></trkpt><trkpt lat="45.2879791" lon="11.7064529"><ele>264.0</ele><time>2026-04-11T15:24:14.037Z</time></trkpt><trkpt lat="45.288076" lon="11.7065181"><ele>266.0</ele><time>2026-04-11T15:24:15.036Z</time></trkpt><trkpt lat="45.2881686" lon="11.7065797"><ele>268.0</ele><time>2026-04-11T15:24:16.037Z</time></trkpt><trkpt lat="45.2882651" lon="11.7066522"><ele>270.0</ele><time>2026-04-11T15:24:17.037Z</time></trkpt><trkpt lat="45.2883524" lon="11.7067388"><ele>272.0</ele><time>2026-04-11T15:24:18.037Z</time></trkpt><trkpt lat="45.2884347" lon="11.70684"><ele>274.0</ele><time>2026-04-11T15:24:19.036Z</time></trkpt><trkpt lat="45.2885102" lon="11.7069545"><ele>275.2</ele><time>2026-04-11T15:24:20.035Z</time></trkpt><trkpt lat="45.2885864" lon="11.7070733"><ele>276.4</ele><time>2026-04-11T15:24:21.037Z</time></trkpt><trkpt lat="45.2886632" lon="11.7071976"><ele>277.6</ele><time>2026-04-11T15:24:22.036Z</time></trkpt><trkpt lat="45.2887361" lon="11.7073214"><ele>278.8</ele><time>2026-04-11T15:24:23.036Z</time></trkpt><trkpt lat="45.2888056" lon="11.7074357"><ele>280.0</ele><time>2026-04-11T15:24:24.036Z</time></trkpt><trkpt lat="45.2888742" lon="11.7075371"><ele>281.0</ele><time>2026-04-11T15:24:25.036Z</time></trkpt><trkpt lat="45.2889446" lon="11.7076179"><ele>282.0</ele><time>2026-04-11T15:24:26.037Z</time></trkpt><trkpt lat="45.2890246" lon="11.707667"><ele>283.0</ele><time>2026-04-11T15:24:27.036Z</time></trkpt><trkpt lat="45.2891064" lon="11.7077043"><ele>284.0</ele><time>2026-04-11T15:24:28.036Z</time></trkpt><trkpt lat="45.2891926" lon="11.7077314"><ele>285.0</ele><time>2026-04-11T15:24:29.036Z</time></trkpt><trkpt lat="45.2892851" lon="11.7077396"><ele>286.0</ele><time>2026-04-11T15:24:30.036Z</time></trkpt><trkpt lat="45.2893735" lon="11.7077299"><ele>286.0</ele><time>2026-04-11T15:24:31.037Z</time></trkpt><trkpt lat="45.2894457" lon="11.7076791"><ele>286.0</ele><time>2026-04-11T15:24:32.035Z</time></trkpt><trkpt lat="45.2895102" lon="11.707603"><ele>286.0</ele><time>2026-04-11T15:24:33.037Z</time></trkpt><trkpt lat="45.2895695" lon="11.7075086"><ele>286.0</ele><time>2026-04-11T15:24:34.036Z</time></trkpt><trkpt lat="45.2896207" lon="11.7073942"><ele>286.0</ele><time>2026-04-11T15:24:35.035Z</time></trkpt><trkpt lat="45.2896907" lon="11.7073114"><ele>286.0</ele><time>2026-04-11T15:24:36.037Z</time></trkpt><trkpt lat="45.2897687" lon="11.7072417"><ele>288.2</ele><time>2026-04-11T15:24:37.036Z</time></trkpt><trkpt lat="45.2898506" lon="11.7071858"><ele>290.40000000000003</ele><time>2026-04-11T15:24:38.035Z</time></trkpt><trkpt lat="45.2899418" lon="11.7071577"><ele>292.6</ele><time>2026-04-11T15:24:39.036Z</time></trkpt><trkpt lat="45.290036" lon="11.7071414"><ele>294.8</ele><time>2026-04-11T15:24:40.036Z</time></trkpt><trkpt lat="45.2901272" lon="11.7071447"><ele>297.0</ele><time>2026-04-11T15:24:41.036Z</time></trkpt><trkpt lat="45.2902184" lon="11.7071668"><ele>297.0</ele><time>2026-04-11T15:24:42.035Z</time></trkpt><trkpt lat="45.2903079" lon="11.707188"><ele>297.0</ele><time>2026-04-11T15:24:43.036Z</time></trkpt><trkpt lat="45.2903949" lon="11.7072103"><ele>297.0</ele><time>2026-04-11T15:24:44.037Z</time></trkpt><trkpt lat="45.2904869" lon="11.707224"><ele>297.0</ele><time>2026-04-11T15:24:45.036Z</time></trkpt><trkpt lat="45.2905801" lon="11.7072112"><ele>297.0</ele><time>2026-04-11T15:24:46.035Z</time></trkpt><trkpt lat="45.2906664" lon="11.7071839"><ele>297.8333333333333</ele><time>2026-04-11T15:24:47.036Z</time></trkpt><trkpt lat="45.2907503" lon="11.7071445"><ele>298.6666666666667</ele><time>2026-04-11T15:24:48.036Z</time></trkpt><trkpt lat="45.2908269" lon="11.7070745"><ele>299.5</ele><time>2026-04-11T15:24:49.036Z</time></trkpt><trkpt lat="45.2909" lon="11.7070124"><ele>300.33333333333337</ele><time>2026-04-11T15:24:50.037Z</time></trkpt><trkpt lat="45.2909653" lon="11.7070023"><ele>301.1666666666667</ele><time>2026-04-11T15:24:51.037Z</time></trkpt><trkpt lat="45.2910752" lon="11.7070475"><ele>302.0</ele><time>2026-04-11T15:24:53.036Z</time></trkpt><trkpt lat="45.2911285" lon="11.7071059"><ele>302.0</ele><time>2026-04-11T15:24:54.036Z</time></trkpt><trkpt lat="45.2911871" lon="11.7071611"><ele>302.0</ele><time>2026-04-11T15:24:55.036Z</time></trkpt><trkpt lat="45.2912674" lon="11.7072037"><ele>302.0</ele><time>2026-04-11T15:24:56.035Z</time></trkpt><trkpt lat="45.2913615" lon="11.7072242"><ele>302.0</ele><time>2026-04-11T15:24:57.037Z</time></trkpt><trkpt lat="45.291458" lon="11.7072417"><ele>302.0</ele><time>2026-04-11T15:24:58.037Z</time></trkpt><trkpt lat="45.2915474" lon="11.707276"><ele>302.0</ele><time>2026-04-11T15:24:59.037Z</time></trkpt><trkpt lat="45.2916286" lon="11.7073171"><ele>302.5</ele><time>2026-04-11T15:25:00.036Z</time></trkpt><trkpt lat="45.2917008" lon="11.7073613"><ele>303.0</ele><time>2026-04-11T15:25:01.035Z</time></trkpt><trkpt lat="45.2917671" lon="11.7074128"><ele>303.5</ele><time>2026-04-11T15:25:02.036Z</time></trkpt><trkpt lat="45.2918363" lon="11.7074914"><ele>304.0</ele><time>2026-04-11T15:25:03.035Z</time></trkpt><trkpt lat="45.2919157" lon="11.7075589"><ele>304.5</ele><time>2026-04-11T15:25:04.036Z</time></trkpt><trkpt lat="45.2920033" lon="11.7076101"><ele>305.0</ele><time>2026-04-11T15:25:05.035Z</time></trkpt><trkpt lat="45.2921064" lon="11.7076422"><ele>305.0</ele><time>2026-04-11T15:25:06.036Z</time></trkpt><trkpt lat="45.2922198" lon="11.7076552"><ele>305.0</ele><time>2026-04-11T15:25:07.036Z</time></trkpt><trkpt lat="45.2923332" lon="11.707664"><ele>305.0</ele><time>2026-04-11T15:25:08.035Z</time></trkpt><trkpt lat="45.2924408" lon="11.7076691"><ele>305.0</ele><time>2026-04-11T15:25:09.035Z</time></trkpt><trkpt lat="45.2925377" lon="11.7076822"><ele>305.0</ele><time>2026-04-11T15:25:10.035Z</time></trkpt><trkpt lat="45.2926332" lon="11.7076878"><ele>305.0</ele><time>2026-04-11T15:25:11.036Z</time></trkpt><trkpt lat="45.2927264" lon="11.7076943"><ele>305.0</ele><time>2026-04-11T15:25:12.037Z</time></trkpt><trkpt lat="45.2928166" lon="11.7077136"><ele>305.0</ele><time>2026-04-11T15:25:13.036Z</time></trkpt><trkpt lat="45.2929036" lon="11.707728"><ele>305.0</ele><time>2026-04-11T15:25:14.036Z</time></trkpt><trkpt lat="45.2929921" lon="11.7077531"><ele>305.0</ele><time>2026-04-11T15:25:15.037Z</time></trkpt><trkpt lat="45.2930763" lon="11.7077804"><ele>305.0</ele><time>2026-04-11T15:25:16.036Z</time></trkpt><trkpt lat="45.29315" lon="11.7078105"><ele>305.0</ele><time>2026-04-11T15:25:17.036Z</time></trkpt><trkpt lat="45.2932147" lon="11.7078407"><ele>305.0</ele><time>2026-04-11T15:25:18.035Z</time></trkpt><trkpt lat="45.2932784" lon="11.7078637"><ele>305.0</ele><time>2026-04-11T15:25:19.035Z</time></trkpt><trkpt lat="45.2933896" lon="11.7078954"><ele>305.0</ele><time>2026-04-11T15:25:21.035Z</time></trkpt><trkpt lat="45.2934885" lon="11.7079392"><ele>305.0</ele><time>2026-04-11T15:25:23.036Z</time></trkpt><trkpt lat="45.2935815" lon="11.7079576"><ele>305.0</ele><time>2026-04-11T15:25:25.037Z</time></trkpt><trkpt lat="45.293645" lon="11.7079698"><ele>305.0</ele><time>2026-04-11T15:25:28.035Z</time></trkpt><trkpt lat="45.2937381" lon="11.7079357"><ele>305.0</ele><time>2026-04-11T15:25:31.037Z</time></trkpt><trkpt lat="45.2938435" lon="11.7079061"><ele>305.0</ele><time>2026-04-11T15:25:33.035Z</time></trkpt><trkpt lat="45.2939337" lon="11.7078814"><ele>305.0</ele><time>2026-04-11T15:25:34.035Z</time></trkpt><trkpt lat="45.2940269" lon="11.7078374"><ele>305.0</ele><time>2026-04-11T15:25:35.036Z</time></trkpt><trkpt lat="45.2941228" lon="11.7078018"><ele>306.75</ele><time>2026-04-11T15:25:36.035Z</time></trkpt><trkpt lat="45.2942391" lon="11.7077618"><ele>308.5</ele><time>2026-04-11T15:25:37.036Z</time></trkpt><trkpt lat="45.2943648" lon="11.7077215"><ele>310.25</ele><time>2026-04-11T15:25:38.035Z</time></trkpt><trkpt lat="45.2944955" lon="11.7076906"><ele>312.0</ele><time>2026-04-11T15:25:39.036Z</time></trkpt><trkpt lat="45.294628" lon="11.7076517"><ele>314.75</ele><time>2026-04-11T15:25:40.037Z</time></trkpt><trkpt lat="45.2947555" lon="11.7076123"><ele>317.5</ele><time>2026-04-11T15:25:41.036Z</time></trkpt><trkpt lat="45.294882" lon="11.7075649"><ele>320.25</ele><time>2026-04-11T15:25:42.037Z</time></trkpt><trkpt lat="45.2950102" lon="11.707495"><ele>323.0</ele><time>2026-04-11T15:25:43.035Z</time></trkpt><trkpt lat="45.2951401" lon="11.7074018"><ele>323.0</ele><time>2026-04-11T15:25:44.036Z</time></trkpt><trkpt lat="45.2952608" lon="11.7072839"><ele>323.0</ele><time>2026-04-11T15:25:45.035Z</time></trkpt><trkpt lat="45.2953648" lon="11.7071651"><ele>323.0</ele><time>2026-04-11T15:25:46.036Z</time></trkpt><trkpt lat="45.2954517" lon="11.7070574"><ele>323.0</ele><time>2026-04-11T15:25:47.035Z</time></trkpt><trkpt lat="45.2955261" lon="11.7069714"><ele>323.4</ele><time>2026-04-11T15:25:48.036Z</time></trkpt><trkpt lat="45.2955943" lon="11.7069018"><ele>323.79999999999995</ele><time>2026-04-11T15:25:49.035Z</time></trkpt><trkpt lat="45.2956724" lon="11.7068528"><ele>324.2</ele><time>2026-04-11T15:25:50.036Z</time></trkpt><trkpt lat="45.2957558" lon="11.7068071"><ele>324.6</ele><time>2026-04-11T15:25:51.037Z</time></trkpt><trkpt lat="45.2958476" lon="11.7067576"><ele>325.0</ele><time>2026-04-11T15:25:52.037Z</time></trkpt><trkpt lat="45.2959445" lon="11.7067066"><ele>325.0</ele><time>2026-04-11T15:25:53.036Z</time></trkpt><trkpt lat="45.2960496" lon="11.7066523"><ele>325.0</ele><time>2026-04-11T15:25:54.037Z</time></trkpt><trkpt lat="45.2961578" lon="11.7065856"><ele>325.0</ele><time>2026-04-11T15:25:55.036Z</time></trkpt><trkpt lat="45.2962742" lon="11.7065258"><ele>325.0</ele><time>2026-04-11T15:25:56.037Z</time></trkpt><trkpt lat="45.2963919" lon="11.7064663"><ele>327.0</ele><time>2026-04-11T15:25:57.035Z</time></trkpt><trkpt lat="45.2965132" lon="11.7064082"><ele>329.0</ele><time>2026-04-11T15:25:58.036Z</time></trkpt><trkpt lat="45.2966298" lon="11.7063335"><ele>331.0</ele><time>2026-04-11T15:25:59.036Z</time></trkpt><trkpt lat="45.2967325" lon="11.7062331"><ele>333.0</ele><time>2026-04-11T15:26:00.036Z</time></trkpt><trkpt lat="45.2968202" lon="11.7061051"><ele>330.25</ele><time>2026-04-11T15:26:01.035Z</time></trkpt><trkpt lat="45.2969054" lon="11.705976"><ele>327.5</ele><time>2026-04-11T15:26:02.036Z</time></trkpt><trkpt lat="45.2969964" lon="11.7058647"><ele>324.75</ele><time>2026-04-11T15:26:03.036Z</time></trkpt><trkpt lat="45.2970875" lon="11.7057561"><ele>322.0</ele><time>2026-04-11T15:26:04.036Z</time></trkpt><trkpt lat="45.2971824" lon="11.7056795"><ele>325.6</ele><time>2026-04-11T15:26:05.036Z</time></trkpt><trkpt lat="45.2972755" lon="11.7055959"><ele>329.20000000000005</ele><time>2026-04-11T15:26:06.036Z</time></trkpt><trkpt lat="45.2973697" lon="11.7055181"><ele>332.8</ele><time>2026-04-11T15:26:07.035Z</time></trkpt><trkpt lat="45.2974616" lon="11.705447"><ele>336.4</ele><time>2026-04-11T15:26:08.035Z</time></trkpt><trkpt lat="45.2975491" lon="11.7053739"><ele>340.0</ele><time>2026-04-11T15:26:09.036Z</time></trkpt><trkpt lat="45.2976358" lon="11.7052971"><ele>338.4</ele><time>2026-04-11T15:26:10.037Z</time></trkpt><trkpt lat="45.2977243" lon="11.7052196"><ele>336.8</ele><time>2026-04-11T15:26:11.037Z</time></trkpt><trkpt lat="45.2978023" lon="11.705131"><ele>335.20000000000005</ele><time>2026-04-11T15:26:12.036Z</time></trkpt><trkpt lat="45.2978669" lon="11.7050168"><ele>333.6</ele><time>2026-04-11T15:26:13.035Z</time></trkpt><trkpt lat="45.2979186" lon="11.7048937"><ele>332.0</ele><time>2026-04-11T15:26:14.036Z</time></trkpt><trkpt lat="45.2979679" lon="11.704765"><ele>332.0</ele><time>2026-04-11T15:26:15.036Z</time></trkpt><trkpt lat="45.2980233" lon="11.704672"><ele>332.0</ele><time>2026-04-11T15:26:16.036Z</time></trkpt><trkpt lat="45.2980674" lon="11.7046002"><ele>332.0</ele><time>2026-04-11T15:26:17.037Z</time></trkpt><trkpt lat="45.2981158" lon="11.7045407"><ele>332.0</ele><time>2026-04-11T15:26:18.036Z</time></trkpt><trkpt lat="45.2981742" lon="11.704486"><ele>332.0</ele><time>2026-04-11T15:26:19.035Z</time></trkpt><trkpt lat="45.2982377" lon="11.7044429"><ele>332.0</ele><time>2026-04-11T15:26:20.037Z</time></trkpt><trkpt lat="45.2983035" lon="11.7044027"><ele>332.0</ele><time>2026-04-11T15:26:21.037Z</time></trkpt><trkpt lat="45.2984021" lon="11.7043478"><ele>332.2857142857143</ele><time>2026-04-11T15:26:23.036Z</time></trkpt><trkpt lat="45.2984592" lon="11.7042904"><ele>332.5714285714286</ele><time>2026-04-11T15:26:26.036Z</time></trkpt><trkpt lat="45.298522" lon="11.7042463"><ele>332.8571428571429</ele><time>2026-04-11T15:26:47.036Z</time></trkpt><trkpt lat="45.2985915" lon="11.7041762"><ele>333.1428571428571</ele><time>2026-04-11T15:26:50.035Z</time></trkpt><trkpt lat="45.2986377" lon="11.704107"><ele>333.42857142857144</ele><time>2026-04-11T15:26:56.036Z</time></trkpt><trkpt lat="45.2986823" lon="11.7040299"><ele>333.7142857142857</ele><time>2026-04-11T15:27:01.035Z</time></trkpt><trkpt lat="45.2987154" lon="11.703953"><ele>334.0</ele><time>2026-04-11T15:27:09.037Z</time></trkpt><trkpt lat="45.2987336" lon="11.7038482"><ele>334.0</ele><time>2026-04-11T15:27:12.035Z</time></trkpt><trkpt lat="45.2987535" lon="11.7037448"><ele>334.0</ele><time>2026-04-11T15:27:14.035Z</time></trkpt><trkpt lat="45.298773" lon="11.7036182"><ele>334.0</ele><time>2026-04-11T15:27:16.037Z</time></trkpt><trkpt lat="45.2987943" lon="11.7034741"><ele>334.0</ele><time>2026-04-11T15:27:18.037Z</time></trkpt><trkpt lat="45.2988372" lon="11.7033164"><ele>334.0</ele><time>2026-04-11T15:27:20.037Z</time></trkpt><trkpt lat="45.2988945" lon="11.7031643"><ele>335.5</ele><time>2026-04-11T15:27:22.036Z</time></trkpt><trkpt lat="45.2989805" lon="11.7030315"><ele>337.0</ele><time>2026-04-11T15:27:24.036Z</time></trkpt><trkpt lat="45.2990316" lon="11.7029773"><ele>338.5</ele><time>2026-04-11T15:27:25.036Z</time></trkpt><trkpt lat="45.2990939" lon="11.7029342"><ele>340.0</ele><time>2026-04-11T15:27:26.037Z</time></trkpt><trkpt lat="45.2991526" lon="11.702901"><ele>341.5</ele><time>2026-04-11T15:27:27.035Z</time></trkpt><trkpt lat="45.2992216" lon="11.7028734"><ele>343.0</ele><time>2026-04-11T15:27:28.035Z</time></trkpt><trkpt lat="45.299286" lon="11.7028507"><ele>343.0</ele><time>2026-04-11T15:27:29.035Z</time></trkpt><trkpt lat="45.2993572" lon="11.7028453"><ele>343.0</ele><time>2026-04-11T15:27:30.037Z</time></trkpt><trkpt lat="45.2994301" lon="11.7028456"><ele>343.0</ele><time>2026-04-11T15:27:31.035Z</time></trkpt><trkpt lat="45.2995033" lon="11.7028478"><ele>343.0</ele><time>2026-04-11T15:27:32.036Z</time></trkpt><trkpt lat="45.2995784" lon="11.7028336"><ele>343.0</ele><time>2026-04-11T15:27:33.037Z</time></trkpt><trkpt lat="45.2996467" lon="11.7028221"><ele>343.0</ele><time>2026-04-11T15:27:34.035Z</time></trkpt><trkpt lat="45.299719" lon="11.7028424"><ele>343.0</ele><time>2026-04-11T15:27:35.036Z</time></trkpt><trkpt lat="45.2997971" lon="11.7028641"><ele>344.8333333333333</ele><time>2026-04-11T15:27:36.036Z</time></trkpt><trkpt lat="45.299874" lon="11.7028865"><ele>346.66666666666663</ele><time>2026-04-11T15:27:37.035Z</time></trkpt><trkpt lat="45.2999474" lon="11.7029001"><ele>348.5</ele><time>2026-04-11T15:27:38.036Z</time></trkpt><trkpt lat="45.3000266" lon="11.702908"><ele>350.3333333333333</ele><time>2026-04-11T15:27:39.036Z</time></trkpt><trkpt lat="45.300102" lon="11.7028981"><ele>352.1666666666667</ele><time>2026-04-11T15:27:40.037Z</time></trkpt><trkpt lat="45.3001807" lon="11.7028711"><ele>354.0</ele><time>2026-04-11T15:27:41.037Z</time></trkpt><trkpt lat="45.300264" lon="11.7028239"><ele>354.0</ele><time>2026-04-11T15:27:42.037Z</time></trkpt><trkpt lat="45.3003368" lon="11.7027649"><ele>354.0</ele><time>2026-04-11T15:27:43.037Z</time></trkpt><trkpt lat="45.300398" lon="11.7027038"><ele>354.0</ele><time>2026-04-11T15:27:44.036Z</time></trkpt><trkpt lat="45.3004447" lon="11.7026365"><ele>354.0</ele><time>2026-04-11T15:27:45.037Z</time></trkpt><trkpt lat="45.3005022" lon="11.702488"><ele>354.0</ele><time>2026-04-11T15:27:47.037Z</time></trkpt><trkpt lat="45.3005362" lon="11.7023785"><ele>354.0</ele><time>2026-04-11T15:27:48.036Z</time></trkpt><trkpt lat="45.3005955" lon="11.7022127"><ele>352.0</ele><time>2026-04-11T15:27:49.035Z</time></trkpt><trkpt lat="45.3006553" lon="11.7020413"><ele>350.0</ele><time>2026-04-11T15:27:50.037Z</time></trkpt><trkpt lat="45.3007097" lon="11.7018911"><ele>348.0</ele><time>2026-04-11T15:27:51.036Z</time></trkpt><trkpt lat="45.3007671" lon="11.7017575"><ele>346.0</ele><time>2026-04-11T15:27:52.036Z</time></trkpt><trkpt lat="45.300821" lon="11.7016605"><ele>342.8</ele><time>2026-04-11T15:27:53.035Z</time></trkpt><trkpt lat="45.3008794" lon="11.7015695"><ele>339.6</ele><time>2026-04-11T15:27:54.035Z</time></trkpt><trkpt lat="45.3009568" lon="11.7014823"><ele>336.4</ele><time>2026-04-11T15:27:55.035Z</time></trkpt><trkpt lat="45.3010545" lon="11.7014058"><ele>333.2</ele><time>2026-04-11T15:27:56.035Z</time></trkpt><trkpt lat="45.301155" lon="11.7013533"><ele>330.0</ele><time>2026-04-11T15:27:57.035Z</time></trkpt><trkpt lat="45.3012644" lon="11.7013079"><ele>330.0</ele><time>2026-04-11T15:27:58.035Z</time></trkpt><trkpt lat="45.3013739" lon="11.7012689"><ele>330.0</ele><time>2026-04-11T15:27:59.036Z</time></trkpt><trkpt lat="45.3014792" lon="11.7012249"><ele>330.0</ele><time>2026-04-11T15:28:00.035Z</time></trkpt><trkpt lat="45.3015806" lon="11.7011804"><ele>330.0</ele><time>2026-04-11T15:28:01.036Z</time></trkpt><trkpt lat="45.3016851" lon="11.7011348"><ele>330.0</ele><time>2026-04-11T15:28:02.037Z</time></trkpt><trkpt lat="45.301786" lon="11.7010991"><ele>327.8</ele><time>2026-04-11T15:28:03.035Z</time></trkpt><trkpt lat="45.3018835" lon="11.7010666"><ele>325.6</ele><time>2026-04-11T15:28:04.035Z</time></trkpt><trkpt lat="45.3019703" lon="11.7010279"><ele>323.4</ele><time>2026-04-11T15:28:05.036Z</time></trkpt><trkpt lat="45.3020502" lon="11.7009745"><ele>321.2</ele><time>2026-04-11T15:28:06.037Z</time></trkpt><trkpt lat="45.3021252" lon="11.7009142"><ele>319.0</ele><time>2026-04-11T15:28:07.035Z</time></trkpt><trkpt lat="45.3021915" lon="11.700837"><ele>319.0</ele><time>2026-04-11T15:28:08.036Z</time></trkpt><trkpt lat="45.3022469" lon="11.7007582"><ele>319.0</ele><time>2026-04-11T15:28:09.036Z</time></trkpt><trkpt lat="45.3022934" lon="11.7006896"><ele>319.0</ele><time>2026-04-11T15:28:10.036Z</time></trkpt><trkpt lat="45.3023405" lon="11.7005124"><ele>319.0</ele><time>2026-04-11T15:28:12.037Z</time></trkpt><trkpt lat="45.3023734" lon="11.7004183"><ele>319.0</ele><time>2026-04-11T15:28:13.037Z</time></trkpt><trkpt lat="45.3024116" lon="11.7003416"><ele>319.0</ele><time>2026-04-11T15:28:14.037Z</time></trkpt><trkpt lat="45.3025039" lon="11.7002159"><ele>317.8333333333333</ele><time>2026-04-11T15:28:16.036Z</time></trkpt><trkpt lat="45.3025636" lon="11.7001606"><ele>316.66666666666663</ele><time>2026-04-11T15:28:17.037Z</time></trkpt><trkpt lat="45.3026389" lon="11.7001359"><ele>315.5</ele><time>2026-04-11T15:28:18.036Z</time></trkpt><trkpt lat="45.3027177" lon="11.7001463"><ele>314.3333333333333</ele><time>2026-04-11T15:28:19.037Z</time></trkpt><trkpt lat="45.3027991" lon="11.7001682"><ele>313.1666666666667</ele><time>2026-04-11T15:28:20.037Z</time></trkpt><trkpt lat="45.3028804" lon="11.70018"><ele>312.0</ele><time>2026-04-11T15:28:21.036Z</time></trkpt><trkpt lat="45.3029628" lon="11.7001716"><ele>312.0</ele><time>2026-04-11T15:28:22.036Z</time></trkpt><trkpt lat="45.3030348" lon="11.7001032"><ele>312.0</ele><time>2026-04-11T15:28:23.035Z</time></trkpt><trkpt lat="45.3031001" lon="11.700028"><ele>312.0</ele><time>2026-04-11T15:28:24.035Z</time></trkpt><trkpt lat="45.3031523" lon="11.6999324"><ele>312.0</ele><time>2026-04-11T15:28:25.038Z</time></trkpt><trkpt lat="45.3032117" lon="11.6998357"><ele>312.0</ele><time>2026-04-11T15:28:26.035Z</time></trkpt><trkpt lat="45.3032807" lon="11.6997615"><ele>312.0</ele><time>2026-04-11T15:28:27.036Z</time></trkpt><trkpt lat="45.3033446" lon="11.6996963"><ele>313.6666666666667</ele><time>2026-04-11T15:28:28.035Z</time></trkpt><trkpt lat="45.3034148" lon="11.6996477"><ele>315.3333333333333</ele><time>2026-04-11T15:28:29.036Z</time></trkpt><trkpt lat="45.3034838" lon="11.6995925"><ele>317.0</ele><time>2026-04-11T15:28:30.037Z</time></trkpt><trkpt lat="45.3035634" lon="11.699557"><ele>318.66666666666663</ele><time>2026-04-11T15:28:31.037Z</time></trkpt><trkpt lat="45.303646" lon="11.6995226"><ele>320.3333333333333</ele><time>2026-04-11T15:28:32.037Z</time></trkpt><trkpt lat="45.3037289" lon="11.699487"><ele>322.0</ele><time>2026-04-11T15:28:33.038Z</time></trkpt><trkpt lat="45.3038144" lon="11.6994492"><ele>318.5</ele><time>2026-04-11T15:28:34.037Z</time></trkpt><trkpt lat="45.303892" lon="11.6994154"><ele>315.0</ele><time>2026-04-11T15:28:35.035Z</time></trkpt><trkpt lat="45.3039728" lon="11.6993895"><ele>311.5</ele><time>2026-04-11T15:28:36.035Z</time></trkpt><trkpt lat="45.3040599" lon="11.6993754"><ele>308.0</ele><time>2026-04-11T15:28:37.036Z</time></trkpt><trkpt lat="45.3041465" lon="11.6993694"><ele>304.5</ele><time>2026-04-11T15:28:38.037Z</time></trkpt><trkpt lat="45.3042358" lon="11.6993691"><ele>301.0</ele><time>2026-04-11T15:28:39.036Z</time></trkpt><trkpt lat="45.3043208" lon="11.6993592"><ele>301.0</ele><time>2026-04-11T15:28:40.036Z</time></trkpt><trkpt lat="45.304401" lon="11.6993247"><ele>301.0</ele><time>2026-04-11T15:28:41.037Z</time></trkpt><trkpt lat="45.3044756" lon="11.6992767"><ele>301.0</ele><time>2026-04-11T15:28:42.035Z</time></trkpt><trkpt lat="45.3045495" lon="11.6992242"><ele>301.0</ele><time>2026-04-11T15:28:43.035Z</time></trkpt><trkpt lat="45.3046319" lon="11.6991869"><ele>301.0</ele><time>2026-04-11T15:28:44.035Z</time></trkpt><trkpt lat="45.3047178" lon="11.6991714"><ele>301.0</ele><time>2026-04-11T15:28:45.036Z</time></trkpt><trkpt lat="45.3048058" lon="11.6991855"><ele>300.0</ele><time>2026-04-11T15:28:46.036Z</time></trkpt><trkpt lat="45.3048978" lon="11.6992098"><ele>299.0</ele><time>2026-04-11T15:28:47.037Z</time></trkpt><trkpt lat="45.3049901" lon="11.6992348"><ele>298.0</ele><time>2026-04-11T15:28:48.036Z</time></trkpt><trkpt lat="45.3050788" lon="11.6992538"><ele>297.0</ele><time>2026-04-11T15:28:49.036Z</time></trkpt><trkpt lat="45.3051567" lon="11.6992595"><ele>296.0</ele><time>2026-04-11T15:28:50.037Z</time></trkpt><trkpt lat="45.305221" lon="11.6992556"><ele>295.0</ele><time>2026-04-11T15:28:51.036Z</time></trkpt><trkpt lat="45.3052888" lon="11.699248"><ele>295.0</ele><time>2026-04-11T15:28:52.035Z</time></trkpt><trkpt lat="45.3053612" lon="11.6992237"><ele>295.0</ele><time>2026-04-11T15:28:53.035Z</time></trkpt><trkpt lat="45.3054322" lon="11.6991789"><ele>295.0</ele><time>2026-04-11T15:28:54.036Z</time></trkpt><trkpt lat="45.3055019" lon="11.699117"><ele>295.0</ele><time>2026-04-11T15:28:55.036Z</time></trkpt><trkpt lat="45.3055621" lon="11.6990324"><ele>295.0</ele><time>2026-04-11T15:28:56.037Z</time></trkpt><trkpt lat="45.3056082" lon="11.6989272"><ele>295.0</ele><time>2026-04-11T15:28:57.037Z</time></trkpt><trkpt lat="45.3056428" lon="11.6988239"><ele>293.0</ele><time>2026-04-11T15:28:58.036Z</time></trkpt><trkpt lat="45.3056661" lon="11.6987164"><ele>291.0</ele><time>2026-04-11T15:28:59.035Z</time></trkpt><trkpt lat="45.3056879" lon="11.6986203"><ele>289.0</ele><time>2026-04-11T15:29:00.036Z</time></trkpt><trkpt lat="45.3057493" lon="11.6984832"><ele>287.0</ele><time>2026-04-11T15:29:02.037Z</time></trkpt><trkpt lat="45.3058473" lon="11.698395"><ele>285.0</ele><time>2026-04-11T15:29:04.035Z</time></trkpt><trkpt lat="45.3059079" lon="11.6983627"><ele>283.0</ele><time>2026-04-11T15:29:05.037Z</time></trkpt><trkpt lat="45.3059781" lon="11.6983454"><ele>281.0</ele><time>2026-04-11T15:29:06.036Z</time></trkpt><trkpt lat="45.3060493" lon="11.6983213"><ele>279.0</ele><time>2026-04-11T15:29:07.036Z</time></trkpt><trkpt lat="45.3061151" lon="11.6982875"><ele>277.0</ele><time>2026-04-11T15:29:08.036Z</time></trkpt><trkpt lat="45.3062307" lon="11.6982373"><ele>275.0</ele><time>2026-04-11T15:29:10.036Z</time></trkpt><trkpt lat="45.3063022" lon="11.6982056"><ele>273.0</ele><time>2026-04-11T15:29:12.036Z</time></trkpt><trkpt lat="45.3063919" lon="11.6982499"><ele>271.0</ele><time>2026-04-11T15:29:20.035Z</time></trkpt><trkpt lat="45.306445" lon="11.6983987"><ele>271.0</ele><time>2026-04-11T15:29:22.035Z</time></trkpt><trkpt lat="45.3064709" lon="11.6984887"><ele>271.0</ele><time>2026-04-11T15:29:23.036Z</time></trkpt><trkpt lat="45.3065034" lon="11.6985915"><ele>271.0</ele><time>2026-04-11T15:29:24.036Z</time></trkpt><trkpt lat="45.3065275" lon="11.6987075"><ele>271.0</ele><time>2026-04-11T15:29:25.036Z</time></trkpt><trkpt lat="45.3065306" lon="11.6988416"><ele>271.0</ele><time>2026-04-11T15:29:26.037Z</time></trkpt><trkpt lat="45.3065359" lon="11.6989827"><ele>271.0</ele><time>2026-04-11T15:29:27.036Z</time></trkpt><trkpt lat="45.3065387" lon="11.6991225"><ele>270.0</ele><time>2026-04-11T15:29:28.037Z</time></trkpt><trkpt lat="45.3065428" lon="11.6992761"><ele>269.0</ele><time>2026-04-11T15:29:29.035Z</time></trkpt><trkpt lat="45.3065602" lon="11.6994291"><ele>268.0</ele><time>2026-04-11T15:29:30.036Z</time></trkpt><trkpt lat="45.306589" lon="11.6995853"><ele>267.0</ele><time>2026-04-11T15:29:31.036Z</time></trkpt><trkpt lat="45.3066213" lon="11.6997469"><ele>266.0</ele><time>2026-04-11T15:29:32.036Z</time></trkpt><trkpt lat="45.3066545" lon="11.699908"><ele>264.5</ele><time>2026-04-11T15:29:33.037Z</time></trkpt><trkpt lat="45.30669" lon="11.7000766"><ele>263.0</ele><time>2026-04-11T15:29:34.037Z</time></trkpt><trkpt lat="45.306722" lon="11.7002452"><ele>261.5</ele><time>2026-04-11T15:29:35.037Z</time></trkpt><trkpt lat="45.3067557" lon="11.7004144"><ele>260.0</ele><time>2026-04-11T15:29:36.036Z</time></trkpt><trkpt lat="45.3067894" lon="11.7005726"><ele>260.0</ele><time>2026-04-11T15:29:37.036Z</time></trkpt><trkpt lat="45.306818" lon="11.7007259"><ele>260.0</ele><time>2026-04-11T15:29:38.036Z</time></trkpt><trkpt lat="45.3068457" lon="11.7008747"><ele>260.0</ele><time>2026-04-11T15:29:39.036Z</time></trkpt><trkpt lat="45.3068731" lon="11.7010218"><ele>260.0</ele><time>2026-04-11T15:29:40.036Z</time></trkpt><trkpt lat="45.3069014" lon="11.701165"><ele>260.0</ele><time>2026-04-11T15:29:41.036Z</time></trkpt><trkpt lat="45.3069311" lon="11.7013004"><ele>260.0</ele><time>2026-04-11T15:29:42.036Z</time></trkpt><trkpt lat="45.3069605" lon="11.7014403"><ele>260.0</ele><time>2026-04-11T15:29:43.037Z</time></trkpt><trkpt lat="45.3069771" lon="11.7015866"><ele>260.0</ele><time>2026-04-11T15:29:44.037Z</time></trkpt><trkpt lat="45.3069675" lon="11.7017273"><ele>260.0</ele><time>2026-04-11T15:29:45.036Z</time></trkpt><trkpt lat="45.3069443" lon="11.7018664"><ele>260.0</ele><time>2026-04-11T15:29:46.037Z</time></trkpt><trkpt lat="45.3068986" lon="11.7019981"><ele>257.8</ele><time>2026-04-11T15:29:47.036Z</time></trkpt><trkpt lat="45.3068386" lon="11.7021187"><ele>255.6</ele><time>2026-04-11T15:29:48.035Z</time></trkpt><trkpt lat="45.3067723" lon="11.7022317"><ele>253.39999999999998</ele><time>2026-04-11T15:29:49.036Z</time></trkpt><trkpt lat="45.3067026" lon="11.7023454"><ele>251.2</ele><time>2026-04-11T15:29:50.036Z</time></trkpt><trkpt lat="45.3066358" lon="11.7024572"><ele>249.0</ele><time>2026-04-11T15:29:51.036Z</time></trkpt><trkpt lat="45.3065617" lon="11.7025706"><ele>249.0</ele><time>2026-04-11T15:29:52.037Z</time></trkpt><trkpt lat="45.3064945" lon="11.702686"><ele>248.99999999999997</ele><time>2026-04-11T15:29:53.035Z</time></trkpt><trkpt lat="45.3064334" lon="11.7028129"><ele>248.99999999999997</ele><time>2026-04-11T15:29:54.036Z</time></trkpt><trkpt lat="45.3063814" lon="11.7029522"><ele>249.0</ele><time>2026-04-11T15:29:55.035Z</time></trkpt><trkpt lat="45.3063703" lon="11.7031114"><ele>249.0</ele><time>2026-04-11T15:29:56.035Z</time></trkpt><trkpt lat="45.3063587" lon="11.7032655"><ele>249.79999999999998</ele><time>2026-04-11T15:29:57.036Z</time></trkpt><trkpt lat="45.3063389" lon="11.703409"><ele>250.59999999999997</ele><time>2026-04-11T15:29:58.037Z</time></trkpt><trkpt lat="45.3062643" lon="11.7035248"><ele>251.4</ele><time>2026-04-11T15:29:59.036Z</time></trkpt><trkpt lat="45.3061903" lon="11.703615"><ele>252.2</ele><time>2026-04-11T15:30:00.035Z</time></trkpt><trkpt lat="45.3061076" lon="11.7036563"><ele>253.0</ele><time>2026-04-11T15:30:01.037Z</time></trkpt><trkpt lat="45.3060226" lon="11.7036813"><ele>253.0</ele><time>2026-04-11T15:30:02.035Z</time></trkpt><trkpt lat="45.3059279" lon="11.7036338"><ele>253.0</ele><time>2026-04-11T15:30:03.036Z</time></trkpt><trkpt lat="45.3058392" lon="11.7035769"><ele>253.0</ele><time>2026-04-11T15:30:04.037Z</time></trkpt><trkpt lat="45.3057451" lon="11.7035327"><ele>253.0</ele><time>2026-04-11T15:30:05.037Z</time></trkpt><trkpt lat="45.3056447" lon="11.7035216"><ele>253.0</ele><time>2026-04-11T15:30:06.036Z</time></trkpt><trkpt lat="45.305538" lon="11.703542"><ele>250.2</ele><time>2026-04-11T15:30:07.036Z</time></trkpt><trkpt lat="45.3054335" lon="11.7035735"><ele>247.4</ele><time>2026-04-11T15:30:08.037Z</time></trkpt><trkpt lat="45.3053315" lon="11.7036213"><ele>244.59999999999997</ele><time>2026-04-11T15:30:09.037Z</time></trkpt><trkpt lat="45.3052368" lon="11.7036935"><ele>241.79999999999998</ele><time>2026-04-11T15:30:10.035Z</time></trkpt><trkpt lat="45.3051571" lon="11.7037937"><ele>239.0</ele><time>2026-04-11T15:30:11.037Z</time></trkpt><trkpt lat="45.3050986" lon="11.7039182"><ele>239.0</ele><time>2026-04-11T15:30:12.035Z</time></trkpt><trkpt lat="45.3050558" lon="11.7040579"><ele>238.99999999999997</ele><time>2026-04-11T15:30:13.037Z</time></trkpt><trkpt lat="45.3050299" lon="11.7042074"><ele>238.99999999999997</ele><time>2026-04-11T15:30:14.035Z</time></trkpt><trkpt lat="45.3050098" lon="11.704363"><ele>239.0</ele><time>2026-04-11T15:30:15.035Z</time></trkpt><trkpt lat="45.3049762" lon="11.70451"><ele>239.0</ele><time>2026-04-11T15:30:16.036Z</time></trkpt><trkpt lat="45.3049234" lon="11.7046433"><ele>240.0</ele><time>2026-04-11T15:30:17.036Z</time></trkpt><trkpt lat="45.3048537" lon="11.7047638"><ele>240.99999999999997</ele><time>2026-04-11T15:30:18.036Z</time></trkpt><trkpt lat="45.304782" lon="11.7048762"><ele>241.99999999999997</ele><time>2026-04-11T15:30:19.035Z</time></trkpt><trkpt lat="45.3046996" lon="11.7049835"><ele>243.0</ele><time>2026-04-11T15:30:20.036Z</time></trkpt><trkpt lat="45.3046205" lon="11.7050968"><ele>244.0</ele><time>2026-04-11T15:30:21.037Z</time></trkpt><trkpt lat="45.3045492" lon="11.7052158"><ele>240.0</ele><time>2026-04-11T15:30:22.037Z</time></trkpt><trkpt lat="45.3044959" lon="11.7053514"><ele>235.99999999999997</ele><time>2026-04-11T15:30:23.037Z</time></trkpt><trkpt lat="45.3044572" lon="11.7054964"><ele>231.99999999999997</ele><time>2026-04-11T15:30:24.036Z</time></trkpt><trkpt lat="45.3044365" lon="11.7056435"><ele>228.0</ele><time>2026-04-11T15:30:25.035Z</time></trkpt><trkpt lat="45.3044131" lon="11.7057891"><ele>224.0</ele><time>2026-04-11T15:30:26.035Z</time></trkpt><trkpt lat="45.3043521" lon="11.7059154"><ele>224.0</ele><time>2026-04-11T15:30:27.036Z</time></trkpt><trkpt lat="45.3042821" lon="11.70602"><ele>223.99999999999997</ele><time>2026-04-11T15:30:28.036Z</time></trkpt><trkpt lat="45.3041888" lon="11.7060872"><ele>223.99999999999997</ele><time>2026-04-11T15:30:29.036Z</time></trkpt><trkpt lat="45.3040905" lon="11.7061142"><ele>224.0</ele><time>2026-04-11T15:30:30.035Z</time></trkpt><trkpt lat="45.3039858" lon="11.7061051"><ele>224.0</ele><time>2026-04-11T15:30:31.037Z</time></trkpt><trkpt lat="45.3037767" lon="11.7060501"><ele>225.39999999999998</ele><time>2026-04-11T15:30:33.037Z</time></trkpt><trkpt lat="45.3036671" lon="11.7060226"><ele>226.79999999999998</ele><time>2026-04-11T15:30:34.037Z</time></trkpt><trkpt lat="45.3035579" lon="11.7059996"><ele>228.20000000000002</ele><time>2026-04-11T15:30:35.036Z</time></trkpt><trkpt lat="45.3034474" lon="11.7060152"><ele>229.60000000000002</ele><time>2026-04-11T15:30:36.036Z</time></trkpt><trkpt lat="45.3033448" lon="11.7060547"><ele>231.0</ele><time>2026-04-11T15:30:37.037Z</time></trkpt><trkpt lat="45.3032419" lon="11.706108"><ele>228.8</ele><time>2026-04-11T15:30:38.036Z</time></trkpt><trkpt lat="45.3031395" lon="11.7061611"><ele>226.60000000000002</ele><time>2026-04-11T15:30:39.035Z</time></trkpt><trkpt lat="45.3030318" lon="11.7062004"><ele>224.4</ele><time>2026-04-11T15:30:40.035Z</time></trkpt><trkpt lat="45.3029223" lon="11.7062313"><ele>222.2</ele><time>2026-04-11T15:30:41.035Z</time></trkpt><trkpt lat="45.3028118" lon="11.7062543"><ele>220.0</ele><time>2026-04-11T15:30:42.036Z</time></trkpt><trkpt lat="45.3027114" lon="11.7062884"><ele>219.99999999999997</ele><time>2026-04-11T15:30:43.036Z</time></trkpt><trkpt lat="45.3026255" lon="11.7063439"><ele>220.0</ele><time>2026-04-11T15:30:44.036Z</time></trkpt><trkpt lat="45.3025612" lon="11.7064179"><ele>220.0</ele><time>2026-04-11T15:30:45.036Z</time></trkpt><trkpt lat="45.3025241" lon="11.7065217"><ele>220.0</ele><time>2026-04-11T15:30:46.036Z</time></trkpt><trkpt lat="45.3025178" lon="11.7066473"><ele>219.99999999999997</ele><time>2026-04-11T15:30:47.035Z</time></trkpt><trkpt lat="45.3025158" lon="11.7067794"><ele>220.0</ele><time>2026-04-11T15:30:48.037Z</time></trkpt><trkpt lat="45.3025641" lon="11.706916"><ele>219.25</ele><time>2026-04-11T15:30:49.035Z</time></trkpt><trkpt lat="45.3025986" lon="11.7070638"><ele>218.5</ele><time>2026-04-11T15:30:50.036Z</time></trkpt><trkpt lat="45.3026352" lon="11.7072246"><ele>217.75</ele><time>2026-04-11T15:30:51.035Z</time></trkpt><trkpt lat="45.3026648" lon="11.7073953"><ele>217.0</ele><time>2026-04-11T15:30:52.036Z</time></trkpt><trkpt lat="45.3026925" lon="11.7075605"><ele>217.0</ele><time>2026-04-11T15:30:53.036Z</time></trkpt><trkpt lat="45.3027095" lon="11.7077225"><ele>217.0</ele><time>2026-04-11T15:30:54.036Z</time></trkpt><trkpt lat="45.3027267" lon="11.7078868"><ele>217.0</ele><time>2026-04-11T15:30:55.036Z</time></trkpt><trkpt lat="45.302721" lon="11.7080559"><ele>217.0</ele><time>2026-04-11T15:30:56.036Z</time></trkpt><trkpt lat="45.3026942" lon="11.7082347"><ele>216.25</ele><time>2026-04-11T15:30:57.036Z</time></trkpt><trkpt lat="45.3026633" lon="11.7084207"><ele>215.5</ele><time>2026-04-11T15:30:58.036Z</time></trkpt><trkpt lat="45.3026305" lon="11.7086059"><ele>214.75</ele><time>2026-04-11T15:30:59.035Z</time></trkpt><trkpt lat="45.3026039" lon="11.7087876"><ele>214.0</ele><time>2026-04-11T15:31:00.036Z</time></trkpt><trkpt lat="45.3025794" lon="11.7089594"><ele>210.0</ele><time>2026-04-11T15:31:01.036Z</time></trkpt><trkpt lat="45.3025438" lon="11.7091196"><ele>206.0</ele><time>2026-04-11T15:31:02.036Z</time></trkpt><trkpt lat="45.3025052" lon="11.7092817"><ele>202.0</ele><time>2026-04-11T15:31:03.035Z</time></trkpt><trkpt lat="45.3024162" lon="11.7094403"><ele>198.0</ele><time>2026-04-11T15:31:04.036Z</time></trkpt><trkpt lat="45.3023508" lon="11.7095962"><ele>193.0</ele><time>2026-04-11T15:31:05.036Z</time></trkpt><trkpt lat="45.3023004" lon="11.7097556"><ele>188.0</ele><time>2026-04-11T15:31:06.037Z</time></trkpt><trkpt lat="45.3022665" lon="11.7099235"><ele>183.0</ele><time>2026-04-11T15:31:07.036Z</time></trkpt><trkpt lat="45.3022559" lon="11.7100906"><ele>178.0</ele><time>2026-04-11T15:31:08.036Z</time></trkpt><trkpt lat="45.3022461" lon="11.7102502"><ele>176.2</ele><time>2026-04-11T15:31:09.035Z</time></trkpt><trkpt lat="45.3022368" lon="11.7103945"><ele>174.4</ele><time>2026-04-11T15:31:10.035Z</time></trkpt><trkpt lat="45.3022339" lon="11.7105229"><ele>172.6</ele><time>2026-04-11T15:31:11.037Z</time></trkpt><trkpt lat="45.3022436" lon="11.710616"><ele>170.79999999999998</ele><time>2026-04-11T15:31:12.037Z</time></trkpt><trkpt lat="45.3023329" lon="11.7107189"><ele>169.0</ele><time>2026-04-11T15:31:14.036Z</time></trkpt><trkpt lat="45.3024414" lon="11.710672"><ele>168.6</ele><time>2026-04-11T15:31:16.036Z</time></trkpt><trkpt lat="45.3024721" lon="11.7104988"><ele>168.2</ele><time>2026-04-11T15:31:18.035Z</time></trkpt><trkpt lat="45.30247" lon="11.7103935"><ele>167.79999999999998</ele><time>2026-04-11T15:31:19.036Z</time></trkpt><trkpt lat="45.3024693" lon="11.7102803"><ele>167.39999999999998</ele><time>2026-04-11T15:31:20.035Z</time></trkpt><trkpt lat="45.3024728" lon="11.7101573"><ele>167.0</ele><time>2026-04-11T15:31:21.038Z</time></trkpt><trkpt lat="45.3024912" lon="11.7100362"><ele>169.2</ele><time>2026-04-11T15:31:22.037Z</time></trkpt><trkpt lat="45.3025284" lon="11.7099168"><ele>171.39999999999998</ele><time>2026-04-11T15:31:23.036Z</time></trkpt><trkpt lat="45.3025767" lon="11.7097973"><ele>173.60000000000002</ele><time>2026-04-11T15:31:24.037Z</time></trkpt><trkpt lat="45.3026373" lon="11.709689"><ele>175.8</ele><time>2026-04-11T15:31:25.036Z</time></trkpt><trkpt lat="45.302706" lon="11.7095873"><ele>178.0</ele><time>2026-04-11T15:31:26.035Z</time></trkpt><trkpt lat="45.3027719" lon="11.7094893"><ele>182.0</ele><time>2026-04-11T15:31:27.036Z</time></trkpt><trkpt lat="45.3028385" lon="11.7093953"><ele>186.0</ele><time>2026-04-11T15:31:28.035Z</time></trkpt><trkpt lat="45.3029115" lon="11.7093049"><ele>190.0</ele><time>2026-04-11T15:31:29.036Z</time></trkpt><trkpt lat="45.3029862" lon="11.7092348"><ele>194.0</ele><time>2026-04-11T15:31:30.036Z</time></trkpt><trkpt lat="45.303054" lon="11.7091374"><ele>198.0</ele><time>2026-04-11T15:31:31.036Z</time></trkpt><trkpt lat="45.3031127" lon="11.7090358"><ele>190.4</ele><time>2026-04-11T15:31:32.036Z</time></trkpt><trkpt lat="45.3031042" lon="11.7088988"><ele>182.8</ele><time>2026-04-11T15:31:33.036Z</time></trkpt><trkpt lat="45.3030943" lon="11.7087665"><ele>175.2</ele><time>2026-04-11T15:31:34.035Z</time></trkpt><trkpt lat="45.3030852" lon="11.7086255"><ele>167.6</ele><time>2026-04-11T15:31:35.036Z</time></trkpt><trkpt lat="45.3030983" lon="11.708477"><ele>160.0</ele><time>2026-04-11T15:31:36.035Z</time></trkpt><trkpt lat="45.3031172" lon="11.7083152"><ele>160.0</ele><time>2026-04-11T15:31:37.036Z</time></trkpt><trkpt lat="45.3031501" lon="11.708158"><ele>160.0</ele><time>2026-04-11T15:31:38.036Z</time></trkpt><trkpt lat="45.3031835" lon="11.7080114"><ele>160.0</ele><time>2026-04-11T15:31:39.037Z</time></trkpt><trkpt lat="45.3032091" lon="11.7078717"><ele>160.0</ele><time>2026-04-11T15:31:40.036Z</time></trkpt><trkpt lat="45.3032342" lon="11.7077481"><ele>160.0</ele><time>2026-04-11T15:31:41.036Z</time></trkpt><trkpt lat="45.3032667" lon="11.7076335"><ele>161.8</ele><time>2026-04-11T15:31:42.036Z</time></trkpt><trkpt lat="45.3033224" lon="11.7075507"><ele>163.6</ele><time>2026-04-11T15:31:43.036Z</time></trkpt><trkpt lat="45.3033953" lon="11.7075099"><ele>165.39999999999998</ele><time>2026-04-11T15:31:44.037Z</time></trkpt><trkpt lat="45.3034837" lon="11.7075138"><ele>167.2</ele><time>2026-04-11T15:31:45.036Z</time></trkpt><trkpt lat="45.3035802" lon="11.7075575"><ele>169.0</ele><time>2026-04-11T15:31:46.035Z</time></trkpt><trkpt lat="45.3036877" lon="11.7076127"><ele>169.0</ele><time>2026-04-11T15:31:47.037Z</time></trkpt><trkpt lat="45.3038093" lon="11.7076549"><ele>169.0</ele><time>2026-04-11T15:31:48.036Z</time></trkpt><trkpt lat="45.3039431" lon="11.7076795"><ele>169.0</ele><time>2026-04-11T15:31:49.036Z</time></trkpt><trkpt lat="45.3040767" lon="11.7076987"><ele>169.0</ele><time>2026-04-11T15:31:50.037Z</time></trkpt><trkpt lat="45.3042179" lon="11.7077009"><ele>168.5</ele><time>2026-04-11T15:31:51.037Z</time></trkpt><trkpt lat="45.3043565" lon="11.7077104"><ele>168.0</ele><time>2026-04-11T15:31:52.036Z</time></trkpt><trkpt lat="45.3044945" lon="11.7077091"><ele>167.5</ele><time>2026-04-11T15:31:53.037Z</time></trkpt><trkpt lat="45.3046319" lon="11.7076777"><ele>167.0</ele><time>2026-04-11T15:31:54.036Z</time></trkpt><trkpt lat="45.3047664" lon="11.7076133"><ele>159.33333333333331</ele><time>2026-04-11T15:31:55.037Z</time></trkpt><trkpt lat="45.3048971" lon="11.7075081"><ele>151.66666666666666</ele><time>2026-04-11T15:31:56.036Z</time></trkpt><trkpt lat="45.3050358" lon="11.7073833"><ele>144.0</ele><time>2026-04-11T15:31:57.036Z</time></trkpt><trkpt lat="45.3051736" lon="11.7072602"><ele>144.0</ele><time>2026-04-11T15:31:58.036Z</time></trkpt><trkpt lat="45.3053177" lon="11.7071639"><ele>144.0</ele><time>2026-04-11T15:31:59.035Z</time></trkpt><trkpt lat="45.3054709" lon="11.7071022"><ele>144.0</ele><time>2026-04-11T15:32:00.037Z</time></trkpt><trkpt lat="45.3056152" lon="11.707051"><ele>145.75</ele><time>2026-04-11T15:32:01.035Z</time></trkpt><trkpt lat="45.3057457" lon="11.7069825"><ele>147.5</ele><time>2026-04-11T15:32:02.037Z</time></trkpt><trkpt lat="45.3058622" lon="11.7068979"><ele>149.25</ele><time>2026-04-11T15:32:03.036Z</time></trkpt><trkpt lat="45.3059665" lon="11.7068024"><ele>151.0</ele><time>2026-04-11T15:32:04.035Z</time></trkpt><trkpt lat="45.3060705" lon="11.7067143"><ele>151.0</ele><time>2026-04-11T15:32:05.036Z</time></trkpt><trkpt lat="45.3061721" lon="11.706661"><ele>151.0</ele><time>2026-04-11T15:32:06.036Z</time></trkpt><trkpt lat="45.306274" lon="11.7066072"><ele>151.0</ele><time>2026-04-11T15:32:07.037Z</time></trkpt><trkpt lat="45.3063656" lon="11.7065275"><ele>151.0</ele><time>2026-04-11T15:32:08.036Z</time></trkpt><trkpt lat="45.3064432" lon="11.706421"><ele>151.0</ele><time>2026-04-11T15:32:09.038Z</time></trkpt><trkpt lat="45.3065113" lon="11.7063048"><ele>148.33333333333334</ele><time>2026-04-11T15:32:10.037Z</time></trkpt><trkpt lat="45.3065728" lon="11.7062121"><ele>145.66666666666669</ele><time>2026-04-11T15:32:11.037Z</time></trkpt><trkpt lat="45.3066267" lon="11.7061385"><ele>143.0</ele><time>2026-04-11T15:32:12.035Z</time></trkpt><trkpt lat="45.3066829" lon="11.7060967"><ele>140.33333333333334</ele><time>2026-04-11T15:32:13.036Z</time></trkpt><trkpt lat="45.3067825" lon="11.7061457"><ele>137.66666666666666</ele><time>2026-04-11T15:32:15.036Z</time></trkpt><trkpt lat="45.3068058" lon="11.706231"><ele>135.0</ele><time>2026-04-11T15:32:16.037Z</time></trkpt><trkpt lat="45.3068039" lon="11.7063439"><ele>135.0</ele><time>2026-04-11T15:32:17.035Z</time></trkpt><trkpt lat="45.3067805" lon="11.7064679"><ele>135.0</ele><time>2026-04-11T15:32:18.035Z</time></trkpt><trkpt lat="45.3067292" lon="11.7066004"><ele>135.0</ele><time>2026-04-11T15:32:19.036Z</time></trkpt><trkpt lat="45.3066644" lon="11.7067259"><ele>135.0</ele><time>2026-04-11T15:32:20.035Z</time></trkpt><trkpt lat="45.3065898" lon="11.7068423"><ele>135.0</ele><time>2026-04-11T15:32:21.035Z</time></trkpt><trkpt lat="45.3065286" lon="11.7069629"><ele>133.0</ele><time>2026-04-11T15:32:22.036Z</time></trkpt><trkpt lat="45.3064668" lon="11.7070999"><ele>131.0</ele><time>2026-04-11T15:32:23.036Z</time></trkpt><trkpt lat="45.3063959" lon="11.707244"><ele>129.0</ele><time>2026-04-11T15:32:24.037Z</time></trkpt><trkpt lat="45.3063146" lon="11.7073794"><ele>127.0</ele><time>2026-04-11T15:32:25.036Z</time></trkpt><trkpt lat="45.3061986" lon="11.7075045"><ele>127.0</ele><time>2026-04-11T15:32:26.038Z</time></trkpt><trkpt lat="45.3060565" lon="11.7076416"><ele>127.0</ele><time>2026-04-11T15:32:27.036Z</time></trkpt><trkpt lat="45.305907" lon="11.7077744"><ele>127.0</ele><time>2026-04-11T15:32:28.036Z</time></trkpt><trkpt lat="45.305769" lon="11.7078848"><ele>125.25</ele><time>2026-04-11T15:32:29.037Z</time></trkpt><trkpt lat="45.3056556" lon="11.7079914"><ele>123.5</ele><time>2026-04-11T15:32:30.038Z</time></trkpt><trkpt lat="45.3055589" lon="11.7081105"><ele>121.75</ele><time>2026-04-11T15:32:31.035Z</time></trkpt><trkpt lat="45.3054743" lon="11.7082549"><ele>120.0</ele><time>2026-04-11T15:32:32.036Z</time></trkpt><trkpt lat="45.305407" lon="11.7084414"><ele>116.5</ele><time>2026-04-11T15:32:33.036Z</time></trkpt><trkpt lat="45.3053518" lon="11.7086325"><ele>113.0</ele><time>2026-04-11T15:32:34.035Z</time></trkpt><trkpt lat="45.3052852" lon="11.7088117"><ele>109.5</ele><time>2026-04-11T15:32:35.036Z</time></trkpt><trkpt lat="45.3052009" lon="11.7089895"><ele>106.0</ele><time>2026-04-11T15:32:36.035Z</time></trkpt><trkpt lat="45.3051008" lon="11.7091519"><ele>106.0</ele><time>2026-04-11T15:32:37.037Z</time></trkpt><trkpt lat="45.305004" lon="11.7093091"><ele>106.0</ele><time>2026-04-11T15:32:38.036Z</time></trkpt><trkpt lat="45.3049249" lon="11.7094724"><ele>106.0</ele><time>2026-04-11T15:32:39.036Z</time></trkpt><trkpt lat="45.3048645" lon="11.7096427"><ele>106.0</ele><time>2026-04-11T15:32:40.036Z</time></trkpt><trkpt lat="45.3048172" lon="11.7098185"><ele>103.5</ele><time>2026-04-11T15:32:41.036Z</time></trkpt><trkpt lat="45.3047855" lon="11.7100144"><ele>101.0</ele><time>2026-04-11T15:32:42.036Z</time></trkpt><trkpt lat="45.3047722" lon="11.7102235"><ele>98.5</ele><time>2026-04-11T15:32:43.036Z</time></trkpt><trkpt lat="45.3047685" lon="11.7104331"><ele>96.0</ele><time>2026-04-11T15:32:44.036Z</time></trkpt><trkpt lat="45.3047774" lon="11.7106417"><ele>94.0</ele><time>2026-04-11T15:32:45.035Z</time></trkpt><trkpt lat="45.3047855" lon="11.7108416"><ele>92.0</ele><time>2026-04-11T15:32:46.036Z</time></trkpt><trkpt lat="45.3047875" lon="11.7110219"><ele>90.0</ele><time>2026-04-11T15:32:47.035Z</time></trkpt><trkpt lat="45.304779" lon="11.7111909"><ele>88.0</ele><time>2026-04-11T15:32:48.036Z</time></trkpt><trkpt lat="45.3047747" lon="11.7113529"><ele>86.25</ele><time>2026-04-11T15:32:49.036Z</time></trkpt><trkpt lat="45.3047694" lon="11.7115161"><ele>84.5</ele><time>2026-04-11T15:32:50.036Z</time></trkpt><trkpt lat="45.304763" lon="11.7116801"><ele>82.75</ele><time>2026-04-11T15:32:51.036Z</time></trkpt><trkpt lat="45.3047625" lon="11.7118407"><ele>81.0</ele><time>2026-04-11T15:32:52.036Z</time></trkpt><trkpt lat="45.3047639" lon="11.7120093"><ele>80.0</ele><time>2026-04-11T15:32:53.036Z</time></trkpt><trkpt lat="45.304773" lon="11.7121702"><ele>79.0</ele><time>2026-04-11T15:32:54.036Z</time></trkpt><trkpt lat="45.3047876" lon="11.7123232"><ele>78.0</ele><time>2026-04-11T15:32:55.037Z</time></trkpt><trkpt lat="45.3048055" lon="11.7124678"><ele>77.0</ele><time>2026-04-11T15:32:56.036Z</time></trkpt><trkpt lat="45.3048217" lon="11.7126036"><ele>76.0</ele><time>2026-04-11T15:32:57.036Z</time></trkpt><trkpt lat="45.3048383" lon="11.7127351"><ele>75.16666666666666</ele><time>2026-04-11T15:32:58.036Z</time></trkpt><trkpt lat="45.3048538" lon="11.7128576"><ele>74.33333333333333</ele><time>2026-04-11T15:32:59.038Z</time></trkpt><trkpt lat="45.3048727" lon="11.7129639"><ele>73.5</ele><time>2026-04-11T15:33:00.037Z</time></trkpt><trkpt lat="45.3048921" lon="11.7130739"><ele>72.66666666666667</ele><time>2026-04-11T15:33:01.035Z</time></trkpt><trkpt lat="45.3049159" lon="11.7131805"><ele>71.83333333333334</ele><time>2026-04-11T15:33:02.037Z</time></trkpt><trkpt lat="45.3049399" lon="11.7132893"><ele>71.0</ele><time>2026-04-11T15:33:03.036Z</time></trkpt><trkpt lat="45.3049632" lon="11.7133962"><ele>71.0</ele><time>2026-04-11T15:33:04.035Z</time></trkpt><trkpt lat="45.3049801" lon="11.7134965"><ele>71.0</ele><time>2026-04-11T15:33:05.037Z</time></trkpt><trkpt lat="45.3049817" lon="11.7136083"><ele>71.0</ele><time>2026-04-11T15:33:06.036Z</time></trkpt><trkpt lat="45.3049821" lon="11.7137293"><ele>71.0</ele><time>2026-04-11T15:33:07.036Z</time></trkpt><trkpt lat="45.3049822" lon="11.7138563"><ele>71.0</ele><time>2026-04-11T15:33:08.037Z</time></trkpt><trkpt lat="45.3049743" lon="11.713994"><ele>71.0</ele><time>2026-04-11T15:33:09.037Z</time></trkpt><trkpt lat="45.3049656" lon="11.7141293"><ele>71.0</ele><time>2026-04-11T15:33:10.037Z</time></trkpt><trkpt lat="45.3049611" lon="11.7142607"><ele>71.0</ele><time>2026-04-11T15:33:11.035Z</time></trkpt><trkpt lat="45.3049637" lon="11.7143998"><ele>71.0</ele><time>2026-04-11T15:33:12.037Z</time></trkpt><trkpt lat="45.3049727" lon="11.7145462"><ele>71.0</ele><time>2026-04-11T15:33:13.037Z</time></trkpt><trkpt lat="45.3049859" lon="11.7146948"><ele>71.0</ele><time>2026-04-11T15:33:14.037Z</time></trkpt><trkpt lat="45.3049878" lon="11.7148474"><ele>69.6</ele><time>2026-04-11T15:33:15.037Z</time></trkpt><trkpt lat="45.3049808" lon="11.7150013"><ele>68.19999999999999</ele><time>2026-04-11T15:33:16.036Z</time></trkpt><trkpt lat="45.3049772" lon="11.7151502"><ele>66.80000000000001</ele><time>2026-04-11T15:33:17.037Z</time></trkpt><trkpt lat="45.3049753" lon="11.715312"><ele>65.4</ele><time>2026-04-11T15:33:18.036Z</time></trkpt><trkpt lat="45.3049761" lon="11.7154753"><ele>64.0</ele><time>2026-04-11T15:33:19.037Z</time></trkpt><trkpt lat="45.3049662" lon="11.7156341"><ele>57.0</ele><time>2026-04-11T15:33:20.035Z</time></trkpt></trkseg></trk></gpx>